<?xml version="1.0" encoding="UTF-8" standalone="no" ?>
<gpx xmlns="http://www.topografix.com/GPX/1/1" xmlns:xsi="http://www.w3.org/2001/XMLSchema-instance" xsi:schemaLocation="http://www.topografix.com/GPX/1/1 http://www.topografix.com/GPX/1/1/gpx.xsd" version="1.1" creator="VisuGPX - https://www.visugpx.com">
  <metadata>
    <name>chauve loic nico</name>
    <desc><![CDATA[cayenne zongo!]]></desc>
  </metadata>
  <trk>
    <name><![CDATA[(null)]]></name>
    <desc><![CDATA[(null)]]></desc>
    <trkseg>
      <trkpt lat="43.74389" lon="7.26343">
        <ele>216.417641</ele>
        <time>2011-10-22T11:07:10Z</time>
      </trkpt>
      <trkpt lat="43.74389" lon="7.26343">
        <ele>216.417641</ele>
        <time>2011-10-22T11:07:11Z</time>
      </trkpt>
      <trkpt lat="43.74389" lon="7.26343">
        <ele>216.417641</ele>
        <time>2011-10-22T11:08:05Z</time>
      </trkpt>
      <trkpt lat="43.74437" lon="7.26354">
        <ele>291.417732</ele>
        <time>2011-10-22T11:08:07Z</time>
      </trkpt>
      <trkpt lat="43.7445" lon="7.26358">
        <ele>293.417755</ele>
        <time>2011-10-22T11:08:09Z</time>
      </trkpt>
      <trkpt lat="43.74462" lon="7.26359">
        <ele>295.417778</ele>
        <time>2011-10-22T11:08:11Z</time>
      </trkpt>
      <trkpt lat="43.74473" lon="7.26359">
        <ele>297.417789</ele>
        <time>2011-10-22T11:08:13Z</time>
      </trkpt>
      <trkpt lat="43.74485" lon="7.26357">
        <ele>298.417805</ele>
        <time>2011-10-22T11:08:15Z</time>
      </trkpt>
      <trkpt lat="43.74494" lon="7.26357">
        <ele>298.417816</ele>
        <time>2011-10-22T11:08:17Z</time>
      </trkpt>
      <trkpt lat="43.74507" lon="7.26357">
        <ele>299.417831</ele>
        <time>2011-10-22T11:08:19Z</time>
      </trkpt>
      <trkpt lat="43.74519" lon="7.26361">
        <ele>299.417854</ele>
        <time>2011-10-22T11:08:21Z</time>
      </trkpt>
      <trkpt lat="43.74529" lon="7.26364">
        <ele>299.417881</ele>
        <time>2011-10-22T11:08:23Z</time>
      </trkpt>
      <trkpt lat="43.74541" lon="7.26369">
        <ele>299.417904</ele>
        <time>2011-10-22T11:08:25Z</time>
      </trkpt>
      <trkpt lat="43.74552" lon="7.26374">
        <ele>299.417931</ele>
        <time>2011-10-22T11:08:27Z</time>
      </trkpt>
      <trkpt lat="43.74564" lon="7.26379">
        <ele>299.417957</ele>
        <time>2011-10-22T11:08:29Z</time>
      </trkpt>
      <trkpt lat="43.7457" lon="7.26381">
        <ele>299.417973</ele>
        <time>2011-10-22T11:08:30Z</time>
      </trkpt>
      <trkpt lat="43.74581" lon="7.26384">
        <ele>299.417992</ele>
        <time>2011-10-22T11:08:32Z</time>
      </trkpt>
      <trkpt lat="43.74592" lon="7.26383">
        <ele>299.418007</ele>
        <time>2011-10-22T11:08:34Z</time>
      </trkpt>
      <trkpt lat="43.74601" lon="7.26383">
        <ele>300.418018</ele>
        <time>2011-10-22T11:08:36Z</time>
      </trkpt>
      <trkpt lat="43.74611" lon="7.2638">
        <ele>301.418022</ele>
        <time>2011-10-22T11:08:39Z</time>
      </trkpt>
      <trkpt lat="43.74622" lon="7.26377">
        <ele>302.418034</ele>
        <time>2011-10-22T11:08:42Z</time>
      </trkpt>
      <trkpt lat="43.74634" lon="7.26379">
        <ele>304.418056</ele>
        <time>2011-10-22T11:08:45Z</time>
      </trkpt>
      <trkpt lat="43.74647" lon="7.26382">
        <ele>305.418079</ele>
        <time>2011-10-22T11:08:48Z</time>
      </trkpt>
      <trkpt lat="43.74659" lon="7.26387">
        <ele>307.418106</ele>
        <time>2011-10-22T11:08:51Z</time>
      </trkpt>
      <trkpt lat="43.74672" lon="7.26388">
        <ele>309.418125</ele>
        <time>2011-10-22T11:08:54Z</time>
      </trkpt>
      <trkpt lat="43.74685" lon="7.26388">
        <ele>310.418144</ele>
        <time>2011-10-22T11:08:57Z</time>
      </trkpt>
      <trkpt lat="43.74694" lon="7.26388">
        <ele>311.418159</ele>
        <time>2011-10-22T11:08:59Z</time>
      </trkpt>
      <trkpt lat="43.74706" lon="7.26388">
        <ele>312.418175</ele>
        <time>2011-10-22T11:09:02Z</time>
      </trkpt>
      <trkpt lat="43.74719" lon="7.26389">
        <ele>312.418194</ele>
        <time>2011-10-22T11:09:05Z</time>
      </trkpt>
      <trkpt lat="43.74723" lon="7.2639">
        <ele>313.418201</ele>
        <time>2011-10-22T11:09:06Z</time>
      </trkpt>
      <trkpt lat="43.74735" lon="7.26394">
        <ele>314.418228</ele>
        <time>2011-10-22T11:09:09Z</time>
      </trkpt>
      <trkpt lat="43.74745" lon="7.26398">
        <ele>315.418251</ele>
        <time>2011-10-22T11:09:12Z</time>
      </trkpt>
      <trkpt lat="43.74755" lon="7.26404">
        <ele>316.418274</ele>
        <time>2011-10-22T11:09:15Z</time>
      </trkpt>
      <trkpt lat="43.74758" lon="7.26406">
        <ele>317.418282</ele>
        <time>2011-10-22T11:09:16Z</time>
      </trkpt>
      <trkpt lat="43.74775" lon="7.26416">
        <ele>320.418327</ele>
        <time>2011-10-22T11:09:25Z</time>
      </trkpt>
      <trkpt lat="43.74778" lon="7.26418">
        <ele>321.418335</ele>
        <time>2011-10-22T11:09:26Z</time>
      </trkpt>
      <trkpt lat="43.74788" lon="7.26423">
        <ele>322.418362</ele>
        <time>2011-10-22T11:09:29Z</time>
      </trkpt>
      <trkpt lat="43.74799" lon="7.26428">
        <ele>324.418381</ele>
        <time>2011-10-22T11:09:32Z</time>
      </trkpt>
      <trkpt lat="43.7481" lon="7.26432">
        <ele>326.418411</ele>
        <time>2011-10-22T11:09:35Z</time>
      </trkpt>
      <trkpt lat="43.74813" lon="7.26433">
        <ele>327.418411</ele>
        <time>2011-10-22T11:09:36Z</time>
      </trkpt>
      <trkpt lat="43.74824" lon="7.26435">
        <ele>328.418434</ele>
        <time>2011-10-22T11:09:39Z</time>
      </trkpt>
      <trkpt lat="43.74836" lon="7.26439">
        <ele>330.418457</ele>
        <time>2011-10-22T11:09:43Z</time>
      </trkpt>
      <trkpt lat="43.74844" lon="7.26447">
        <ele>331.41848</ele>
        <time>2011-10-22T11:09:46Z</time>
      </trkpt>
      <trkpt lat="43.74852" lon="7.26457">
        <ele>332.418518</ele>
        <time>2011-10-22T11:09:49Z</time>
      </trkpt>
      <trkpt lat="43.74855" lon="7.26461">
        <ele>333.418533</ele>
        <time>2011-10-22T11:09:50Z</time>
      </trkpt>
      <trkpt lat="43.74862" lon="7.26475">
        <ele>335.418571</ele>
        <time>2011-10-22T11:09:53Z</time>
      </trkpt>
      <trkpt lat="43.74865" lon="7.2648">
        <ele>335.418587</ele>
        <time>2011-10-22T11:09:54Z</time>
      </trkpt>
      <trkpt lat="43.74871" lon="7.2649">
        <ele>336.418617</ele>
        <time>2011-10-22T11:09:56Z</time>
      </trkpt>
      <trkpt lat="43.74879" lon="7.26502">
        <ele>338.418652</ele>
        <time>2011-10-22T11:10:00Z</time>
      </trkpt>
      <trkpt lat="43.74887" lon="7.2651">
        <ele>339.418678</ele>
        <time>2011-10-22T11:10:03Z</time>
      </trkpt>
      <trkpt lat="43.74897" lon="7.26517">
        <ele>342.418709</ele>
        <time>2011-10-22T11:10:09Z</time>
      </trkpt>
      <trkpt lat="43.74909" lon="7.26522">
        <ele>345.418736</ele>
        <time>2011-10-22T11:10:13Z</time>
      </trkpt>
      <trkpt lat="43.74921" lon="7.26522">
        <ele>346.418755</ele>
        <time>2011-10-22T11:10:15Z</time>
      </trkpt>
      <trkpt lat="43.74929" lon="7.26517">
        <ele>348.418755</ele>
        <time>2011-10-22T11:10:17Z</time>
      </trkpt>
      <trkpt lat="43.74933" lon="7.26515">
        <ele>348.418755</ele>
        <time>2011-10-22T11:10:18Z</time>
      </trkpt>
      <trkpt lat="43.74945" lon="7.2652">
        <ele>352.418777</ele>
        <time>2011-10-22T11:10:24Z</time>
      </trkpt>
      <trkpt lat="43.74952" lon="7.2653">
        <ele>354.418808</ele>
        <time>2011-10-22T11:10:26Z</time>
      </trkpt>
      <trkpt lat="43.74954" lon="7.26533">
        <ele>354.418816</ele>
        <time>2011-10-22T11:10:27Z</time>
      </trkpt>
      <trkpt lat="43.74983" lon="7.26557">
        <ele>364.418907</ele>
        <time>2011-10-22T11:10:38Z</time>
      </trkpt>
      <trkpt lat="43.7499" lon="7.26576">
        <ele>365.418961</ele>
        <time>2011-10-22T11:10:40Z</time>
      </trkpt>
      <trkpt lat="43.74996" lon="7.26596">
        <ele>367.419014</ele>
        <time>2011-10-22T11:10:42Z</time>
      </trkpt>
      <trkpt lat="43.74999" lon="7.26606">
        <ele>368.419037</ele>
        <time>2011-10-22T11:10:43Z</time>
      </trkpt>
      <trkpt lat="43.75005" lon="7.26626">
        <ele>369.419086</ele>
        <time>2011-10-22T11:10:45Z</time>
      </trkpt>
      <trkpt lat="43.75011" lon="7.26645">
        <ele>368.419136</ele>
        <time>2011-10-22T11:10:47Z</time>
      </trkpt>
      <trkpt lat="43.75017" lon="7.26664">
        <ele>368.419182</ele>
        <time>2011-10-22T11:10:49Z</time>
      </trkpt>
      <trkpt lat="43.7502" lon="7.26677">
        <ele>368.419212</ele>
        <time>2011-10-22T11:10:51Z</time>
      </trkpt>
      <trkpt lat="43.75027" lon="7.26688">
        <ele>368.41925</ele>
        <time>2011-10-22T11:10:55Z</time>
      </trkpt>
      <trkpt lat="43.75102" lon="7.26613">
        <ele>386.419193</ele>
        <time>2011-10-22T11:11:44Z</time>
      </trkpt>
      <trkpt lat="43.75102" lon="7.26613">
        <ele>386.419193</ele>
        <time>2011-10-22T11:11:48Z</time>
      </trkpt>
      <trkpt lat="43.75142" lon="7.2658">
        <ele>397.419174</ele>
        <time>2011-10-22T11:12:05Z</time>
      </trkpt>
      <trkpt lat="43.75185" lon="7.26553">
        <ele>397.419174</ele>
        <time>2011-10-22T11:12:25Z</time>
      </trkpt>
      <trkpt lat="43.75226" lon="7.26522">
        <ele>402.419167</ele>
        <time>2011-10-22T11:12:49Z</time>
      </trkpt>
      <trkpt lat="43.75259" lon="7.26508">
        <ele>408.419186</ele>
        <time>2011-10-22T11:13:03Z</time>
      </trkpt>
      <trkpt lat="43.75288" lon="7.26501">
        <ele>413.419209</ele>
        <time>2011-10-22T11:13:14Z</time>
      </trkpt>
      <trkpt lat="43.75308" lon="7.26497">
        <ele>416.419228</ele>
        <time>2011-10-22T11:13:22Z</time>
      </trkpt>
      <trkpt lat="43.75319" lon="7.26495">
        <ele>417.419239</ele>
        <time>2011-10-22T11:13:27Z</time>
      </trkpt>
      <trkpt lat="43.75331" lon="7.26492">
        <ele>417.419247</ele>
        <time>2011-10-22T11:13:32Z</time>
      </trkpt>
      <trkpt lat="43.75341" lon="7.2649">
        <ele>419.419258</ele>
        <time>2011-10-22T11:13:38Z</time>
      </trkpt>
      <trkpt lat="43.75351" lon="7.26489">
        <ele>421.419266</ele>
        <time>2011-10-22T11:13:45Z</time>
      </trkpt>
      <trkpt lat="43.75372" lon="7.26482">
        <ele>427.419285</ele>
        <time>2011-10-22T11:14:02Z</time>
      </trkpt>
      <trkpt lat="43.75374" lon="7.26482">
        <ele>428.419289</ele>
        <time>2011-10-22T11:14:03Z</time>
      </trkpt>
      <trkpt lat="43.75384" lon="7.26483">
        <ele>430.4193</ele>
        <time>2011-10-22T11:14:08Z</time>
      </trkpt>
      <trkpt lat="43.75393" lon="7.26484">
        <ele>432.419319</ele>
        <time>2011-10-22T11:14:13Z</time>
      </trkpt>
      <trkpt lat="43.75396" lon="7.26484">
        <ele>432.419319</ele>
        <time>2011-10-22T11:14:14Z</time>
      </trkpt>
      <trkpt lat="43.75407" lon="7.26482">
        <ele>434.419334</ele>
        <time>2011-10-22T11:14:21Z</time>
      </trkpt>
      <trkpt lat="43.75417" lon="7.26479">
        <ele>435.419334</ele>
        <time>2011-10-22T11:14:27Z</time>
      </trkpt>
      <trkpt lat="43.75417" lon="7.26479">
        <ele>435.419334</ele>
        <time>2011-10-22T11:14:28Z</time>
      </trkpt>
      <trkpt lat="43.75426" lon="7.26472">
        <ele>437.419338</ele>
        <time>2011-10-22T11:14:34Z</time>
      </trkpt>
      <trkpt lat="43.75428" lon="7.26471">
        <ele>437.419334</ele>
        <time>2011-10-22T11:14:35Z</time>
      </trkpt>
      <trkpt lat="43.75442" lon="7.26463">
        <ele>440.419338</ele>
        <time>2011-10-22T11:14:44Z</time>
      </trkpt>
      <trkpt lat="43.7546" lon="7.2646">
        <ele>442.419353</ele>
        <time>2011-10-22T11:14:53Z</time>
      </trkpt>
      <trkpt lat="43.75471" lon="7.26458">
        <ele>442.419365</ele>
        <time>2011-10-22T11:14:57Z</time>
      </trkpt>
      <trkpt lat="43.7548" lon="7.26456">
        <ele>443.419373</ele>
        <time>2011-10-22T11:15:00Z</time>
      </trkpt>
      <trkpt lat="43.755" lon="7.26451">
        <ele>444.419392</ele>
        <time>2011-10-22T11:15:06Z</time>
      </trkpt>
      <trkpt lat="43.75501" lon="7.26451">
        <ele>444.419395</ele>
        <time>2011-10-22T11:15:11Z</time>
      </trkpt>
      <trkpt lat="43.7551" lon="7.26448">
        <ele>445.419403</ele>
        <time>2011-10-22T11:15:14Z</time>
      </trkpt>
      <trkpt lat="43.75523" lon="7.26446">
        <ele>446.419411</ele>
        <time>2011-10-22T11:15:20Z</time>
      </trkpt>
      <trkpt lat="43.75548" lon="7.26439">
        <ele>449.41943</ele>
        <time>2011-10-22T11:15:33Z</time>
      </trkpt>
      <trkpt lat="43.7555" lon="7.26439">
        <ele>449.419434</ele>
        <time>2011-10-22T11:15:34Z</time>
      </trkpt>
      <trkpt lat="43.75559" lon="7.26436">
        <ele>451.419441</ele>
        <time>2011-10-22T11:15:39Z</time>
      </trkpt>
      <trkpt lat="43.75576" lon="7.2643">
        <ele>455.419453</ele>
        <time>2011-10-22T11:15:48Z</time>
      </trkpt>
      <trkpt lat="43.75591" lon="7.26426">
        <ele>458.419464</ele>
        <time>2011-10-22T11:15:54Z</time>
      </trkpt>
      <trkpt lat="43.75605" lon="7.26422">
        <ele>460.419472</ele>
        <time>2011-10-22T11:15:59Z</time>
      </trkpt>
      <trkpt lat="43.75614" lon="7.26418">
        <ele>462.419479</ele>
        <time>2011-10-22T11:16:02Z</time>
      </trkpt>
      <trkpt lat="43.75624" lon="7.26415">
        <ele>463.419487</ele>
        <time>2011-10-22T11:16:05Z</time>
      </trkpt>
      <trkpt lat="43.75635" lon="7.26411">
        <ele>464.419487</ele>
        <time>2011-10-22T11:16:08Z</time>
      </trkpt>
      <trkpt lat="43.75645" lon="7.26406">
        <ele>466.419495</ele>
        <time>2011-10-22T11:16:11Z</time>
      </trkpt>
      <trkpt lat="43.75655" lon="7.26402">
        <ele>467.419502</ele>
        <time>2011-10-22T11:16:14Z</time>
      </trkpt>
      <trkpt lat="43.75665" lon="7.26397">
        <ele>469.419502</ele>
        <time>2011-10-22T11:16:18Z</time>
      </trkpt>
      <trkpt lat="43.75674" lon="7.26394">
        <ele>470.419506</ele>
        <time>2011-10-22T11:16:22Z</time>
      </trkpt>
      <trkpt lat="43.75688" lon="7.26388">
        <ele>472.419518</ele>
        <time>2011-10-22T11:16:29Z</time>
      </trkpt>
      <trkpt lat="43.75721" lon="7.26374">
        <ele>478.419533</ele>
        <time>2011-10-22T11:16:50Z</time>
      </trkpt>
      <trkpt lat="43.75746" lon="7.2636">
        <ele>480.419537</ele>
        <time>2011-10-22T11:17:08Z</time>
      </trkpt>
      <trkpt lat="43.75765" lon="7.26351">
        <ele>482.419544</ele>
        <time>2011-10-22T11:17:17Z</time>
      </trkpt>
      <trkpt lat="43.75777" lon="7.26347">
        <ele>484.419548</ele>
        <time>2011-10-22T11:17:21Z</time>
      </trkpt>
      <trkpt lat="43.75787" lon="7.26345">
        <ele>485.419559</ele>
        <time>2011-10-22T11:17:24Z</time>
      </trkpt>
      <trkpt lat="43.75798" lon="7.26343">
        <ele>487.419571</ele>
        <time>2011-10-22T11:17:27Z</time>
      </trkpt>
      <trkpt lat="43.75809" lon="7.26341">
        <ele>487.419582</ele>
        <time>2011-10-22T11:17:30Z</time>
      </trkpt>
      <trkpt lat="43.75822" lon="7.26337">
        <ele>488.41959</ele>
        <time>2011-10-22T11:17:34Z</time>
      </trkpt>
      <trkpt lat="43.75832" lon="7.26332">
        <ele>490.419594</ele>
        <time>2011-10-22T11:17:39Z</time>
      </trkpt>
      <trkpt lat="43.75851" lon="7.26325">
        <ele>493.419601</ele>
        <time>2011-10-22T11:17:49Z</time>
      </trkpt>
      <trkpt lat="43.75861" lon="7.26321">
        <ele>495.419609</ele>
        <time>2011-10-22T11:17:54Z</time>
      </trkpt>
      <trkpt lat="43.75871" lon="7.26316">
        <ele>498.419613</ele>
        <time>2011-10-22T11:17:59Z</time>
      </trkpt>
      <trkpt lat="43.75883" lon="7.2631">
        <ele>501.419617</ele>
        <time>2011-10-22T11:18:05Z</time>
      </trkpt>
      <trkpt lat="43.75893" lon="7.26304">
        <ele>502.419617</ele>
        <time>2011-10-22T11:18:10Z</time>
      </trkpt>
      <trkpt lat="43.7591" lon="7.26295">
        <ele>505.419624</ele>
        <time>2011-10-22T11:18:18Z</time>
      </trkpt>
      <trkpt lat="43.75921" lon="7.26292">
        <ele>506.419632</ele>
        <time>2011-10-22T11:18:22Z</time>
      </trkpt>
      <trkpt lat="43.75932" lon="7.26288">
        <ele>506.41964</ele>
        <time>2011-10-22T11:18:26Z</time>
      </trkpt>
      <trkpt lat="43.75942" lon="7.26284">
        <ele>507.41964</ele>
        <time>2011-10-22T11:18:30Z</time>
      </trkpt>
      <trkpt lat="43.75962" lon="7.26268">
        <ele>513.41964</ele>
        <time>2011-10-22T11:18:55Z</time>
      </trkpt>
      <trkpt lat="43.75973" lon="7.26263">
        <ele>517.419643</ele>
        <time>2011-10-22T11:19:03Z</time>
      </trkpt>
      <trkpt lat="43.75982" lon="7.26259">
        <ele>520.419647</ele>
        <time>2011-10-22T11:19:08Z</time>
      </trkpt>
      <trkpt lat="43.75992" lon="7.26254">
        <ele>522.419647</ele>
        <time>2011-10-22T11:19:13Z</time>
      </trkpt>
      <trkpt lat="43.76001" lon="7.26248">
        <ele>524.419647</ele>
        <time>2011-10-22T11:19:18Z</time>
      </trkpt>
      <trkpt lat="43.7601" lon="7.26241">
        <ele>527.419647</ele>
        <time>2011-10-22T11:19:23Z</time>
      </trkpt>
      <trkpt lat="43.7602" lon="7.26235">
        <ele>527.41964</ele>
        <time>2011-10-22T11:19:28Z</time>
      </trkpt>
      <trkpt lat="43.7603" lon="7.26228">
        <ele>529.419647</ele>
        <time>2011-10-22T11:19:34Z</time>
      </trkpt>
      <trkpt lat="43.76038" lon="7.26222">
        <ele>532.41964</ele>
        <time>2011-10-22T11:19:40Z</time>
      </trkpt>
      <trkpt lat="43.76047" lon="7.26217">
        <ele>534.419647</ele>
        <time>2011-10-22T11:19:47Z</time>
      </trkpt>
      <trkpt lat="43.76058" lon="7.26218">
        <ele>536.419662</ele>
        <time>2011-10-22T11:19:54Z</time>
      </trkpt>
      <trkpt lat="43.76076" lon="7.26226">
        <ele>535.419701</ele>
        <time>2011-10-22T11:20:11Z</time>
      </trkpt>
      <trkpt lat="43.76085" lon="7.26231">
        <ele>532.419724</ele>
        <time>2011-10-22T11:20:22Z</time>
      </trkpt>
      <trkpt lat="43.76095" lon="7.26235">
        <ele>531.419746</ele>
        <time>2011-10-22T11:20:30Z</time>
      </trkpt>
      <trkpt lat="43.76111" lon="7.26237">
        <ele>530.419777</ele>
        <time>2011-10-22T11:20:41Z</time>
      </trkpt>
      <trkpt lat="43.76121" lon="7.26239">
        <ele>530.419792</ele>
        <time>2011-10-22T11:20:46Z</time>
      </trkpt>
      <trkpt lat="43.76132" lon="7.26243">
        <ele>529.419815</ele>
        <time>2011-10-22T11:20:54Z</time>
      </trkpt>
      <trkpt lat="43.76144" lon="7.26249">
        <ele>529.419846</ele>
        <time>2011-10-22T11:21:03Z</time>
      </trkpt>
      <trkpt lat="43.76153" lon="7.26254">
        <ele>530.419868</ele>
        <time>2011-10-22T11:21:09Z</time>
      </trkpt>
      <trkpt lat="43.76172" lon="7.26267">
        <ele>531.419922</ele>
        <time>2011-10-22T11:21:20Z</time>
      </trkpt>
      <trkpt lat="43.76184" lon="7.26275">
        <ele>531.419952</ele>
        <time>2011-10-22T11:21:31Z</time>
      </trkpt>
      <trkpt lat="43.76193" lon="7.2629">
        <ele>531.419998</ele>
        <time>2011-10-22T11:21:42Z</time>
      </trkpt>
      <trkpt lat="43.76201" lon="7.263">
        <ele>531.420029</ele>
        <time>2011-10-22T11:21:47Z</time>
      </trkpt>
      <trkpt lat="43.7621" lon="7.26312">
        <ele>532.420067</ele>
        <time>2011-10-22T11:21:54Z</time>
      </trkpt>
      <trkpt lat="43.76219" lon="7.2632">
        <ele>532.420101</ele>
        <time>2011-10-22T11:21:59Z</time>
      </trkpt>
      <trkpt lat="43.76229" lon="7.26328">
        <ele>533.420128</ele>
        <time>2011-10-22T11:22:05Z</time>
      </trkpt>
      <trkpt lat="43.76237" lon="7.26336">
        <ele>533.420155</ele>
        <time>2011-10-22T11:22:13Z</time>
      </trkpt>
      <trkpt lat="43.76245" lon="7.26343">
        <ele>534.420181</ele>
        <time>2011-10-22T11:22:18Z</time>
      </trkpt>
      <trkpt lat="43.76256" lon="7.26351">
        <ele>534.420212</ele>
        <time>2011-10-22T11:22:22Z</time>
      </trkpt>
      <trkpt lat="43.76266" lon="7.2636">
        <ele>536.420246</ele>
        <time>2011-10-22T11:22:27Z</time>
      </trkpt>
      <trkpt lat="43.76277" lon="7.26374">
        <ele>539.420288</ele>
        <time>2011-10-22T11:22:32Z</time>
      </trkpt>
      <trkpt lat="43.76283" lon="7.26384">
        <ele>542.420322</ele>
        <time>2011-10-22T11:22:37Z</time>
      </trkpt>
      <trkpt lat="43.76289" lon="7.26396">
        <ele>544.420357</ele>
        <time>2011-10-22T11:22:44Z</time>
      </trkpt>
      <trkpt lat="43.76293" lon="7.26407">
        <ele>545.42038</ele>
        <time>2011-10-22T11:22:50Z</time>
      </trkpt>
      <trkpt lat="43.76297" lon="7.26419">
        <ele>545.420418</ele>
        <time>2011-10-22T11:22:58Z</time>
      </trkpt>
      <trkpt lat="43.76304" lon="7.2643">
        <ele>546.420448</ele>
        <time>2011-10-22T11:23:03Z</time>
      </trkpt>
      <trkpt lat="43.76313" lon="7.26434">
        <ele>547.420471</ele>
        <time>2011-10-22T11:23:14Z</time>
      </trkpt>
      <trkpt lat="43.76323" lon="7.26437">
        <ele>549.420486</ele>
        <time>2011-10-22T11:23:23Z</time>
      </trkpt>
      <trkpt lat="43.76332" lon="7.26439">
        <ele>550.420502</ele>
        <time>2011-10-22T11:23:30Z</time>
      </trkpt>
      <trkpt lat="43.76344" lon="7.2644">
        <ele>552.420525</ele>
        <time>2011-10-22T11:23:43Z</time>
      </trkpt>
      <trkpt lat="43.76361" lon="7.26468">
        <ele>554.420609</ele>
        <time>2011-10-22T11:24:02Z</time>
      </trkpt>
      <trkpt lat="43.76351" lon="7.26488">
        <ele>566.420635</ele>
        <time>2011-10-22T11:24:32Z</time>
      </trkpt>
      <trkpt lat="43.76343" lon="7.26495">
        <ele>569.420635</ele>
        <time>2011-10-22T11:24:41Z</time>
      </trkpt>
      <trkpt lat="43.76335" lon="7.26504">
        <ele>573.420647</ele>
        <time>2011-10-22T11:24:49Z</time>
      </trkpt>
      <trkpt lat="43.76328" lon="7.26513">
        <ele>578.420654</ele>
        <time>2011-10-22T11:24:56Z</time>
      </trkpt>
      <trkpt lat="43.7633" lon="7.26525">
        <ele>577.420685</ele>
        <time>2011-10-22T11:25:18Z</time>
      </trkpt>
      <trkpt lat="43.76344" lon="7.26525">
        <ele>567.4207</ele>
        <time>2011-10-22T11:25:38Z</time>
      </trkpt>
      <trkpt lat="43.76354" lon="7.26523">
        <ele>566.420712</ele>
        <time>2011-10-22T11:25:45Z</time>
      </trkpt>
      <trkpt lat="43.76366" lon="7.26516">
        <ele>565.420712</ele>
        <time>2011-10-22T11:25:53Z</time>
      </trkpt>
      <trkpt lat="43.76375" lon="7.2651">
        <ele>565.420712</ele>
        <time>2011-10-22T11:26:05Z</time>
      </trkpt>
      <trkpt lat="43.76387" lon="7.26497">
        <ele>567.4207</ele>
        <time>2011-10-22T11:26:17Z</time>
      </trkpt>
      <trkpt lat="43.76396" lon="7.26489">
        <ele>569.4207</ele>
        <time>2011-10-22T11:26:24Z</time>
      </trkpt>
      <trkpt lat="43.76407" lon="7.26482">
        <ele>570.4207</ele>
        <time>2011-10-22T11:26:32Z</time>
      </trkpt>
      <trkpt lat="43.76415" lon="7.26475">
        <ele>571.420692</ele>
        <time>2011-10-22T11:26:39Z</time>
      </trkpt>
      <trkpt lat="43.76424" lon="7.26466">
        <ele>572.420685</ele>
        <time>2011-10-22T11:26:45Z</time>
      </trkpt>
      <trkpt lat="43.76433" lon="7.26458">
        <ele>575.420681</ele>
        <time>2011-10-22T11:26:50Z</time>
      </trkpt>
      <trkpt lat="43.76451" lon="7.26448">
        <ele>581.420685</ele>
        <time>2011-10-22T11:27:00Z</time>
      </trkpt>
      <trkpt lat="43.76459" lon="7.26443">
        <ele>584.420685</ele>
        <time>2011-10-22T11:27:05Z</time>
      </trkpt>
      <trkpt lat="43.7647" lon="7.26425">
        <ele>588.420666</ele>
        <time>2011-10-22T11:27:21Z</time>
      </trkpt>
      <trkpt lat="43.76474" lon="7.26411">
        <ele>589.420639</ele>
        <time>2011-10-22T11:27:32Z</time>
      </trkpt>
      <trkpt lat="43.76476" lon="7.26399">
        <ele>589.420616</ele>
        <time>2011-10-22T11:27:42Z</time>
      </trkpt>
      <trkpt lat="43.76473" lon="7.26357">
        <ele>577.420525</ele>
        <time>2011-10-22T11:27:58Z</time>
      </trkpt>
      <trkpt lat="43.76471" lon="7.2633">
        <ele>573.420464</ele>
        <time>2011-10-22T11:28:01Z</time>
      </trkpt>
      <trkpt lat="43.7647" lon="7.26317">
        <ele>571.420437</ele>
        <time>2011-10-22T11:28:02Z</time>
      </trkpt>
      <trkpt lat="43.76467" lon="7.26276">
        <ele>567.420345</ele>
        <time>2011-10-22T11:28:08Z</time>
      </trkpt>
      <trkpt lat="43.76465" lon="7.26259">
        <ele>566.420307</ele>
        <time>2011-10-22T11:28:10Z</time>
      </trkpt>
      <trkpt lat="43.76464" lon="7.26246">
        <ele>564.420273</ele>
        <time>2011-10-22T11:28:11Z</time>
      </trkpt>
      <trkpt lat="43.76461" lon="7.26221">
        <ele>561.420219</ele>
        <time>2011-10-22T11:28:14Z</time>
      </trkpt>
      <trkpt lat="43.76459" lon="7.26202">
        <ele>558.420174</ele>
        <time>2011-10-22T11:28:16Z</time>
      </trkpt>
      <trkpt lat="43.76457" lon="7.26188">
        <ele>557.420143</ele>
        <time>2011-10-22T11:28:18Z</time>
      </trkpt>
      <trkpt lat="43.76454" lon="7.26173">
        <ele>556.420109</ele>
        <time>2011-10-22T11:28:20Z</time>
      </trkpt>
      <trkpt lat="43.76451" lon="7.26156">
        <ele>554.420067</ele>
        <time>2011-10-22T11:28:22Z</time>
      </trkpt>
      <trkpt lat="43.76444" lon="7.26132">
        <ele>547.420006</ele>
        <time>2011-10-22T11:28:25Z</time>
      </trkpt>
      <trkpt lat="43.76439" lon="7.26117">
        <ele>541.419971</ele>
        <time>2011-10-22T11:28:28Z</time>
      </trkpt>
      <trkpt lat="43.76435" lon="7.26099">
        <ele>524.419926</ele>
        <time>2011-10-22T11:28:36Z</time>
      </trkpt>
      <trkpt lat="43.76441" lon="7.26097">
        <ele>514.41993</ele>
        <time>2011-10-22T11:28:42Z</time>
      </trkpt>
      <trkpt lat="43.7645" lon="7.26099">
        <ele>511.419945</ele>
        <time>2011-10-22T11:28:50Z</time>
      </trkpt>
      <trkpt lat="43.7646" lon="7.26104">
        <ele>510.419971</ele>
        <time>2011-10-22T11:28:56Z</time>
      </trkpt>
      <trkpt lat="43.76469" lon="7.26111">
        <ele>510.419998</ele>
        <time>2011-10-22T11:29:01Z</time>
      </trkpt>
      <trkpt lat="43.76479" lon="7.26119">
        <ele>510.420025</ele>
        <time>2011-10-22T11:29:06Z</time>
      </trkpt>
      <trkpt lat="43.76488" lon="7.26125">
        <ele>510.420052</ele>
        <time>2011-10-22T11:29:11Z</time>
      </trkpt>
      <trkpt lat="43.76496" lon="7.2613">
        <ele>509.420074</ele>
        <time>2011-10-22T11:29:16Z</time>
      </trkpt>
      <trkpt lat="43.76506" lon="7.26135">
        <ele>510.420097</ele>
        <time>2011-10-22T11:29:21Z</time>
      </trkpt>
      <trkpt lat="43.76515" lon="7.26139">
        <ele>511.42012</ele>
        <time>2011-10-22T11:29:26Z</time>
      </trkpt>
      <trkpt lat="43.76525" lon="7.26143">
        <ele>512.420143</ele>
        <time>2011-10-22T11:29:32Z</time>
      </trkpt>
      <trkpt lat="43.76532" lon="7.26146">
        <ele>513.420158</ele>
        <time>2011-10-22T11:29:36Z</time>
      </trkpt>
      <trkpt lat="43.76541" lon="7.26151">
        <ele>514.420181</ele>
        <time>2011-10-22T11:29:41Z</time>
      </trkpt>
      <trkpt lat="43.76552" lon="7.26158">
        <ele>514.420212</ele>
        <time>2011-10-22T11:29:47Z</time>
      </trkpt>
      <trkpt lat="43.76555" lon="7.2616">
        <ele>515.420219</ele>
        <time>2011-10-22T11:29:49Z</time>
      </trkpt>
      <trkpt lat="43.76564" lon="7.26168">
        <ele>515.420246</ele>
        <time>2011-10-22T11:29:54Z</time>
      </trkpt>
      <trkpt lat="43.76572" lon="7.26174">
        <ele>515.420273</ele>
        <time>2011-10-22T11:29:59Z</time>
      </trkpt>
      <trkpt lat="43.76574" lon="7.26175">
        <ele>515.42028</ele>
        <time>2011-10-22T11:30:00Z</time>
      </trkpt>
      <trkpt lat="43.76583" lon="7.26181">
        <ele>515.4203</ele>
        <time>2011-10-22T11:30:06Z</time>
      </trkpt>
      <trkpt lat="43.76593" lon="7.2619">
        <ele>517.420338</ele>
        <time>2011-10-22T11:30:13Z</time>
      </trkpt>
      <trkpt lat="43.76603" lon="7.26201">
        <ele>518.420372</ele>
        <time>2011-10-22T11:30:20Z</time>
      </trkpt>
      <trkpt lat="43.76609" lon="7.26209">
        <ele>520.420395</ele>
        <time>2011-10-22T11:30:25Z</time>
      </trkpt>
      <trkpt lat="43.76614" lon="7.2622">
        <ele>521.420429</ele>
        <time>2011-10-22T11:30:30Z</time>
      </trkpt>
      <trkpt lat="43.76616" lon="7.26227">
        <ele>522.420444</ele>
        <time>2011-10-22T11:30:33Z</time>
      </trkpt>
      <trkpt lat="43.76617" lon="7.26242">
        <ele>519.420479</ele>
        <time>2011-10-22T11:30:39Z</time>
      </trkpt>
      <trkpt lat="43.76614" lon="7.26254">
        <ele>517.420498</ele>
        <time>2011-10-22T11:30:45Z</time>
      </trkpt>
      <trkpt lat="43.76608" lon="7.26264">
        <ele>517.420509</ele>
        <time>2011-10-22T11:30:51Z</time>
      </trkpt>
      <trkpt lat="43.76602" lon="7.26274">
        <ele>516.420525</ele>
        <time>2011-10-22T11:30:57Z</time>
      </trkpt>
      <trkpt lat="43.76596" lon="7.26283">
        <ele>517.420532</ele>
        <time>2011-10-22T11:31:02Z</time>
      </trkpt>
      <trkpt lat="43.76587" lon="7.26295">
        <ele>517.420547</ele>
        <time>2011-10-22T11:31:08Z</time>
      </trkpt>
      <trkpt lat="43.76585" lon="7.26297">
        <ele>517.420555</ele>
        <time>2011-10-22T11:31:09Z</time>
      </trkpt>
      <trkpt lat="43.76576" lon="7.26308">
        <ele>517.420563</ele>
        <time>2011-10-22T11:31:14Z</time>
      </trkpt>
      <trkpt lat="43.76574" lon="7.2631">
        <ele>517.420563</ele>
        <time>2011-10-22T11:31:15Z</time>
      </trkpt>
      <trkpt lat="43.76567" lon="7.26321">
        <ele>515.420574</ele>
        <time>2011-10-22T11:31:20Z</time>
      </trkpt>
      <trkpt lat="43.76564" lon="7.26326">
        <ele>514.420582</ele>
        <time>2011-10-22T11:31:22Z</time>
      </trkpt>
      <trkpt lat="43.76556" lon="7.26337">
        <ele>511.420597</ele>
        <time>2011-10-22T11:31:27Z</time>
      </trkpt>
      <trkpt lat="43.76551" lon="7.26343">
        <ele>510.420601</ele>
        <time>2011-10-22T11:31:30Z</time>
      </trkpt>
      <trkpt lat="43.76543" lon="7.26353">
        <ele>510.420612</ele>
        <time>2011-10-22T11:31:35Z</time>
      </trkpt>
      <trkpt lat="43.76536" lon="7.26365">
        <ele>510.420631</ele>
        <time>2011-10-22T11:31:41Z</time>
      </trkpt>
      <trkpt lat="43.7653" lon="7.26376">
        <ele>510.420639</ele>
        <time>2011-10-22T11:31:46Z</time>
      </trkpt>
      <trkpt lat="43.76529" lon="7.26378">
        <ele>510.420647</ele>
        <time>2011-10-22T11:31:47Z</time>
      </trkpt>
      <trkpt lat="43.76524" lon="7.26388">
        <ele>511.420662</ele>
        <time>2011-10-22T11:31:52Z</time>
      </trkpt>
      <trkpt lat="43.7652" lon="7.26394">
        <ele>512.420666</ele>
        <time>2011-10-22T11:31:55Z</time>
      </trkpt>
      <trkpt lat="43.76513" lon="7.26404">
        <ele>514.420677</ele>
        <time>2011-10-22T11:32:00Z</time>
      </trkpt>
      <trkpt lat="43.76507" lon="7.26413">
        <ele>515.420689</ele>
        <time>2011-10-22T11:32:05Z</time>
      </trkpt>
      <trkpt lat="43.76506" lon="7.26426">
        <ele>518.420719</ele>
        <time>2011-10-22T11:32:11Z</time>
      </trkpt>
      <trkpt lat="43.76506" lon="7.26426">
        <ele>518.420719</ele>
        <time>2011-10-22T11:32:12Z</time>
      </trkpt>
      <trkpt lat="43.76516" lon="7.26429">
        <ele>527.420738</ele>
        <time>2011-10-22T11:32:24Z</time>
      </trkpt>
      <trkpt lat="43.76524" lon="7.2642">
        <ele>532.420723</ele>
        <time>2011-10-22T11:32:30Z</time>
      </trkpt>
      <trkpt lat="43.76528" lon="7.26415">
        <ele>534.420715</ele>
        <time>2011-10-22T11:32:33Z</time>
      </trkpt>
      <trkpt lat="43.76535" lon="7.26405">
        <ele>536.420708</ele>
        <time>2011-10-22T11:32:38Z</time>
      </trkpt>
      <trkpt lat="43.76537" lon="7.26403">
        <ele>537.420712</ele>
        <time>2011-10-22T11:32:39Z</time>
      </trkpt>
      <trkpt lat="43.76543" lon="7.26395">
        <ele>542.4207</ele>
        <time>2011-10-22T11:32:44Z</time>
      </trkpt>
      <trkpt lat="43.76545" lon="7.26393">
        <ele>543.4207</ele>
        <time>2011-10-22T11:32:46Z</time>
      </trkpt>
      <trkpt lat="43.76553" lon="7.26384">
        <ele>545.420689</ele>
        <time>2011-10-22T11:32:51Z</time>
      </trkpt>
      <trkpt lat="43.76557" lon="7.26379">
        <ele>547.420689</ele>
        <time>2011-10-22T11:32:54Z</time>
      </trkpt>
      <trkpt lat="43.76567" lon="7.26368">
        <ele>549.420677</ele>
        <time>2011-10-22T11:33:02Z</time>
      </trkpt>
      <trkpt lat="43.76568" lon="7.26367">
        <ele>550.420673</ele>
        <time>2011-10-22T11:33:03Z</time>
      </trkpt>
      <trkpt lat="43.76584" lon="7.26356">
        <ele>552.420677</ele>
        <time>2011-10-22T11:33:13Z</time>
      </trkpt>
      <trkpt lat="43.76586" lon="7.26355">
        <ele>552.420673</ele>
        <time>2011-10-22T11:33:14Z</time>
      </trkpt>
      <trkpt lat="43.76596" lon="7.26349">
        <ele>555.420673</ele>
        <time>2011-10-22T11:33:19Z</time>
      </trkpt>
      <trkpt lat="43.76596" lon="7.26349">
        <ele>555.420673</ele>
        <time>2011-10-22T11:33:20Z</time>
      </trkpt>
      <trkpt lat="43.76604" lon="7.26342">
        <ele>555.42067</ele>
        <time>2011-10-22T11:33:26Z</time>
      </trkpt>
      <trkpt lat="43.76605" lon="7.2634">
        <ele>555.42067</ele>
        <time>2011-10-22T11:33:27Z</time>
      </trkpt>
      <trkpt lat="43.76614" lon="7.26333">
        <ele>556.420666</ele>
        <time>2011-10-22T11:33:33Z</time>
      </trkpt>
      <trkpt lat="43.76628" lon="7.26323">
        <ele>555.420662</ele>
        <time>2011-10-22T11:33:40Z</time>
      </trkpt>
      <trkpt lat="43.76636" lon="7.26317">
        <ele>555.420662</ele>
        <time>2011-10-22T11:33:45Z</time>
      </trkpt>
      <trkpt lat="43.76641" lon="7.26314">
        <ele>557.420662</ele>
        <time>2011-10-22T11:33:48Z</time>
      </trkpt>
      <trkpt lat="43.76649" lon="7.26306">
        <ele>560.420662</ele>
        <time>2011-10-22T11:33:54Z</time>
      </trkpt>
      <trkpt lat="43.76651" lon="7.26305">
        <ele>560.420658</ele>
        <time>2011-10-22T11:33:55Z</time>
      </trkpt>
      <trkpt lat="43.76659" lon="7.26297">
        <ele>560.420654</ele>
        <time>2011-10-22T11:34:00Z</time>
      </trkpt>
      <trkpt lat="43.7666" lon="7.26295">
        <ele>560.42065</ele>
        <time>2011-10-22T11:34:01Z</time>
      </trkpt>
      <trkpt lat="43.76669" lon="7.26288">
        <ele>562.420647</ele>
        <time>2011-10-22T11:34:06Z</time>
      </trkpt>
      <trkpt lat="43.76672" lon="7.26285">
        <ele>562.420639</ele>
        <time>2011-10-22T11:34:08Z</time>
      </trkpt>
      <trkpt lat="43.7668" lon="7.26275">
        <ele>562.420631</ele>
        <time>2011-10-22T11:34:14Z</time>
      </trkpt>
      <trkpt lat="43.7668" lon="7.26275">
        <ele>562.420631</ele>
        <time>2011-10-22T11:34:15Z</time>
      </trkpt>
      <trkpt lat="43.76687" lon="7.26267">
        <ele>563.420624</ele>
        <time>2011-10-22T11:34:20Z</time>
      </trkpt>
      <trkpt lat="43.76689" lon="7.26266">
        <ele>564.420624</ele>
        <time>2011-10-22T11:34:21Z</time>
      </trkpt>
      <trkpt lat="43.76696" lon="7.26258">
        <ele>564.420616</ele>
        <time>2011-10-22T11:34:26Z</time>
      </trkpt>
      <trkpt lat="43.767" lon="7.26253">
        <ele>563.420616</ele>
        <time>2011-10-22T11:34:31Z</time>
      </trkpt>
      <trkpt lat="43.76716" lon="7.26239">
        <ele>565.420609</ele>
        <time>2011-10-22T11:34:42Z</time>
      </trkpt>
      <trkpt lat="43.76724" lon="7.2623">
        <ele>568.420601</ele>
        <time>2011-10-22T11:34:49Z</time>
      </trkpt>
      <trkpt lat="43.76724" lon="7.2623">
        <ele>568.420601</ele>
        <time>2011-10-22T11:34:52Z</time>
      </trkpt>
      <trkpt lat="43.76729" lon="7.26218">
        <ele>569.420578</ele>
        <time>2011-10-22T11:34:55Z</time>
      </trkpt>
      <trkpt lat="43.76731" lon="7.26205">
        <ele>568.420559</ele>
        <time>2011-10-22T11:35:00Z</time>
      </trkpt>
      <trkpt lat="43.76731" lon="7.26205">
        <ele>568.420559</ele>
        <time>2011-10-22T11:35:01Z</time>
      </trkpt>
      <trkpt lat="43.76731" lon="7.2619">
        <ele>569.420525</ele>
        <time>2011-10-22T11:35:05Z</time>
      </trkpt>
      <trkpt lat="43.76729" lon="7.26165">
        <ele>570.420467</ele>
        <time>2011-10-22T11:35:08Z</time>
      </trkpt>
      <trkpt lat="43.76722" lon="7.26154">
        <ele>572.420437</ele>
        <time>2011-10-22T11:35:16Z</time>
      </trkpt>
      <trkpt lat="43.76718" lon="7.26141">
        <ele>575.420403</ele>
        <time>2011-10-22T11:35:22Z</time>
      </trkpt>
      <trkpt lat="43.76712" lon="7.26129">
        <ele>578.420368</ele>
        <time>2011-10-22T11:35:28Z</time>
      </trkpt>
      <trkpt lat="43.76711" lon="7.26127">
        <ele>579.420364</ele>
        <time>2011-10-22T11:35:29Z</time>
      </trkpt>
      <trkpt lat="43.76707" lon="7.26116">
        <ele>580.420334</ele>
        <time>2011-10-22T11:35:35Z</time>
      </trkpt>
      <trkpt lat="43.76707" lon="7.26116">
        <ele>580.420334</ele>
        <time>2011-10-22T11:35:39Z</time>
      </trkpt>
      <trkpt lat="43.76702" lon="7.26105">
        <ele>580.420303</ele>
        <time>2011-10-22T11:35:40Z</time>
      </trkpt>
      <trkpt lat="43.76696" lon="7.26093">
        <ele>580.420273</ele>
        <time>2011-10-22T11:35:46Z</time>
      </trkpt>
      <trkpt lat="43.7669" lon="7.26083">
        <ele>581.420238</ele>
        <time>2011-10-22T11:35:50Z</time>
      </trkpt>
      <trkpt lat="43.7669" lon="7.26083">
        <ele>581.420238</ele>
        <time>2011-10-22T11:35:51Z</time>
      </trkpt>
      <trkpt lat="43.7668" lon="7.26068">
        <ele>582.420197</ele>
        <time>2011-10-22T11:35:56Z</time>
      </trkpt>
      <trkpt lat="43.76678" lon="7.26065">
        <ele>582.420189</ele>
        <time>2011-10-22T11:35:57Z</time>
      </trkpt>
      <trkpt lat="43.76673" lon="7.26054">
        <ele>582.420155</ele>
        <time>2011-10-22T11:36:00Z</time>
      </trkpt>
      <trkpt lat="43.76665" lon="7.26039">
        <ele>583.420113</ele>
        <time>2011-10-22T11:36:03Z</time>
      </trkpt>
      <trkpt lat="43.76662" lon="7.26033">
        <ele>583.420097</ele>
        <time>2011-10-22T11:36:04Z</time>
      </trkpt>
      <trkpt lat="43.76655" lon="7.26022">
        <ele>586.420059</ele>
        <time>2011-10-22T11:36:07Z</time>
      </trkpt>
      <trkpt lat="43.76648" lon="7.26011">
        <ele>587.420033</ele>
        <time>2011-10-22T11:36:10Z</time>
      </trkpt>
      <trkpt lat="43.76644" lon="7.26005">
        <ele>587.420013</ele>
        <time>2011-10-22T11:36:13Z</time>
      </trkpt>
      <trkpt lat="43.76634" lon="7.26003">
        <ele>591.419998</ele>
        <time>2011-10-22T11:36:18Z</time>
      </trkpt>
      <trkpt lat="43.76643" lon="7.26007">
        <ele>584.420017</ele>
        <time>2011-10-22T11:36:31Z</time>
      </trkpt>
      <trkpt lat="43.76651" lon="7.26014">
        <ele>583.42004</ele>
        <time>2011-10-22T11:36:35Z</time>
      </trkpt>
      <trkpt lat="43.76659" lon="7.26022">
        <ele>582.420074</ele>
        <time>2011-10-22T11:36:39Z</time>
      </trkpt>
      <trkpt lat="43.76661" lon="7.26024">
        <ele>582.420078</ele>
        <time>2011-10-22T11:36:40Z</time>
      </trkpt>
      <trkpt lat="43.76668" lon="7.26032">
        <ele>582.420105</ele>
        <time>2011-10-22T11:36:44Z</time>
      </trkpt>
      <trkpt lat="43.76671" lon="7.26036">
        <ele>581.420116</ele>
        <time>2011-10-22T11:36:46Z</time>
      </trkpt>
      <trkpt lat="43.76679" lon="7.26044">
        <ele>580.420143</ele>
        <time>2011-10-22T11:36:51Z</time>
      </trkpt>
      <trkpt lat="43.76686" lon="7.26052">
        <ele>579.420174</ele>
        <time>2011-10-22T11:36:56Z</time>
      </trkpt>
      <trkpt lat="43.76695" lon="7.2606">
        <ele>579.420197</ele>
        <time>2011-10-22T11:37:01Z</time>
      </trkpt>
      <trkpt lat="43.76703" lon="7.26067">
        <ele>578.420223</ele>
        <time>2011-10-22T11:37:06Z</time>
      </trkpt>
      <trkpt lat="43.76715" lon="7.26075">
        <ele>580.420261</ele>
        <time>2011-10-22T11:37:13Z</time>
      </trkpt>
      <trkpt lat="43.76716" lon="7.26077">
        <ele>580.420261</ele>
        <time>2011-10-22T11:37:14Z</time>
      </trkpt>
      <trkpt lat="43.76724" lon="7.26084">
        <ele>580.420288</ele>
        <time>2011-10-22T11:37:19Z</time>
      </trkpt>
      <trkpt lat="43.76727" lon="7.26087">
        <ele>580.4203</ele>
        <time>2011-10-22T11:37:21Z</time>
      </trkpt>
      <trkpt lat="43.76734" lon="7.26094">
        <ele>580.420326</ele>
        <time>2011-10-22T11:37:26Z</time>
      </trkpt>
      <trkpt lat="43.76743" lon="7.26103">
        <ele>581.420357</ele>
        <time>2011-10-22T11:37:32Z</time>
      </trkpt>
      <trkpt lat="43.76751" lon="7.26111">
        <ele>581.42038</ele>
        <time>2011-10-22T11:37:37Z</time>
      </trkpt>
      <trkpt lat="43.76759" lon="7.26119">
        <ele>581.42041</ele>
        <time>2011-10-22T11:37:43Z</time>
      </trkpt>
      <trkpt lat="43.76766" lon="7.26126">
        <ele>582.420433</ele>
        <time>2011-10-22T11:37:49Z</time>
      </trkpt>
      <trkpt lat="43.76768" lon="7.26128">
        <ele>583.420441</ele>
        <time>2011-10-22T11:37:50Z</time>
      </trkpt>
      <trkpt lat="43.76775" lon="7.26135">
        <ele>584.420471</ele>
        <time>2011-10-22T11:37:56Z</time>
      </trkpt>
      <trkpt lat="43.76779" lon="7.26138">
        <ele>584.420479</ele>
        <time>2011-10-22T11:37:59Z</time>
      </trkpt>
      <trkpt lat="43.76789" lon="7.26147">
        <ele>586.420513</ele>
        <time>2011-10-22T11:38:08Z</time>
      </trkpt>
      <trkpt lat="43.76803" lon="7.2616">
        <ele>589.420555</ele>
        <time>2011-10-22T11:38:21Z</time>
      </trkpt>
      <trkpt lat="43.76812" lon="7.26167">
        <ele>590.420586</ele>
        <time>2011-10-22T11:38:28Z</time>
      </trkpt>
      <trkpt lat="43.76821" lon="7.26176">
        <ele>592.42062</ele>
        <time>2011-10-22T11:38:36Z</time>
      </trkpt>
      <trkpt lat="43.76826" lon="7.26184">
        <ele>592.420639</ele>
        <time>2011-10-22T11:38:41Z</time>
      </trkpt>
      <trkpt lat="43.76831" lon="7.26197">
        <ele>592.420673</ele>
        <time>2011-10-22T11:38:49Z</time>
      </trkpt>
      <trkpt lat="43.76829" lon="7.2621">
        <ele>593.4207</ele>
        <time>2011-10-22T11:38:57Z</time>
      </trkpt>
      <trkpt lat="43.76824" lon="7.26221">
        <ele>596.420715</ele>
        <time>2011-10-22T11:39:03Z</time>
      </trkpt>
      <trkpt lat="43.76818" lon="7.26233">
        <ele>596.420731</ele>
        <time>2011-10-22T11:39:10Z</time>
      </trkpt>
      <trkpt lat="43.76813" lon="7.26244">
        <ele>596.42075</ele>
        <time>2011-10-22T11:39:17Z</time>
      </trkpt>
      <trkpt lat="43.76813" lon="7.26244">
        <ele>596.42075</ele>
        <time>2011-10-22T11:39:20Z</time>
      </trkpt>
      <trkpt lat="43.76807" lon="7.2626">
        <ele>602.420776</ele>
        <time>2011-10-22T11:39:26Z</time>
      </trkpt>
      <trkpt lat="43.76801" lon="7.26272">
        <ele>603.420792</ele>
        <time>2011-10-22T11:39:33Z</time>
      </trkpt>
      <trkpt lat="43.76796" lon="7.26283">
        <ele>603.420807</ele>
        <time>2011-10-22T11:39:39Z</time>
      </trkpt>
      <trkpt lat="43.76789" lon="7.26307">
        <ele>606.420853</ele>
        <time>2011-10-22T11:39:52Z</time>
      </trkpt>
      <trkpt lat="43.76784" lon="7.26319">
        <ele>603.420868</ele>
        <time>2011-10-22T11:39:59Z</time>
      </trkpt>
      <trkpt lat="43.76783" lon="7.26323">
        <ele>602.420876</ele>
        <time>2011-10-22T11:40:01Z</time>
      </trkpt>
      <trkpt lat="43.76779" lon="7.26337">
        <ele>603.420902</ele>
        <time>2011-10-22T11:40:08Z</time>
      </trkpt>
      <trkpt lat="43.76776" lon="7.26349">
        <ele>603.420921</ele>
        <time>2011-10-22T11:40:13Z</time>
      </trkpt>
      <trkpt lat="43.76771" lon="7.2636">
        <ele>603.420937</ele>
        <time>2011-10-22T11:40:18Z</time>
      </trkpt>
      <trkpt lat="43.76765" lon="7.2637">
        <ele>604.420952</ele>
        <time>2011-10-22T11:40:24Z</time>
      </trkpt>
      <trkpt lat="43.76758" lon="7.26377">
        <ele>605.420959</ele>
        <time>2011-10-22T11:40:30Z</time>
      </trkpt>
      <trkpt lat="43.7675" lon="7.26385">
        <ele>604.420959</ele>
        <time>2011-10-22T11:40:37Z</time>
      </trkpt>
      <trkpt lat="43.76742" lon="7.26396">
        <ele>606.420975</ele>
        <time>2011-10-22T11:40:44Z</time>
      </trkpt>
      <trkpt lat="43.76737" lon="7.26406">
        <ele>606.42099</ele>
        <time>2011-10-22T11:40:50Z</time>
      </trkpt>
      <trkpt lat="43.76736" lon="7.26408">
        <ele>607.420994</ele>
        <time>2011-10-22T11:40:51Z</time>
      </trkpt>
      <trkpt lat="43.76731" lon="7.26419">
        <ele>607.421005</ele>
        <time>2011-10-22T11:40:57Z</time>
      </trkpt>
      <trkpt lat="43.76725" lon="7.26429">
        <ele>607.421021</ele>
        <time>2011-10-22T11:41:03Z</time>
      </trkpt>
      <trkpt lat="43.76724" lon="7.26431">
        <ele>607.421021</ele>
        <time>2011-10-22T11:41:04Z</time>
      </trkpt>
      <trkpt lat="43.76718" lon="7.26441">
        <ele>610.421036</ele>
        <time>2011-10-22T11:41:11Z</time>
      </trkpt>
      <trkpt lat="43.76717" lon="7.26442">
        <ele>610.421036</ele>
        <time>2011-10-22T11:41:12Z</time>
      </trkpt>
      <trkpt lat="43.76725" lon="7.26451">
        <ele>613.421066</ele>
        <time>2011-10-22T11:41:26Z</time>
      </trkpt>
      <trkpt lat="43.76733" lon="7.26443">
        <ele>615.421066</ele>
        <time>2011-10-22T11:41:33Z</time>
      </trkpt>
      <trkpt lat="43.76735" lon="7.2644">
        <ele>616.421059</ele>
        <time>2011-10-22T11:41:35Z</time>
      </trkpt>
      <trkpt lat="43.76743" lon="7.2643">
        <ele>619.421051</ele>
        <time>2011-10-22T11:41:41Z</time>
      </trkpt>
      <trkpt lat="43.7675" lon="7.2642">
        <ele>620.421036</ele>
        <time>2011-10-22T11:41:46Z</time>
      </trkpt>
      <trkpt lat="43.76759" lon="7.2641">
        <ele>621.421028</ele>
        <time>2011-10-22T11:41:52Z</time>
      </trkpt>
      <trkpt lat="43.76762" lon="7.26407">
        <ele>622.421028</ele>
        <time>2011-10-22T11:41:54Z</time>
      </trkpt>
      <trkpt lat="43.7677" lon="7.26399">
        <ele>624.421021</ele>
        <time>2011-10-22T11:41:59Z</time>
      </trkpt>
      <trkpt lat="43.76778" lon="7.26392">
        <ele>625.421013</ele>
        <time>2011-10-22T11:42:04Z</time>
      </trkpt>
      <trkpt lat="43.76787" lon="7.26384">
        <ele>626.421013</ele>
        <time>2011-10-22T11:42:09Z</time>
      </trkpt>
      <trkpt lat="43.7679" lon="7.26381">
        <ele>626.421013</ele>
        <time>2011-10-22T11:42:11Z</time>
      </trkpt>
      <trkpt lat="43.76798" lon="7.26373">
        <ele>628.421005</ele>
        <time>2011-10-22T11:42:16Z</time>
      </trkpt>
      <trkpt lat="43.7681" lon="7.26359">
        <ele>630.42099</ele>
        <time>2011-10-22T11:42:24Z</time>
      </trkpt>
      <trkpt lat="43.76817" lon="7.26349">
        <ele>632.420979</ele>
        <time>2011-10-22T11:42:29Z</time>
      </trkpt>
      <trkpt lat="43.76824" lon="7.26339">
        <ele>634.420967</ele>
        <time>2011-10-22T11:42:34Z</time>
      </trkpt>
      <trkpt lat="43.76831" lon="7.26329">
        <ele>634.420952</ele>
        <time>2011-10-22T11:42:39Z</time>
      </trkpt>
      <trkpt lat="43.76838" lon="7.2632">
        <ele>636.420944</ele>
        <time>2011-10-22T11:42:43Z</time>
      </trkpt>
      <trkpt lat="43.76845" lon="7.26311">
        <ele>637.420937</ele>
        <time>2011-10-22T11:42:48Z</time>
      </trkpt>
      <trkpt lat="43.76846" lon="7.2631">
        <ele>637.420933</ele>
        <time>2011-10-22T11:42:49Z</time>
      </trkpt>
      <trkpt lat="43.76853" lon="7.263">
        <ele>639.420921</ele>
        <time>2011-10-22T11:42:55Z</time>
      </trkpt>
      <trkpt lat="43.76859" lon="7.26291">
        <ele>641.42091</ele>
        <time>2011-10-22T11:43:01Z</time>
      </trkpt>
      <trkpt lat="43.76866" lon="7.26283">
        <ele>643.420906</ele>
        <time>2011-10-22T11:43:06Z</time>
      </trkpt>
      <trkpt lat="43.76874" lon="7.26276">
        <ele>644.420898</ele>
        <time>2011-10-22T11:43:12Z</time>
      </trkpt>
      <trkpt lat="43.76877" lon="7.26272">
        <ele>645.420895</ele>
        <time>2011-10-22T11:43:15Z</time>
      </trkpt>
      <trkpt lat="43.76884" lon="7.26261">
        <ele>645.420883</ele>
        <time>2011-10-22T11:43:21Z</time>
      </trkpt>
      <trkpt lat="43.76885" lon="7.2626">
        <ele>646.420883</ele>
        <time>2011-10-22T11:43:22Z</time>
      </trkpt>
      <trkpt lat="43.76894" lon="7.26245">
        <ele>649.420864</ele>
        <time>2011-10-22T11:43:30Z</time>
      </trkpt>
      <trkpt lat="43.769" lon="7.26236">
        <ele>651.420853</ele>
        <time>2011-10-22T11:43:36Z</time>
      </trkpt>
      <trkpt lat="43.76901" lon="7.26233">
        <ele>652.420845</ele>
        <time>2011-10-22T11:43:38Z</time>
      </trkpt>
      <trkpt lat="43.76908" lon="7.26222">
        <ele>654.420834</ele>
        <time>2011-10-22T11:43:47Z</time>
      </trkpt>
      <trkpt lat="43.76916" lon="7.26208">
        <ele>657.420815</ele>
        <time>2011-10-22T11:43:58Z</time>
      </trkpt>
      <trkpt lat="43.76917" lon="7.26206">
        <ele>657.420815</ele>
        <time>2011-10-22T11:43:59Z</time>
      </trkpt>
      <trkpt lat="43.76924" lon="7.26191">
        <ele>659.420784</ele>
        <time>2011-10-22T11:44:06Z</time>
      </trkpt>
      <trkpt lat="43.76927" lon="7.26177">
        <ele>661.420761</ele>
        <time>2011-10-22T11:44:14Z</time>
      </trkpt>
      <trkpt lat="43.76932" lon="7.26166">
        <ele>665.420746</ele>
        <time>2011-10-22T11:44:21Z</time>
      </trkpt>
      <trkpt lat="43.76941" lon="7.26166">
        <ele>664.420761</ele>
        <time>2011-10-22T11:44:30Z</time>
      </trkpt>
      <trkpt lat="43.76942" lon="7.26167">
        <ele>664.420765</ele>
        <time>2011-10-22T11:44:31Z</time>
      </trkpt>
      <trkpt lat="43.76945" lon="7.26179">
        <ele>667.420792</ele>
        <time>2011-10-22T11:44:39Z</time>
      </trkpt>
      <trkpt lat="43.76944" lon="7.26186">
        <ele>667.420807</ele>
        <time>2011-10-22T11:44:42Z</time>
      </trkpt>
      <trkpt lat="43.76939" lon="7.26199">
        <ele>664.420826</ele>
        <time>2011-10-22T11:44:48Z</time>
      </trkpt>
      <trkpt lat="43.76935" lon="7.26211">
        <ele>662.420849</ele>
        <time>2011-10-22T11:44:53Z</time>
      </trkpt>
      <trkpt lat="43.76932" lon="7.26224">
        <ele>661.420876</ele>
        <time>2011-10-22T11:44:58Z</time>
      </trkpt>
      <trkpt lat="43.76928" lon="7.26236">
        <ele>661.420891</ele>
        <time>2011-10-22T11:45:03Z</time>
      </trkpt>
      <trkpt lat="43.76922" lon="7.26248">
        <ele>659.420906</ele>
        <time>2011-10-22T11:45:09Z</time>
      </trkpt>
      <trkpt lat="43.76918" lon="7.26259">
        <ele>659.420925</ele>
        <time>2011-10-22T11:45:14Z</time>
      </trkpt>
      <trkpt lat="43.76914" lon="7.26273">
        <ele>657.420948</ele>
        <time>2011-10-22T11:45:20Z</time>
      </trkpt>
      <trkpt lat="43.7691" lon="7.26285">
        <ele>655.420971</ele>
        <time>2011-10-22T11:45:25Z</time>
      </trkpt>
      <trkpt lat="43.76908" lon="7.26299">
        <ele>656.420994</ele>
        <time>2011-10-22T11:45:30Z</time>
      </trkpt>
      <trkpt lat="43.76905" lon="7.26314">
        <ele>656.421024</ele>
        <time>2011-10-22T11:45:35Z</time>
      </trkpt>
      <trkpt lat="43.76902" lon="7.26328">
        <ele>658.421051</ele>
        <time>2011-10-22T11:45:40Z</time>
      </trkpt>
      <trkpt lat="43.769" lon="7.26334">
        <ele>658.421059</ele>
        <time>2011-10-22T11:45:42Z</time>
      </trkpt>
      <trkpt lat="43.76896" lon="7.26348">
        <ele>659.421082</ele>
        <time>2011-10-22T11:45:47Z</time>
      </trkpt>
      <trkpt lat="43.76891" lon="7.26361">
        <ele>660.421104</ele>
        <time>2011-10-22T11:45:52Z</time>
      </trkpt>
      <trkpt lat="43.76886" lon="7.26374">
        <ele>661.421127</ele>
        <time>2011-10-22T11:45:57Z</time>
      </trkpt>
      <trkpt lat="43.76882" lon="7.26387">
        <ele>661.42115</ele>
        <time>2011-10-22T11:46:02Z</time>
      </trkpt>
      <trkpt lat="43.76879" lon="7.264">
        <ele>661.421173</ele>
        <time>2011-10-22T11:46:07Z</time>
      </trkpt>
      <trkpt lat="43.76874" lon="7.26413">
        <ele>661.421192</ele>
        <time>2011-10-22T11:46:12Z</time>
      </trkpt>
      <trkpt lat="43.7687" lon="7.26426">
        <ele>661.421211</ele>
        <time>2011-10-22T11:46:17Z</time>
      </trkpt>
      <trkpt lat="43.76865" lon="7.26437">
        <ele>662.421227</ele>
        <time>2011-10-22T11:46:22Z</time>
      </trkpt>
      <trkpt lat="43.7686" lon="7.26448">
        <ele>663.421246</ele>
        <time>2011-10-22T11:46:27Z</time>
      </trkpt>
      <trkpt lat="43.76856" lon="7.2646">
        <ele>664.421265</ele>
        <time>2011-10-22T11:46:32Z</time>
      </trkpt>
      <trkpt lat="43.76851" lon="7.26471">
        <ele>664.421288</ele>
        <time>2011-10-22T11:46:37Z</time>
      </trkpt>
      <trkpt lat="43.76848" lon="7.26484">
        <ele>665.421307</ele>
        <time>2011-10-22T11:46:42Z</time>
      </trkpt>
      <trkpt lat="43.76844" lon="7.26496">
        <ele>666.421326</ele>
        <time>2011-10-22T11:46:47Z</time>
      </trkpt>
      <trkpt lat="43.7684" lon="7.26509">
        <ele>668.421345</ele>
        <time>2011-10-22T11:46:52Z</time>
      </trkpt>
      <trkpt lat="43.76836" lon="7.26522">
        <ele>668.421371</ele>
        <time>2011-10-22T11:46:57Z</time>
      </trkpt>
      <trkpt lat="43.76834" lon="7.26535">
        <ele>670.421394</ele>
        <time>2011-10-22T11:47:02Z</time>
      </trkpt>
      <trkpt lat="43.76833" lon="7.26549">
        <ele>672.421425</ele>
        <time>2011-10-22T11:47:07Z</time>
      </trkpt>
      <trkpt lat="43.76831" lon="7.26561">
        <ele>673.421444</ele>
        <time>2011-10-22T11:47:12Z</time>
      </trkpt>
      <trkpt lat="43.76832" lon="7.26574">
        <ele>674.421478</ele>
        <time>2011-10-22T11:47:18Z</time>
      </trkpt>
      <trkpt lat="43.76842" lon="7.26576">
        <ele>676.421494</ele>
        <time>2011-10-22T11:47:26Z</time>
      </trkpt>
      <trkpt lat="43.76849" lon="7.26567">
        <ele>679.421486</ele>
        <time>2011-10-22T11:47:36Z</time>
      </trkpt>
      <trkpt lat="43.76855" lon="7.26556">
        <ele>683.421471</ele>
        <time>2011-10-22T11:47:43Z</time>
      </trkpt>
      <trkpt lat="43.7686" lon="7.26546">
        <ele>688.421452</ele>
        <time>2011-10-22T11:47:52Z</time>
      </trkpt>
      <trkpt lat="43.7686" lon="7.26546">
        <ele>688.421452</ele>
        <time>2011-10-22T11:47:53Z</time>
      </trkpt>
      <trkpt lat="43.76863" lon="7.26534">
        <ele>691.421432</ele>
        <time>2011-10-22T11:47:58Z</time>
      </trkpt>
      <trkpt lat="43.76863" lon="7.26531">
        <ele>691.421425</ele>
        <time>2011-10-22T11:47:59Z</time>
      </trkpt>
      <trkpt lat="43.76867" lon="7.26515">
        <ele>694.421398</ele>
        <time>2011-10-22T11:48:07Z</time>
      </trkpt>
      <trkpt lat="43.76871" lon="7.26503">
        <ele>696.421379</ele>
        <time>2011-10-22T11:48:13Z</time>
      </trkpt>
      <trkpt lat="43.76878" lon="7.26487">
        <ele>701.421349</ele>
        <time>2011-10-22T11:48:21Z</time>
      </trkpt>
      <trkpt lat="43.76879" lon="7.26485">
        <ele>702.421349</ele>
        <time>2011-10-22T11:48:22Z</time>
      </trkpt>
      <trkpt lat="43.76884" lon="7.26474">
        <ele>705.421333</ele>
        <time>2011-10-22T11:48:27Z</time>
      </trkpt>
      <trkpt lat="43.76885" lon="7.26471">
        <ele>705.421329</ele>
        <time>2011-10-22T11:48:29Z</time>
      </trkpt>
      <trkpt lat="43.76892" lon="7.2646">
        <ele>708.421318</ele>
        <time>2011-10-22T11:48:33Z</time>
      </trkpt>
      <trkpt lat="43.76893" lon="7.26458">
        <ele>708.42131</ele>
        <time>2011-10-22T11:48:34Z</time>
      </trkpt>
      <trkpt lat="43.76902" lon="7.26444">
        <ele>711.421295</ele>
        <time>2011-10-22T11:48:40Z</time>
      </trkpt>
      <trkpt lat="43.76911" lon="7.26429">
        <ele>713.421272</ele>
        <time>2011-10-22T11:48:46Z</time>
      </trkpt>
      <trkpt lat="43.76917" lon="7.26418">
        <ele>714.421261</ele>
        <time>2011-10-22T11:48:50Z</time>
      </trkpt>
      <trkpt lat="43.76921" lon="7.26413">
        <ele>715.421257</ele>
        <time>2011-10-22T11:48:52Z</time>
      </trkpt>
      <trkpt lat="43.76928" lon="7.26402">
        <ele>717.421242</ele>
        <time>2011-10-22T11:48:57Z</time>
      </trkpt>
      <trkpt lat="43.76938" lon="7.26388">
        <ele>717.421227</ele>
        <time>2011-10-22T11:49:05Z</time>
      </trkpt>
      <trkpt lat="43.76944" lon="7.26378">
        <ele>720.421211</ele>
        <time>2011-10-22T11:49:12Z</time>
      </trkpt>
      <trkpt lat="43.76944" lon="7.26378">
        <ele>720.421211</ele>
        <time>2011-10-22T11:49:13Z</time>
      </trkpt>
      <trkpt lat="43.7695" lon="7.26368">
        <ele>723.4212</ele>
        <time>2011-10-22T11:49:18Z</time>
      </trkpt>
      <trkpt lat="43.76961" lon="7.26353">
        <ele>727.421181</ele>
        <time>2011-10-22T11:49:27Z</time>
      </trkpt>
      <trkpt lat="43.76965" lon="7.26349">
        <ele>729.421181</ele>
        <time>2011-10-22T11:49:30Z</time>
      </trkpt>
      <trkpt lat="43.76976" lon="7.26335">
        <ele>731.421165</ele>
        <time>2011-10-22T11:49:40Z</time>
      </trkpt>
      <trkpt lat="43.76982" lon="7.26328">
        <ele>733.421158</ele>
        <time>2011-10-22T11:49:46Z</time>
      </trkpt>
      <trkpt lat="43.76989" lon="7.26318">
        <ele>737.42115</ele>
        <time>2011-10-22T11:49:53Z</time>
      </trkpt>
      <trkpt lat="43.76995" lon="7.26312">
        <ele>737.421143</ele>
        <time>2011-10-22T11:49:59Z</time>
      </trkpt>
      <trkpt lat="43.77003" lon="7.26304">
        <ele>738.421139</ele>
        <time>2011-10-22T11:50:02Z</time>
      </trkpt>
      <trkpt lat="43.77011" lon="7.26296">
        <ele>738.421127</ele>
        <time>2011-10-22T11:50:07Z</time>
      </trkpt>
      <trkpt lat="43.77013" lon="7.26294">
        <ele>738.421127</ele>
        <time>2011-10-22T11:50:08Z</time>
      </trkpt>
      <trkpt lat="43.77022" lon="7.26285">
        <ele>739.42112</ele>
        <time>2011-10-22T11:50:14Z</time>
      </trkpt>
      <trkpt lat="43.77024" lon="7.26283">
        <ele>739.421124</ele>
        <time>2011-10-22T11:50:15Z</time>
      </trkpt>
      <trkpt lat="43.77031" lon="7.26274">
        <ele>739.421112</ele>
        <time>2011-10-22T11:50:20Z</time>
      </trkpt>
      <trkpt lat="43.77033" lon="7.26273">
        <ele>739.421112</ele>
        <time>2011-10-22T11:50:23Z</time>
      </trkpt>
      <trkpt lat="43.77043" lon="7.26264">
        <ele>739.421104</ele>
        <time>2011-10-22T11:50:27Z</time>
      </trkpt>
      <trkpt lat="43.77044" lon="7.26262">
        <ele>739.421104</ele>
        <time>2011-10-22T11:50:28Z</time>
      </trkpt>
      <trkpt lat="43.77058" lon="7.26249">
        <ele>741.421097</ele>
        <time>2011-10-22T11:50:37Z</time>
      </trkpt>
      <trkpt lat="43.77065" lon="7.26241">
        <ele>742.421089</ele>
        <time>2011-10-22T11:50:42Z</time>
      </trkpt>
      <trkpt lat="43.77067" lon="7.2624">
        <ele>742.421089</ele>
        <time>2011-10-22T11:50:43Z</time>
      </trkpt>
      <trkpt lat="43.77075" lon="7.26232">
        <ele>743.421082</ele>
        <time>2011-10-22T11:50:49Z</time>
      </trkpt>
      <trkpt lat="43.77081" lon="7.26223">
        <ele>743.421074</ele>
        <time>2011-10-22T11:50:56Z</time>
      </trkpt>
      <trkpt lat="43.77082" lon="7.26222">
        <ele>743.42107</ele>
        <time>2011-10-22T11:50:57Z</time>
      </trkpt>
      <trkpt lat="43.77089" lon="7.26213">
        <ele>745.421062</ele>
        <time>2011-10-22T11:51:03Z</time>
      </trkpt>
      <trkpt lat="43.77096" lon="7.26203">
        <ele>745.421055</ele>
        <time>2011-10-22T11:51:09Z</time>
      </trkpt>
      <trkpt lat="43.771" lon="7.26199">
        <ele>747.421043</ele>
        <time>2011-10-22T11:51:12Z</time>
      </trkpt>
      <trkpt lat="43.77111" lon="7.26184">
        <ele>746.421032</ele>
        <time>2011-10-22T11:51:20Z</time>
      </trkpt>
      <trkpt lat="43.77112" lon="7.26182">
        <ele>746.421032</ele>
        <time>2011-10-22T11:51:21Z</time>
      </trkpt>
      <trkpt lat="43.77119" lon="7.26172">
        <ele>747.421017</ele>
        <time>2011-10-22T11:51:26Z</time>
      </trkpt>
      <trkpt lat="43.77121" lon="7.2617">
        <ele>747.421013</ele>
        <time>2011-10-22T11:51:29Z</time>
      </trkpt>
      <trkpt lat="43.77128" lon="7.26161">
        <ele>747.421005</ele>
        <time>2011-10-22T11:51:32Z</time>
      </trkpt>
      <trkpt lat="43.77129" lon="7.26159">
        <ele>747.420998</ele>
        <time>2011-10-22T11:51:33Z</time>
      </trkpt>
      <trkpt lat="43.77135" lon="7.26148">
        <ele>747.42099</ele>
        <time>2011-10-22T11:51:39Z</time>
      </trkpt>
      <trkpt lat="43.77139" lon="7.26143">
        <ele>747.420982</ele>
        <time>2011-10-22T11:51:42Z</time>
      </trkpt>
      <trkpt lat="43.77149" lon="7.2613">
        <ele>751.420967</ele>
        <time>2011-10-22T11:51:50Z</time>
      </trkpt>
      <trkpt lat="43.7715" lon="7.26128">
        <ele>751.420967</ele>
        <time>2011-10-22T11:51:51Z</time>
      </trkpt>
      <trkpt lat="43.77157" lon="7.26119">
        <ele>753.420959</ele>
        <time>2011-10-22T11:51:56Z</time>
      </trkpt>
      <trkpt lat="43.77158" lon="7.26118">
        <ele>753.420956</ele>
        <time>2011-10-22T11:51:58Z</time>
      </trkpt>
      <trkpt lat="43.77166" lon="7.26107">
        <ele>754.420944</ele>
        <time>2011-10-22T11:52:03Z</time>
      </trkpt>
      <trkpt lat="43.77173" lon="7.26096">
        <ele>754.420937</ele>
        <time>2011-10-22T11:52:08Z</time>
      </trkpt>
      <trkpt lat="43.77182" lon="7.26083">
        <ele>755.420918</ele>
        <time>2011-10-22T11:52:14Z</time>
      </trkpt>
      <trkpt lat="43.77186" lon="7.26076">
        <ele>755.420906</ele>
        <time>2011-10-22T11:52:17Z</time>
      </trkpt>
      <trkpt lat="43.77198" lon="7.26059">
        <ele>753.420883</ele>
        <time>2011-10-22T11:52:26Z</time>
      </trkpt>
      <trkpt lat="43.77204" lon="7.26048">
        <ele>753.420868</ele>
        <time>2011-10-22T11:52:31Z</time>
      </trkpt>
      <trkpt lat="43.77214" lon="7.26033">
        <ele>755.420856</ele>
        <time>2011-10-22T11:52:39Z</time>
      </trkpt>
      <trkpt lat="43.77221" lon="7.26022">
        <ele>757.420837</ele>
        <time>2011-10-22T11:52:45Z</time>
      </trkpt>
      <trkpt lat="43.77222" lon="7.2602">
        <ele>757.420834</ele>
        <time>2011-10-22T11:52:46Z</time>
      </trkpt>
      <trkpt lat="43.77226" lon="7.26007">
        <ele>759.420815</ele>
        <time>2011-10-22T11:52:52Z</time>
      </trkpt>
      <trkpt lat="43.77232" lon="7.25989">
        <ele>761.420784</ele>
        <time>2011-10-22T11:53:01Z</time>
      </trkpt>
      <trkpt lat="43.77236" lon="7.25976">
        <ele>760.420761</ele>
        <time>2011-10-22T11:53:08Z</time>
      </trkpt>
      <trkpt lat="43.77237" lon="7.25969">
        <ele>759.42075</ele>
        <time>2011-10-22T11:53:11Z</time>
      </trkpt>
      <trkpt lat="43.77236" lon="7.25955">
        <ele>760.420715</ele>
        <time>2011-10-22T11:53:17Z</time>
      </trkpt>
      <trkpt lat="43.77236" lon="7.25955">
        <ele>760.420715</ele>
        <time>2011-10-22T11:53:18Z</time>
      </trkpt>
      <trkpt lat="43.77233" lon="7.25942">
        <ele>759.420685</ele>
        <time>2011-10-22T11:53:24Z</time>
      </trkpt>
      <trkpt lat="43.77225" lon="7.25936">
        <ele>761.420662</ele>
        <time>2011-10-22T11:53:33Z</time>
      </trkpt>
      <trkpt lat="43.77224" lon="7.25936">
        <ele>761.420662</ele>
        <time>2011-10-22T11:53:40Z</time>
      </trkpt>
      <trkpt lat="43.77213" lon="7.25933">
        <ele>734.420639</ele>
        <time>2011-10-22T11:55:20Z</time>
      </trkpt>
      <trkpt lat="43.77221" lon="7.25939">
        <ele>739.420662</ele>
        <time>2011-10-22T11:55:40Z</time>
      </trkpt>
      <trkpt lat="43.77225" lon="7.2595">
        <ele>735.420692</ele>
        <time>2011-10-22T11:56:05Z</time>
      </trkpt>
      <trkpt lat="43.77231" lon="7.2596">
        <ele>731.420719</ele>
        <time>2011-10-22T11:56:22Z</time>
      </trkpt>
      <trkpt lat="43.77236" lon="7.2595">
        <ele>747.420708</ele>
        <time>2011-10-22T11:57:16Z</time>
      </trkpt>
      <trkpt lat="43.77238" lon="7.25949">
        <ele>748.420708</ele>
        <time>2011-10-22T11:57:17Z</time>
      </trkpt>
      <trkpt lat="43.7725" lon="7.2594">
        <ele>750.420708</ele>
        <time>2011-10-22T11:57:27Z</time>
      </trkpt>
      <trkpt lat="43.77257" lon="7.25933">
        <ele>754.4207</ele>
        <time>2011-10-22T11:57:34Z</time>
      </trkpt>
      <trkpt lat="43.77268" lon="7.25924">
        <ele>755.4207</ele>
        <time>2011-10-22T11:57:44Z</time>
      </trkpt>
      <trkpt lat="43.77278" lon="7.25918">
        <ele>758.4207</ele>
        <time>2011-10-22T11:57:54Z</time>
      </trkpt>
      <trkpt lat="43.77287" lon="7.25913">
        <ele>760.4207</ele>
        <time>2011-10-22T11:58:01Z</time>
      </trkpt>
      <trkpt lat="43.77297" lon="7.25904">
        <ele>764.420696</ele>
        <time>2011-10-22T11:58:10Z</time>
      </trkpt>
      <trkpt lat="43.77305" lon="7.25898">
        <ele>765.420692</ele>
        <time>2011-10-22T11:58:16Z</time>
      </trkpt>
      <trkpt lat="43.77314" lon="7.25889">
        <ele>766.420685</ele>
        <time>2011-10-22T11:58:24Z</time>
      </trkpt>
      <trkpt lat="43.77322" lon="7.25879">
        <ele>766.420673</ele>
        <time>2011-10-22T11:58:36Z</time>
      </trkpt>
      <trkpt lat="43.77322" lon="7.25878">
        <ele>766.420673</ele>
        <time>2011-10-22T11:58:37Z</time>
      </trkpt>
      <trkpt lat="43.77319" lon="7.25866">
        <ele>766.420647</ele>
        <time>2011-10-22T11:58:46Z</time>
      </trkpt>
      <trkpt lat="43.77321" lon="7.25853">
        <ele>768.420616</ele>
        <time>2011-10-22T11:58:56Z</time>
      </trkpt>
      <trkpt lat="43.7733" lon="7.25846">
        <ele>769.42062</ele>
        <time>2011-10-22T11:59:04Z</time>
      </trkpt>
      <trkpt lat="43.77343" lon="7.25841">
        <ele>772.420624</ele>
        <time>2011-10-22T11:59:14Z</time>
      </trkpt>
      <trkpt lat="43.77352" lon="7.25837">
        <ele>774.420624</ele>
        <time>2011-10-22T11:59:21Z</time>
      </trkpt>
      <trkpt lat="43.7736" lon="7.25828">
        <ele>776.42062</ele>
        <time>2011-10-22T11:59:29Z</time>
      </trkpt>
      <trkpt lat="43.77365" lon="7.25816">
        <ele>778.420605</ele>
        <time>2011-10-22T11:59:36Z</time>
      </trkpt>
      <trkpt lat="43.77365" lon="7.25816">
        <ele>778.420605</ele>
        <time>2011-10-22T11:59:38Z</time>
      </trkpt>
      <trkpt lat="43.77369" lon="7.25803">
        <ele>781.420578</ele>
        <time>2011-10-22T11:59:42Z</time>
      </trkpt>
      <trkpt lat="43.77373" lon="7.25791">
        <ele>782.420559</ele>
        <time>2011-10-22T11:59:47Z</time>
      </trkpt>
      <trkpt lat="43.77376" lon="7.25777">
        <ele>783.420532</ele>
        <time>2011-10-22T11:59:52Z</time>
      </trkpt>
      <trkpt lat="43.7738" lon="7.25761">
        <ele>785.420509</ele>
        <time>2011-10-22T11:59:58Z</time>
      </trkpt>
      <trkpt lat="43.7738" lon="7.25754">
        <ele>786.42049</ele>
        <time>2011-10-22T12:00:01Z</time>
      </trkpt>
      <trkpt lat="43.77375" lon="7.25736">
        <ele>791.420448</ele>
        <time>2011-10-22T12:00:22Z</time>
      </trkpt>
      <trkpt lat="43.7737" lon="7.25725">
        <ele>793.420418</ele>
        <time>2011-10-22T12:00:33Z</time>
      </trkpt>
      <trkpt lat="43.77366" lon="7.25712">
        <ele>794.420383</ele>
        <time>2011-10-22T12:00:46Z</time>
      </trkpt>
      <trkpt lat="43.77363" lon="7.25697">
        <ele>798.420349</ele>
        <time>2011-10-22T12:01:01Z</time>
      </trkpt>
      <trkpt lat="43.77357" lon="7.25688">
        <ele>800.420319</ele>
        <time>2011-10-22T12:01:21Z</time>
      </trkpt>
      <trkpt lat="43.77357" lon="7.25688">
        <ele>800.420319</ele>
        <time>2011-10-22T12:01:23Z</time>
      </trkpt>
      <trkpt lat="43.77352" lon="7.25677">
        <ele>801.420288</ele>
        <time>2011-10-22T12:01:38Z</time>
      </trkpt>
      <trkpt lat="43.77346" lon="7.25664">
        <ele>803.420254</ele>
        <time>2011-10-22T12:01:56Z</time>
      </trkpt>
      <trkpt lat="43.77336" lon="7.25656">
        <ele>803.420223</ele>
        <time>2011-10-22T12:02:09Z</time>
      </trkpt>
      <trkpt lat="43.77335" lon="7.25655">
        <ele>803.420219</ele>
        <time>2011-10-22T12:02:10Z</time>
      </trkpt>
      <trkpt lat="43.77327" lon="7.25646">
        <ele>803.420189</ele>
        <time>2011-10-22T12:02:20Z</time>
      </trkpt>
      <trkpt lat="43.77325" lon="7.25641">
        <ele>804.420177</ele>
        <time>2011-10-22T12:02:25Z</time>
      </trkpt>
      <trkpt lat="43.77323" lon="7.25629">
        <ele>802.420143</ele>
        <time>2011-10-22T12:02:40Z</time>
      </trkpt>
      <trkpt lat="43.77321" lon="7.25616">
        <ele>800.42012</ele>
        <time>2011-10-22T12:03:06Z</time>
      </trkpt>
      <trkpt lat="43.77316" lon="7.25614">
        <ele>800.420109</ele>
        <time>2011-10-22T12:03:23Z</time>
      </trkpt>
      <trkpt lat="43.7731" lon="7.25597">
        <ele>800.420063</ele>
        <time>2011-10-22T12:04:05Z</time>
      </trkpt>
      <trkpt lat="43.77303" lon="7.25589">
        <ele>799.420036</ele>
        <time>2011-10-22T12:04:23Z</time>
      </trkpt>
      <trkpt lat="43.77303" lon="7.25587">
        <ele>799.420033</ele>
        <time>2011-10-22T12:04:25Z</time>
      </trkpt>
      <trkpt lat="43.77301" lon="7.25573">
        <ele>800.419998</ele>
        <time>2011-10-22T12:04:45Z</time>
      </trkpt>
      <trkpt lat="43.773" lon="7.2556">
        <ele>802.419968</ele>
        <time>2011-10-22T12:05:02Z</time>
      </trkpt>
      <trkpt lat="43.77299" lon="7.25547">
        <ele>804.419941</ele>
        <time>2011-10-22T12:05:30Z</time>
      </trkpt>
      <trkpt lat="43.77298" lon="7.25543">
        <ele>804.41993</ele>
        <time>2011-10-22T12:05:36Z</time>
      </trkpt>
      <trkpt lat="43.77287" lon="7.25533">
        <ele>806.419899</ele>
        <time>2011-10-22T12:05:54Z</time>
      </trkpt>
      <trkpt lat="43.77281" lon="7.25524">
        <ele>807.419868</ele>
        <time>2011-10-22T12:06:18Z</time>
      </trkpt>
      <trkpt lat="43.77273" lon="7.25518">
        <ele>808.419842</ele>
        <time>2011-10-22T12:06:43Z</time>
      </trkpt>
      <trkpt lat="43.77266" lon="7.25507">
        <ele>810.419815</ele>
        <time>2011-10-22T12:07:05Z</time>
      </trkpt>
      <trkpt lat="43.77259" lon="7.25499">
        <ele>813.419785</ele>
        <time>2011-10-22T12:07:21Z</time>
      </trkpt>
      <trkpt lat="43.77254" lon="7.25488">
        <ele>817.419754</ele>
        <time>2011-10-22T12:07:54Z</time>
      </trkpt>
      <trkpt lat="43.77253" lon="7.25473">
        <ele>820.419724</ele>
        <time>2011-10-22T12:08:22Z</time>
      </trkpt>
      <trkpt lat="43.77249" lon="7.25462">
        <ele>820.419693</ele>
        <time>2011-10-22T12:08:47Z</time>
      </trkpt>
      <trkpt lat="43.77243" lon="7.25452">
        <ele>828.419666</ele>
        <time>2011-10-22T12:09:07Z</time>
      </trkpt>
      <trkpt lat="43.77236" lon="7.25443">
        <ele>831.419636</ele>
        <time>2011-10-22T12:09:24Z</time>
      </trkpt>
      <trkpt lat="43.77233" lon="7.25441">
        <ele>832.419628</ele>
        <time>2011-10-22T12:09:29Z</time>
      </trkpt>
      <trkpt lat="43.77223" lon="7.25441">
        <ele>837.419617</ele>
        <time>2011-10-22T12:09:58Z</time>
      </trkpt>
      <trkpt lat="43.77214" lon="7.25434">
        <ele>863.419586</ele>
        <time>2011-10-22T12:13:14Z</time>
      </trkpt>
      <trkpt lat="43.77206" lon="7.25429">
        <ele>876.419563</ele>
        <time>2011-10-22T12:16:38Z</time>
      </trkpt>
      <trkpt lat="43.77217" lon="7.25431">
        <ele>877.419586</ele>
        <time>2011-10-22T12:19:50Z</time>
      </trkpt>
      <trkpt lat="43.77228" lon="7.25424">
        <ele>880.419586</ele>
        <time>2011-10-22T12:19:54Z</time>
      </trkpt>
      <trkpt lat="43.77237" lon="7.25416">
        <ele>881.419579</ele>
        <time>2011-10-22T12:19:58Z</time>
      </trkpt>
      <trkpt lat="43.77246" lon="7.25407">
        <ele>882.419575</ele>
        <time>2011-10-22T12:20:02Z</time>
      </trkpt>
      <trkpt lat="43.77255" lon="7.25399">
        <ele>885.419571</ele>
        <time>2011-10-22T12:20:05Z</time>
      </trkpt>
      <trkpt lat="43.77264" lon="7.25394">
        <ele>886.419571</ele>
        <time>2011-10-22T12:20:08Z</time>
      </trkpt>
      <trkpt lat="43.77276" lon="7.25393">
        <ele>887.419586</ele>
        <time>2011-10-22T12:20:12Z</time>
      </trkpt>
      <trkpt lat="43.77288" lon="7.25395">
        <ele>888.419609</ele>
        <time>2011-10-22T12:20:16Z</time>
      </trkpt>
      <trkpt lat="43.77296" lon="7.25397">
        <ele>889.419624</ele>
        <time>2011-10-22T12:20:19Z</time>
      </trkpt>
      <trkpt lat="43.77309" lon="7.25396">
        <ele>890.419636</ele>
        <time>2011-10-22T12:20:23Z</time>
      </trkpt>
      <trkpt lat="43.77319" lon="7.25393">
        <ele>890.419647</ele>
        <time>2011-10-22T12:20:26Z</time>
      </trkpt>
      <trkpt lat="43.77329" lon="7.25386">
        <ele>891.419643</ele>
        <time>2011-10-22T12:20:29Z</time>
      </trkpt>
      <trkpt lat="43.77339" lon="7.25381">
        <ele>891.41964</ele>
        <time>2011-10-22T12:20:32Z</time>
      </trkpt>
      <trkpt lat="43.77349" lon="7.25375">
        <ele>892.419647</ele>
        <time>2011-10-22T12:20:36Z</time>
      </trkpt>
      <trkpt lat="43.77358" lon="7.2537">
        <ele>892.419647</ele>
        <time>2011-10-22T12:20:40Z</time>
      </trkpt>
      <trkpt lat="43.77366" lon="7.25365">
        <ele>893.419647</ele>
        <time>2011-10-22T12:20:44Z</time>
      </trkpt>
      <trkpt lat="43.77376" lon="7.2536">
        <ele>892.419655</ele>
        <time>2011-10-22T12:20:48Z</time>
      </trkpt>
      <trkpt lat="43.77378" lon="7.25359">
        <ele>892.419655</ele>
        <time>2011-10-22T12:20:49Z</time>
      </trkpt>
      <trkpt lat="43.77388" lon="7.25358">
        <ele>893.419662</ele>
        <time>2011-10-22T12:20:53Z</time>
      </trkpt>
      <trkpt lat="43.77392" lon="7.25358">
        <ele>892.41967</ele>
        <time>2011-10-22T12:20:55Z</time>
      </trkpt>
      <trkpt lat="43.77402" lon="7.25355">
        <ele>892.419678</ele>
        <time>2011-10-22T12:20:59Z</time>
      </trkpt>
      <trkpt lat="43.77414" lon="7.25353">
        <ele>892.419693</ele>
        <time>2011-10-22T12:21:03Z</time>
      </trkpt>
      <trkpt lat="43.77423" lon="7.25345">
        <ele>892.419685</ele>
        <time>2011-10-22T12:21:07Z</time>
      </trkpt>
      <trkpt lat="43.77432" lon="7.25335">
        <ele>892.419678</ele>
        <time>2011-10-22T12:21:11Z</time>
      </trkpt>
      <trkpt lat="43.77441" lon="7.25332">
        <ele>892.419685</ele>
        <time>2011-10-22T12:21:14Z</time>
      </trkpt>
      <trkpt lat="43.7745" lon="7.2533">
        <ele>892.419693</ele>
        <time>2011-10-22T12:21:17Z</time>
      </trkpt>
      <trkpt lat="43.77462" lon="7.25329">
        <ele>892.419704</ele>
        <time>2011-10-22T12:21:21Z</time>
      </trkpt>
      <trkpt lat="43.77464" lon="7.25328">
        <ele>892.419708</ele>
        <time>2011-10-22T12:21:22Z</time>
      </trkpt>
      <trkpt lat="43.77476" lon="7.25324">
        <ele>892.419716</ele>
        <time>2011-10-22T12:21:26Z</time>
      </trkpt>
      <trkpt lat="43.77486" lon="7.25319">
        <ele>891.419716</ele>
        <time>2011-10-22T12:21:29Z</time>
      </trkpt>
      <trkpt lat="43.77496" lon="7.25311">
        <ele>890.419716</ele>
        <time>2011-10-22T12:21:32Z</time>
      </trkpt>
      <trkpt lat="43.77503" lon="7.25301">
        <ele>889.419701</ele>
        <time>2011-10-22T12:21:35Z</time>
      </trkpt>
      <trkpt lat="43.77505" lon="7.25299">
        <ele>889.419697</ele>
        <time>2011-10-22T12:21:36Z</time>
      </trkpt>
      <trkpt lat="43.77515" lon="7.25296">
        <ele>886.419708</ele>
        <time>2011-10-22T12:21:40Z</time>
      </trkpt>
      <trkpt lat="43.77526" lon="7.25293">
        <ele>883.41972</ele>
        <time>2011-10-22T12:21:45Z</time>
      </trkpt>
      <trkpt lat="43.77537" lon="7.25291">
        <ele>880.419731</ele>
        <time>2011-10-22T12:21:49Z</time>
      </trkpt>
      <trkpt lat="43.77542" lon="7.25287">
        <ele>878.419724</ele>
        <time>2011-10-22T12:21:51Z</time>
      </trkpt>
      <trkpt lat="43.7755" lon="7.25281">
        <ele>875.419724</ele>
        <time>2011-10-22T12:21:54Z</time>
      </trkpt>
      <trkpt lat="43.77559" lon="7.25276">
        <ele>872.419724</ele>
        <time>2011-10-22T12:21:57Z</time>
      </trkpt>
      <trkpt lat="43.77562" lon="7.25273">
        <ele>871.419724</ele>
        <time>2011-10-22T12:21:58Z</time>
      </trkpt>
      <trkpt lat="43.77571" lon="7.25262">
        <ele>867.419716</ele>
        <time>2011-10-22T12:22:02Z</time>
      </trkpt>
      <trkpt lat="43.77578" lon="7.25252">
        <ele>862.419701</ele>
        <time>2011-10-22T12:22:06Z</time>
      </trkpt>
      <trkpt lat="43.77585" lon="7.2524">
        <ele>855.419685</ele>
        <time>2011-10-22T12:22:11Z</time>
      </trkpt>
      <trkpt lat="43.77589" lon="7.25228">
        <ele>851.419662</ele>
        <time>2011-10-22T12:22:15Z</time>
      </trkpt>
      <trkpt lat="43.77595" lon="7.25216">
        <ele>844.419647</ele>
        <time>2011-10-22T12:22:20Z</time>
      </trkpt>
      <trkpt lat="43.77597" lon="7.2521">
        <ele>842.41964</ele>
        <time>2011-10-22T12:22:22Z</time>
      </trkpt>
      <trkpt lat="43.776" lon="7.25197">
        <ele>837.419617</ele>
        <time>2011-10-22T12:22:27Z</time>
      </trkpt>
      <trkpt lat="43.77604" lon="7.25184">
        <ele>832.419594</ele>
        <time>2011-10-22T12:22:31Z</time>
      </trkpt>
      <trkpt lat="43.77609" lon="7.25172">
        <ele>828.419575</ele>
        <time>2011-10-22T12:22:35Z</time>
      </trkpt>
      <trkpt lat="43.77617" lon="7.25168">
        <ele>823.419579</ele>
        <time>2011-10-22T12:22:39Z</time>
      </trkpt>
      <trkpt lat="43.77625" lon="7.25157">
        <ele>816.419563</ele>
        <time>2011-10-22T12:22:45Z</time>
      </trkpt>
      <trkpt lat="43.77625" lon="7.25154">
        <ele>815.419563</ele>
        <time>2011-10-22T12:22:48Z</time>
      </trkpt>
      <trkpt lat="43.77628" lon="7.25141">
        <ele>807.419537</ele>
        <time>2011-10-22T12:22:54Z</time>
      </trkpt>
      <trkpt lat="43.77634" lon="7.25138">
        <ele>805.41954</ele>
        <time>2011-10-22T12:22:57Z</time>
      </trkpt>
      <trkpt lat="43.77643" lon="7.25131">
        <ele>802.419537</ele>
        <time>2011-10-22T12:23:01Z</time>
      </trkpt>
      <trkpt lat="43.77652" lon="7.25121">
        <ele>798.419525</ele>
        <time>2011-10-22T12:23:05Z</time>
      </trkpt>
      <trkpt lat="43.77653" lon="7.25118">
        <ele>797.419521</ele>
        <time>2011-10-22T12:23:06Z</time>
      </trkpt>
      <trkpt lat="43.77662" lon="7.2511">
        <ele>791.419518</ele>
        <time>2011-10-22T12:23:12Z</time>
      </trkpt>
      <trkpt lat="43.77665" lon="7.2511">
        <ele>791.419521</ele>
        <time>2011-10-22T12:23:13Z</time>
      </trkpt>
      <trkpt lat="43.77677" lon="7.25108">
        <ele>789.419533</ele>
        <time>2011-10-22T12:23:16Z</time>
      </trkpt>
      <trkpt lat="43.77681" lon="7.25105">
        <ele>789.419533</ele>
        <time>2011-10-22T12:23:17Z</time>
      </trkpt>
      <trkpt lat="43.77691" lon="7.25095">
        <ele>788.419525</ele>
        <time>2011-10-22T12:23:20Z</time>
      </trkpt>
      <trkpt lat="43.777" lon="7.25087">
        <ele>787.419518</ele>
        <time>2011-10-22T12:23:23Z</time>
      </trkpt>
      <trkpt lat="43.77703" lon="7.25084">
        <ele>787.419518</ele>
        <time>2011-10-22T12:23:24Z</time>
      </trkpt>
      <trkpt lat="43.77709" lon="7.25073">
        <ele>786.419502</ele>
        <time>2011-10-22T12:23:27Z</time>
      </trkpt>
      <trkpt lat="43.77717" lon="7.25062">
        <ele>784.419487</ele>
        <time>2011-10-22T12:23:30Z</time>
      </trkpt>
      <trkpt lat="43.77723" lon="7.2505">
        <ele>784.419472</ele>
        <time>2011-10-22T12:23:33Z</time>
      </trkpt>
      <trkpt lat="43.77728" lon="7.25035">
        <ele>785.419449</ele>
        <time>2011-10-22T12:23:36Z</time>
      </trkpt>
      <trkpt lat="43.77733" lon="7.25018">
        <ele>785.419418</ele>
        <time>2011-10-22T12:23:40Z</time>
      </trkpt>
      <trkpt lat="43.77735" lon="7.25005">
        <ele>786.419399</ele>
        <time>2011-10-22T12:23:43Z</time>
      </trkpt>
      <trkpt lat="43.77745" lon="7.24998">
        <ele>786.419395</ele>
        <time>2011-10-22T12:23:48Z</time>
      </trkpt>
      <trkpt lat="43.77751" lon="7.2499">
        <ele>785.419388</ele>
        <time>2011-10-22T12:23:52Z</time>
      </trkpt>
      <trkpt lat="43.77756" lon="7.24979">
        <ele>782.419369</ele>
        <time>2011-10-22T12:23:56Z</time>
      </trkpt>
      <trkpt lat="43.77758" lon="7.24978">
        <ele>781.419373</ele>
        <time>2011-10-22T12:23:57Z</time>
      </trkpt>
      <trkpt lat="43.77772" lon="7.24972">
        <ele>775.419373</ele>
        <time>2011-10-22T12:24:03Z</time>
      </trkpt>
      <trkpt lat="43.77774" lon="7.2497">
        <ele>774.419376</ele>
        <time>2011-10-22T12:24:04Z</time>
      </trkpt>
      <trkpt lat="43.77782" lon="7.2495">
        <ele>760.41935</ele>
        <time>2011-10-22T12:24:13Z</time>
      </trkpt>
      <trkpt lat="43.77795" lon="7.24935">
        <ele>746.419334</ele>
        <time>2011-10-22T12:24:25Z</time>
      </trkpt>
      <trkpt lat="43.77797" lon="7.24935">
        <ele>745.419334</ele>
        <time>2011-10-22T12:24:26Z</time>
      </trkpt>
      <trkpt lat="43.77808" lon="7.24935">
        <ele>740.419346</ele>
        <time>2011-10-22T12:24:34Z</time>
      </trkpt>
      <trkpt lat="43.77796" lon="7.24916">
        <ele>731.419296</ele>
        <time>2011-10-22T12:24:42Z</time>
      </trkpt>
      <trkpt lat="43.7779" lon="7.24906">
        <ele>730.419262</ele>
        <time>2011-10-22T12:24:44Z</time>
      </trkpt>
      <trkpt lat="43.77784" lon="7.24898">
        <ele>727.419239</ele>
        <time>2011-10-22T12:24:46Z</time>
      </trkpt>
      <trkpt lat="43.77774" lon="7.24894">
        <ele>723.419212</ele>
        <time>2011-10-22T12:24:49Z</time>
      </trkpt>
      <trkpt lat="43.77764" lon="7.24896">
        <ele>716.419205</ele>
        <time>2011-10-22T12:24:54Z</time>
      </trkpt>
      <trkpt lat="43.77754" lon="7.24899">
        <ele>709.419197</ele>
        <time>2011-10-22T12:24:59Z</time>
      </trkpt>
      <trkpt lat="43.77746" lon="7.24902">
        <ele>703.419189</ele>
        <time>2011-10-22T12:25:03Z</time>
      </trkpt>
      <trkpt lat="43.77736" lon="7.24906">
        <ele>700.419182</ele>
        <time>2011-10-22T12:25:07Z</time>
      </trkpt>
      <trkpt lat="43.77728" lon="7.24909">
        <ele>699.419182</ele>
        <time>2011-10-22T12:25:11Z</time>
      </trkpt>
      <trkpt lat="43.77719" lon="7.24915">
        <ele>696.419182</ele>
        <time>2011-10-22T12:25:15Z</time>
      </trkpt>
      <trkpt lat="43.77705" lon="7.24918">
        <ele>692.419174</ele>
        <time>2011-10-22T12:25:25Z</time>
      </trkpt>
      <trkpt lat="43.77694" lon="7.24915">
        <ele>692.419151</ele>
        <time>2011-10-22T12:25:31Z</time>
      </trkpt>
      <trkpt lat="43.77694" lon="7.24915">
        <ele>692.419151</ele>
        <time>2011-10-22T12:25:32Z</time>
      </trkpt>
      <trkpt lat="43.7768" lon="7.24906">
        <ele>693.419113</ele>
        <time>2011-10-22T12:25:38Z</time>
      </trkpt>
      <trkpt lat="43.77668" lon="7.24902">
        <ele>694.419083</ele>
        <time>2011-10-22T12:25:44Z</time>
      </trkpt>
      <trkpt lat="43.77661" lon="7.24901">
        <ele>694.419075</ele>
        <time>2011-10-22T12:25:47Z</time>
      </trkpt>
      <trkpt lat="43.77648" lon="7.24901">
        <ele>695.419056</ele>
        <time>2011-10-22T12:25:53Z</time>
      </trkpt>
      <trkpt lat="43.77637" lon="7.24901">
        <ele>696.419044</ele>
        <time>2011-10-22T12:25:58Z</time>
      </trkpt>
      <trkpt lat="43.77633" lon="7.24901">
        <ele>696.419037</ele>
        <time>2011-10-22T12:26:00Z</time>
      </trkpt>
      <trkpt lat="43.77615" lon="7.24902">
        <ele>696.419014</ele>
        <time>2011-10-22T12:26:11Z</time>
      </trkpt>
      <trkpt lat="43.77606" lon="7.24906">
        <ele>697.419006</ele>
        <time>2011-10-22T12:26:17Z</time>
      </trkpt>
      <trkpt lat="43.77606" lon="7.24906">
        <ele>697.419006</ele>
        <time>2011-10-22T12:26:18Z</time>
      </trkpt>
      <trkpt lat="43.77596" lon="7.24909">
        <ele>696.418999</ele>
        <time>2011-10-22T12:26:20Z</time>
      </trkpt>
      <trkpt lat="43.77587" lon="7.24913">
        <ele>695.418999</ele>
        <time>2011-10-22T12:26:22Z</time>
      </trkpt>
      <trkpt lat="43.77575" lon="7.24917">
        <ele>693.418991</ele>
        <time>2011-10-22T12:26:25Z</time>
      </trkpt>
      <trkpt lat="43.77571" lon="7.24919">
        <ele>693.418987</ele>
        <time>2011-10-22T12:26:26Z</time>
      </trkpt>
      <trkpt lat="43.7756" lon="7.24923">
        <ele>692.418983</ele>
        <time>2011-10-22T12:26:29Z</time>
      </trkpt>
      <trkpt lat="43.7755" lon="7.24925">
        <ele>692.418972</ele>
        <time>2011-10-22T12:26:32Z</time>
      </trkpt>
      <trkpt lat="43.77546" lon="7.24925">
        <ele>692.418968</ele>
        <time>2011-10-22T12:26:33Z</time>
      </trkpt>
      <trkpt lat="43.77536" lon="7.24925">
        <ele>691.418953</ele>
        <time>2011-10-22T12:26:36Z</time>
      </trkpt>
      <trkpt lat="43.77527" lon="7.24924">
        <ele>691.418938</ele>
        <time>2011-10-22T12:26:39Z</time>
      </trkpt>
      <trkpt lat="43.77521" lon="7.24924">
        <ele>691.41893</ele>
        <time>2011-10-22T12:26:41Z</time>
      </trkpt>
      <trkpt lat="43.77511" lon="7.24925">
        <ele>691.418915</ele>
        <time>2011-10-22T12:26:44Z</time>
      </trkpt>
      <trkpt lat="43.77502" lon="7.24926">
        <ele>692.418907</ele>
        <time>2011-10-22T12:26:47Z</time>
      </trkpt>
      <trkpt lat="43.77492" lon="7.24928">
        <ele>693.4189</ele>
        <time>2011-10-22T12:26:50Z</time>
      </trkpt>
      <trkpt lat="43.77483" lon="7.24929">
        <ele>694.418892</ele>
        <time>2011-10-22T12:26:53Z</time>
      </trkpt>
      <trkpt lat="43.77477" lon="7.24931">
        <ele>694.418888</ele>
        <time>2011-10-22T12:26:55Z</time>
      </trkpt>
      <trkpt lat="43.77457" lon="7.24934">
        <ele>697.418861</ele>
        <time>2011-10-22T12:27:05Z</time>
      </trkpt>
      <trkpt lat="43.77447" lon="7.24936">
        <ele>699.418854</ele>
        <time>2011-10-22T12:27:10Z</time>
      </trkpt>
      <trkpt lat="43.77437" lon="7.24942">
        <ele>702.418854</ele>
        <time>2011-10-22T12:27:15Z</time>
      </trkpt>
      <trkpt lat="43.77433" lon="7.24945">
        <ele>702.418854</ele>
        <time>2011-10-22T12:27:18Z</time>
      </trkpt>
      <trkpt lat="43.77424" lon="7.24951">
        <ele>703.418854</ele>
        <time>2011-10-22T12:27:22Z</time>
      </trkpt>
      <trkpt lat="43.77415" lon="7.24956">
        <ele>703.418854</ele>
        <time>2011-10-22T12:27:26Z</time>
      </trkpt>
      <trkpt lat="43.77405" lon="7.24957">
        <ele>704.418839</ele>
        <time>2011-10-22T12:27:30Z</time>
      </trkpt>
      <trkpt lat="43.77403" lon="7.24957">
        <ele>705.418839</ele>
        <time>2011-10-22T12:27:31Z</time>
      </trkpt>
      <trkpt lat="43.77393" lon="7.24956">
        <ele>705.418823</ele>
        <time>2011-10-22T12:27:35Z</time>
      </trkpt>
      <trkpt lat="43.77381" lon="7.24957">
        <ele>706.418808</ele>
        <time>2011-10-22T12:27:40Z</time>
      </trkpt>
      <trkpt lat="43.77379" lon="7.24957">
        <ele>707.418804</ele>
        <time>2011-10-22T12:27:41Z</time>
      </trkpt>
      <trkpt lat="43.77368" lon="7.24957">
        <ele>708.418789</ele>
        <time>2011-10-22T12:27:46Z</time>
      </trkpt>
      <trkpt lat="43.77359" lon="7.24959">
        <ele>707.418781</ele>
        <time>2011-10-22T12:27:51Z</time>
      </trkpt>
      <trkpt lat="43.77344" lon="7.24961">
        <ele>711.418762</ele>
        <time>2011-10-22T12:28:02Z</time>
      </trkpt>
      <trkpt lat="43.77334" lon="7.2496">
        <ele>712.418747</ele>
        <time>2011-10-22T12:28:11Z</time>
      </trkpt>
      <trkpt lat="43.77334" lon="7.2496">
        <ele>712.418747</ele>
        <time>2011-10-22T12:28:12Z</time>
      </trkpt>
      <trkpt lat="43.77323" lon="7.2496">
        <ele>713.418736</ele>
        <time>2011-10-22T12:28:18Z</time>
      </trkpt>
      <trkpt lat="43.77313" lon="7.24962">
        <ele>716.418724</ele>
        <time>2011-10-22T12:28:26Z</time>
      </trkpt>
      <trkpt lat="43.77302" lon="7.24963">
        <ele>719.418713</ele>
        <time>2011-10-22T12:28:32Z</time>
      </trkpt>
      <trkpt lat="43.77299" lon="7.24964">
        <ele>719.418709</ele>
        <time>2011-10-22T12:28:35Z</time>
      </trkpt>
      <trkpt lat="43.7729" lon="7.24965">
        <ele>720.418701</ele>
        <time>2011-10-22T12:28:39Z</time>
      </trkpt>
      <trkpt lat="43.77279" lon="7.24967">
        <ele>718.418686</ele>
        <time>2011-10-22T12:28:44Z</time>
      </trkpt>
      <trkpt lat="43.77277" lon="7.24967">
        <ele>718.418686</ele>
        <time>2011-10-22T12:28:45Z</time>
      </trkpt>
      <trkpt lat="43.77267" lon="7.24969">
        <ele>718.418671</ele>
        <time>2011-10-22T12:28:49Z</time>
      </trkpt>
      <trkpt lat="43.77259" lon="7.2497">
        <ele>717.418667</ele>
        <time>2011-10-22T12:28:52Z</time>
      </trkpt>
      <trkpt lat="43.7725" lon="7.24973">
        <ele>716.418655</ele>
        <time>2011-10-22T12:28:56Z</time>
      </trkpt>
      <trkpt lat="43.7724" lon="7.24975">
        <ele>715.418655</ele>
        <time>2011-10-22T12:29:01Z</time>
      </trkpt>
      <trkpt lat="43.77231" lon="7.24978">
        <ele>713.41864</ele>
        <time>2011-10-22T12:29:06Z</time>
      </trkpt>
      <trkpt lat="43.77221" lon="7.24982">
        <ele>711.41864</ele>
        <time>2011-10-22T12:29:11Z</time>
      </trkpt>
      <trkpt lat="43.77212" lon="7.24985">
        <ele>709.418633</ele>
        <time>2011-10-22T12:29:16Z</time>
      </trkpt>
      <trkpt lat="43.77202" lon="7.24986">
        <ele>709.418621</ele>
        <time>2011-10-22T12:29:21Z</time>
      </trkpt>
      <trkpt lat="43.77191" lon="7.24986">
        <ele>709.418606</ele>
        <time>2011-10-22T12:29:26Z</time>
      </trkpt>
      <trkpt lat="43.77179" lon="7.24987">
        <ele>708.418594</ele>
        <time>2011-10-22T12:29:30Z</time>
      </trkpt>
      <trkpt lat="43.77167" lon="7.24989">
        <ele>707.418579</ele>
        <time>2011-10-22T12:29:33Z</time>
      </trkpt>
      <trkpt lat="43.77157" lon="7.2499">
        <ele>707.418571</ele>
        <time>2011-10-22T12:29:35Z</time>
      </trkpt>
      <trkpt lat="43.77147" lon="7.2499">
        <ele>707.41856</ele>
        <time>2011-10-22T12:29:37Z</time>
      </trkpt>
      <trkpt lat="43.77137" lon="7.2499">
        <ele>707.418541</ele>
        <time>2011-10-22T12:29:39Z</time>
      </trkpt>
      <trkpt lat="43.77127" lon="7.24989">
        <ele>707.418526</ele>
        <time>2011-10-22T12:29:41Z</time>
      </trkpt>
      <trkpt lat="43.77117" lon="7.24989">
        <ele>707.418514</ele>
        <time>2011-10-22T12:29:43Z</time>
      </trkpt>
      <trkpt lat="43.77108" lon="7.2499">
        <ele>707.418503</ele>
        <time>2011-10-22T12:29:45Z</time>
      </trkpt>
      <trkpt lat="43.77098" lon="7.24991">
        <ele>707.418491</ele>
        <time>2011-10-22T12:29:47Z</time>
      </trkpt>
      <trkpt lat="43.77089" lon="7.2499">
        <ele>707.418476</ele>
        <time>2011-10-22T12:29:49Z</time>
      </trkpt>
      <trkpt lat="43.77076" lon="7.24985">
        <ele>707.418449</ele>
        <time>2011-10-22T12:29:52Z</time>
      </trkpt>
      <trkpt lat="43.77068" lon="7.24979">
        <ele>706.418427</ele>
        <time>2011-10-22T12:29:54Z</time>
      </trkpt>
      <trkpt lat="43.77061" lon="7.24972">
        <ele>706.418396</ele>
        <time>2011-10-22T12:29:56Z</time>
      </trkpt>
      <trkpt lat="43.7705" lon="7.24965">
        <ele>707.418365</ele>
        <time>2011-10-22T12:29:59Z</time>
      </trkpt>
      <trkpt lat="43.7704" lon="7.2496">
        <ele>707.418346</ele>
        <time>2011-10-22T12:30:02Z</time>
      </trkpt>
      <trkpt lat="43.77028" lon="7.24959">
        <ele>708.418327</ele>
        <time>2011-10-22T12:30:06Z</time>
      </trkpt>
      <trkpt lat="43.77019" lon="7.24965">
        <ele>709.418327</ele>
        <time>2011-10-22T12:30:10Z</time>
      </trkpt>
      <trkpt lat="43.77011" lon="7.24973">
        <ele>708.418335</ele>
        <time>2011-10-22T12:30:33Z</time>
      </trkpt>
      <trkpt lat="43.77" lon="7.24978">
        <ele>707.418327</ele>
        <time>2011-10-22T12:30:38Z</time>
      </trkpt>
      <trkpt lat="43.76992" lon="7.24983">
        <ele>707.418331</ele>
        <time>2011-10-22T12:30:41Z</time>
      </trkpt>
      <trkpt lat="43.76983" lon="7.24987">
        <ele>707.418324</ele>
        <time>2011-10-22T12:30:44Z</time>
      </trkpt>
      <trkpt lat="43.76972" lon="7.24992">
        <ele>706.418316</ele>
        <time>2011-10-22T12:30:47Z</time>
      </trkpt>
      <trkpt lat="43.7696" lon="7.24996">
        <ele>706.418308</ele>
        <time>2011-10-22T12:30:50Z</time>
      </trkpt>
      <trkpt lat="43.7695" lon="7.24999">
        <ele>705.418304</ele>
        <time>2011-10-22T12:30:53Z</time>
      </trkpt>
      <trkpt lat="43.7694" lon="7.25002">
        <ele>706.418297</ele>
        <time>2011-10-22T12:30:57Z</time>
      </trkpt>
      <trkpt lat="43.7693" lon="7.25007">
        <ele>706.418297</ele>
        <time>2011-10-22T12:31:04Z</time>
      </trkpt>
      <trkpt lat="43.76919" lon="7.25013">
        <ele>706.418289</ele>
        <time>2011-10-22T12:31:08Z</time>
      </trkpt>
      <trkpt lat="43.7691" lon="7.25018">
        <ele>705.418289</ele>
        <time>2011-10-22T12:31:11Z</time>
      </trkpt>
      <trkpt lat="43.76901" lon="7.25023">
        <ele>705.418285</ele>
        <time>2011-10-22T12:31:14Z</time>
      </trkpt>
      <trkpt lat="43.7689" lon="7.25026">
        <ele>705.418278</ele>
        <time>2011-10-22T12:31:17Z</time>
      </trkpt>
      <trkpt lat="43.76885" lon="7.2503">
        <ele>705.418282</ele>
        <time>2011-10-22T12:31:19Z</time>
      </trkpt>
      <trkpt lat="43.76875" lon="7.25037">
        <ele>704.418282</ele>
        <time>2011-10-22T12:31:26Z</time>
      </trkpt>
      <trkpt lat="43.76866" lon="7.25039">
        <ele>703.418274</ele>
        <time>2011-10-22T12:31:30Z</time>
      </trkpt>
      <trkpt lat="43.76861" lon="7.2504">
        <ele>703.41827</ele>
        <time>2011-10-22T12:31:32Z</time>
      </trkpt>
      <trkpt lat="43.76849" lon="7.25043">
        <ele>704.418255</ele>
        <time>2011-10-22T12:31:40Z</time>
      </trkpt>
      <trkpt lat="43.76841" lon="7.25049">
        <ele>696.418259</ele>
        <time>2011-10-22T12:32:18Z</time>
      </trkpt>
      <trkpt lat="43.7683" lon="7.25048">
        <ele>695.418243</ele>
        <time>2011-10-22T12:32:22Z</time>
      </trkpt>
      <trkpt lat="43.76818" lon="7.25043">
        <ele>694.418213</ele>
        <time>2011-10-22T12:32:25Z</time>
      </trkpt>
      <trkpt lat="43.76809" lon="7.25037">
        <ele>695.41819</ele>
        <time>2011-10-22T12:32:27Z</time>
      </trkpt>
      <trkpt lat="43.76797" lon="7.2503">
        <ele>696.418159</ele>
        <time>2011-10-22T12:32:30Z</time>
      </trkpt>
      <trkpt lat="43.76784" lon="7.25029">
        <ele>696.41814</ele>
        <time>2011-10-22T12:32:33Z</time>
      </trkpt>
      <trkpt lat="43.7678" lon="7.2503">
        <ele>696.418133</ele>
        <time>2011-10-22T12:32:34Z</time>
      </trkpt>
      <trkpt lat="43.7677" lon="7.25035">
        <ele>696.418133</ele>
        <time>2011-10-22T12:32:37Z</time>
      </trkpt>
      <trkpt lat="43.76758" lon="7.25041">
        <ele>697.418129</ele>
        <time>2011-10-22T12:32:40Z</time>
      </trkpt>
      <trkpt lat="43.76746" lon="7.25046">
        <ele>698.418121</ele>
        <time>2011-10-22T12:32:43Z</time>
      </trkpt>
      <trkpt lat="43.76742" lon="7.25048">
        <ele>699.418121</ele>
        <time>2011-10-22T12:32:44Z</time>
      </trkpt>
      <trkpt lat="43.76739" lon="7.25049">
        <ele>699.418114</ele>
        <time>2011-10-22T12:32:45Z</time>
      </trkpt>
      <trkpt lat="43.76735" lon="7.25049">
        <ele>699.418114</ele>
        <time>2011-10-22T12:32:46Z</time>
      </trkpt>
      <trkpt lat="43.76731" lon="7.25048">
        <ele>699.418106</ele>
        <time>2011-10-22T12:32:47Z</time>
      </trkpt>
      <trkpt lat="43.76728" lon="7.25048">
        <ele>699.418102</ele>
        <time>2011-10-22T12:32:48Z</time>
      </trkpt>
      <trkpt lat="43.76724" lon="7.25046">
        <ele>698.418091</ele>
        <time>2011-10-22T12:32:49Z</time>
      </trkpt>
      <trkpt lat="43.76713" lon="7.25044">
        <ele>697.418072</ele>
        <time>2011-10-22T12:32:52Z</time>
      </trkpt>
      <trkpt lat="43.76709" lon="7.25044">
        <ele>697.418068</ele>
        <time>2011-10-22T12:32:53Z</time>
      </trkpt>
      <trkpt lat="43.76698" lon="7.25041">
        <ele>696.418045</ele>
        <time>2011-10-22T12:32:56Z</time>
      </trkpt>
      <trkpt lat="43.76685" lon="7.25044">
        <ele>696.418037</ele>
        <time>2011-10-22T12:32:59Z</time>
      </trkpt>
      <trkpt lat="43.76676" lon="7.25057">
        <ele>694.418049</ele>
        <time>2011-10-22T12:33:02Z</time>
      </trkpt>
      <trkpt lat="43.76672" lon="7.25068">
        <ele>694.418068</ele>
        <time>2011-10-22T12:33:04Z</time>
      </trkpt>
      <trkpt lat="43.76667" lon="7.25077">
        <ele>694.418079</ele>
        <time>2011-10-22T12:33:06Z</time>
      </trkpt>
      <trkpt lat="43.76657" lon="7.25086">
        <ele>692.418083</ele>
        <time>2011-10-22T12:33:09Z</time>
      </trkpt>
      <trkpt lat="43.76646" lon="7.25087">
        <ele>690.418076</ele>
        <time>2011-10-22T12:33:12Z</time>
      </trkpt>
      <trkpt lat="43.76634" lon="7.25088">
        <ele>688.41806</ele>
        <time>2011-10-22T12:33:15Z</time>
      </trkpt>
      <trkpt lat="43.76623" lon="7.25089">
        <ele>688.418045</ele>
        <time>2011-10-22T12:33:18Z</time>
      </trkpt>
      <trkpt lat="43.7661" lon="7.2509">
        <ele>687.41803</ele>
        <time>2011-10-22T12:33:21Z</time>
      </trkpt>
      <trkpt lat="43.76601" lon="7.25093">
        <ele>685.418022</ele>
        <time>2011-10-22T12:33:23Z</time>
      </trkpt>
      <trkpt lat="43.76592" lon="7.25097">
        <ele>684.418022</ele>
        <time>2011-10-22T12:33:25Z</time>
      </trkpt>
      <trkpt lat="43.76583" lon="7.25102">
        <ele>682.418018</ele>
        <time>2011-10-22T12:33:27Z</time>
      </trkpt>
      <trkpt lat="43.76573" lon="7.25109">
        <ele>681.418015</ele>
        <time>2011-10-22T12:33:29Z</time>
      </trkpt>
      <trkpt lat="43.76567" lon="7.25112">
        <ele>680.418022</ele>
        <time>2011-10-22T12:33:30Z</time>
      </trkpt>
      <trkpt lat="43.76555" lon="7.25118">
        <ele>679.418015</ele>
        <time>2011-10-22T12:33:32Z</time>
      </trkpt>
      <trkpt lat="43.76543" lon="7.25121">
        <ele>677.417999</ele>
        <time>2011-10-22T12:33:34Z</time>
      </trkpt>
      <trkpt lat="43.76531" lon="7.25119">
        <ele>675.41798</ele>
        <time>2011-10-22T12:33:36Z</time>
      </trkpt>
      <trkpt lat="43.7652" lon="7.25115">
        <ele>674.417961</ele>
        <time>2011-10-22T12:33:38Z</time>
      </trkpt>
      <trkpt lat="43.76509" lon="7.2511">
        <ele>673.417938</ele>
        <time>2011-10-22T12:33:40Z</time>
      </trkpt>
      <trkpt lat="43.76504" lon="7.25108">
        <ele>672.417923</ele>
        <time>2011-10-22T12:33:41Z</time>
      </trkpt>
      <trkpt lat="43.76494" lon="7.25105">
        <ele>671.4179</ele>
        <time>2011-10-22T12:33:43Z</time>
      </trkpt>
      <trkpt lat="43.76484" lon="7.25103">
        <ele>670.417881</ele>
        <time>2011-10-22T12:33:45Z</time>
      </trkpt>
      <trkpt lat="43.76471" lon="7.25103">
        <ele>668.41787</ele>
        <time>2011-10-22T12:33:48Z</time>
      </trkpt>
      <trkpt lat="43.76459" lon="7.25104">
        <ele>666.417847</ele>
        <time>2011-10-22T12:33:51Z</time>
      </trkpt>
      <trkpt lat="43.76455" lon="7.25104">
        <ele>666.417847</ele>
        <time>2011-10-22T12:33:52Z</time>
      </trkpt>
      <trkpt lat="43.76444" lon="7.25108">
        <ele>665.417839</ele>
        <time>2011-10-22T12:33:55Z</time>
      </trkpt>
      <trkpt lat="43.76442" lon="7.25111">
        <ele>665.417843</ele>
        <time>2011-10-22T12:33:57Z</time>
      </trkpt>
      <trkpt lat="43.76433" lon="7.25117">
        <ele>664.417843</ele>
        <time>2011-10-22T12:34:01Z</time>
      </trkpt>
      <trkpt lat="43.76424" lon="7.25122">
        <ele>663.417839</ele>
        <time>2011-10-22T12:34:04Z</time>
      </trkpt>
      <trkpt lat="43.76414" lon="7.25127">
        <ele>661.417835</ele>
        <time>2011-10-22T12:34:07Z</time>
      </trkpt>
      <trkpt lat="43.76403" lon="7.25132">
        <ele>659.417835</ele>
        <time>2011-10-22T12:34:10Z</time>
      </trkpt>
      <trkpt lat="43.76392" lon="7.25139">
        <ele>657.417831</ele>
        <time>2011-10-22T12:34:13Z</time>
      </trkpt>
      <trkpt lat="43.76381" lon="7.25148">
        <ele>656.417839</ele>
        <time>2011-10-22T12:34:16Z</time>
      </trkpt>
      <trkpt lat="43.76378" lon="7.25152">
        <ele>655.417839</ele>
        <time>2011-10-22T12:34:17Z</time>
      </trkpt>
      <trkpt lat="43.76367" lon="7.25162">
        <ele>654.417847</ele>
        <time>2011-10-22T12:34:20Z</time>
      </trkpt>
      <trkpt lat="43.76359" lon="7.2517">
        <ele>653.417854</ele>
        <time>2011-10-22T12:34:23Z</time>
      </trkpt>
      <trkpt lat="43.76347" lon="7.25174">
        <ele>636.417847</ele>
        <time>2011-10-22T12:37:23Z</time>
      </trkpt>
      <trkpt lat="43.76337" lon="7.25172">
        <ele>635.417828</ele>
        <time>2011-10-22T12:37:27Z</time>
      </trkpt>
      <trkpt lat="43.76329" lon="7.25163">
        <ele>637.417797</ele>
        <time>2011-10-22T12:37:32Z</time>
      </trkpt>
      <trkpt lat="43.76324" lon="7.25161">
        <ele>637.417786</ele>
        <time>2011-10-22T12:37:35Z</time>
      </trkpt>
      <trkpt lat="43.76316" lon="7.25153">
        <ele>636.417759</ele>
        <time>2011-10-22T12:37:40Z</time>
      </trkpt>
      <trkpt lat="43.76314" lon="7.25151">
        <ele>636.417751</ele>
        <time>2011-10-22T12:37:41Z</time>
      </trkpt>
      <trkpt lat="43.76311" lon="7.25136">
        <ele>636.417717</ele>
        <time>2011-10-22T12:37:45Z</time>
      </trkpt>
      <trkpt lat="43.7631" lon="7.25129">
        <ele>635.417698</ele>
        <time>2011-10-22T12:37:47Z</time>
      </trkpt>
      <trkpt lat="43.76308" lon="7.25115">
        <ele>635.417667</ele>
        <time>2011-10-22T12:37:51Z</time>
      </trkpt>
      <trkpt lat="43.76307" lon="7.25112">
        <ele>635.417656</ele>
        <time>2011-10-22T12:37:52Z</time>
      </trkpt>
      <trkpt lat="43.76298" lon="7.25104">
        <ele>634.417629</ele>
        <time>2011-10-22T12:37:57Z</time>
      </trkpt>
      <trkpt lat="43.76287" lon="7.25104">
        <ele>631.41761</ele>
        <time>2011-10-22T12:38:01Z</time>
      </trkpt>
      <trkpt lat="43.76277" lon="7.25105">
        <ele>627.417603</ele>
        <time>2011-10-22T12:38:05Z</time>
      </trkpt>
      <trkpt lat="43.76268" lon="7.25102">
        <ele>623.417583</ele>
        <time>2011-10-22T12:38:09Z</time>
      </trkpt>
      <trkpt lat="43.76263" lon="7.25099">
        <ele>621.417572</ele>
        <time>2011-10-22T12:38:11Z</time>
      </trkpt>
      <trkpt lat="43.76254" lon="7.25094">
        <ele>617.417549</ele>
        <time>2011-10-22T12:38:16Z</time>
      </trkpt>
      <trkpt lat="43.76251" lon="7.25092">
        <ele>615.417542</ele>
        <time>2011-10-22T12:38:18Z</time>
      </trkpt>
      <trkpt lat="43.7625" lon="7.25078">
        <ele>611.417511</ele>
        <time>2011-10-22T12:38:25Z</time>
      </trkpt>
      <trkpt lat="43.76252" lon="7.25063">
        <ele>604.41748</ele>
        <time>2011-10-22T12:38:31Z</time>
      </trkpt>
      <trkpt lat="43.76259" lon="7.25052">
        <ele>600.417465</ele>
        <time>2011-10-22T12:38:35Z</time>
      </trkpt>
      <trkpt lat="43.7626" lon="7.25049">
        <ele>599.417465</ele>
        <time>2011-10-22T12:38:36Z</time>
      </trkpt>
      <trkpt lat="43.76253" lon="7.25042">
        <ele>594.417439</ele>
        <time>2011-10-22T12:38:41Z</time>
      </trkpt>
      <trkpt lat="43.7625" lon="7.25041">
        <ele>593.417431</ele>
        <time>2011-10-22T12:38:42Z</time>
      </trkpt>
      <trkpt lat="43.76241" lon="7.25036">
        <ele>589.417412</ele>
        <time>2011-10-22T12:38:46Z</time>
      </trkpt>
      <trkpt lat="43.76236" lon="7.25023">
        <ele>583.417374</ele>
        <time>2011-10-22T12:38:52Z</time>
      </trkpt>
      <trkpt lat="43.76229" lon="7.25015">
        <ele>580.417347</ele>
        <time>2011-10-22T12:38:57Z</time>
      </trkpt>
      <trkpt lat="43.7622" lon="7.25009">
        <ele>576.41732</ele>
        <time>2011-10-22T12:39:02Z</time>
      </trkpt>
      <trkpt lat="43.76212" lon="7.25">
        <ele>571.41729</ele>
        <time>2011-10-22T12:39:08Z</time>
      </trkpt>
      <trkpt lat="43.7621" lon="7.24999">
        <ele>570.417286</ele>
        <time>2011-10-22T12:39:09Z</time>
      </trkpt>
      <trkpt lat="43.762" lon="7.24993">
        <ele>565.417259</ele>
        <time>2011-10-22T12:39:14Z</time>
      </trkpt>
      <trkpt lat="43.76196" lon="7.2499">
        <ele>563.417252</ele>
        <time>2011-10-22T12:39:16Z</time>
      </trkpt>
      <trkpt lat="43.76185" lon="7.24991">
        <ele>558.417236</ele>
        <time>2011-10-22T12:39:21Z</time>
      </trkpt>
      <trkpt lat="43.76183" lon="7.24989">
        <ele>558.417229</ele>
        <time>2011-10-22T12:39:22Z</time>
      </trkpt>
      <trkpt lat="43.76177" lon="7.2498">
        <ele>555.417198</ele>
        <time>2011-10-22T12:39:26Z</time>
      </trkpt>
      <trkpt lat="43.76174" lon="7.24967">
        <ele>552.417171</ele>
        <time>2011-10-22T12:39:30Z</time>
      </trkpt>
      <trkpt lat="43.76169" lon="7.24962">
        <ele>549.417152</ele>
        <time>2011-10-22T12:39:34Z</time>
      </trkpt>
      <trkpt lat="43.76167" lon="7.2495">
        <ele>549.417122</ele>
        <time>2011-10-22T12:39:42Z</time>
      </trkpt>
      <trkpt lat="43.76169" lon="7.24937">
        <ele>549.417099</ele>
        <time>2011-10-22T12:39:46Z</time>
      </trkpt>
      <trkpt lat="43.7617" lon="7.24933">
        <ele>549.417091</ele>
        <time>2011-10-22T12:39:47Z</time>
      </trkpt>
      <trkpt lat="43.76172" lon="7.24917">
        <ele>549.417061</ele>
        <time>2011-10-22T12:39:51Z</time>
      </trkpt>
      <trkpt lat="43.7617" lon="7.24903">
        <ele>545.41703</ele>
        <time>2011-10-22T12:39:56Z</time>
      </trkpt>
      <trkpt lat="43.76162" lon="7.24895">
        <ele>540.417</ele>
        <time>2011-10-22T12:40:00Z</time>
      </trkpt>
      <trkpt lat="43.76155" lon="7.24894">
        <ele>537.416988</ele>
        <time>2011-10-22T12:40:02Z</time>
      </trkpt>
      <trkpt lat="43.76144" lon="7.24889">
        <ele>530.416965</ele>
        <time>2011-10-22T12:40:06Z</time>
      </trkpt>
      <trkpt lat="43.76142" lon="7.24887">
        <ele>529.416954</ele>
        <time>2011-10-22T12:40:07Z</time>
      </trkpt>
      <trkpt lat="43.76139" lon="7.24871">
        <ele>525.416916</ele>
        <time>2011-10-22T12:40:11Z</time>
      </trkpt>
      <trkpt lat="43.76138" lon="7.24868">
        <ele>523.416908</ele>
        <time>2011-10-22T12:40:12Z</time>
      </trkpt>
      <trkpt lat="43.76128" lon="7.24861">
        <ele>518.416882</ele>
        <time>2011-10-22T12:40:16Z</time>
      </trkpt>
      <trkpt lat="43.76118" lon="7.24862">
        <ele>515.416874</ele>
        <time>2011-10-22T12:40:19Z</time>
      </trkpt>
      <trkpt lat="43.76115" lon="7.24863">
        <ele>513.41687</ele>
        <time>2011-10-22T12:40:20Z</time>
      </trkpt>
      <trkpt lat="43.76104" lon="7.24868">
        <ele>510.416862</ele>
        <time>2011-10-22T12:40:23Z</time>
      </trkpt>
      <trkpt lat="43.76094" lon="7.24874">
        <ele>506.416859</ele>
        <time>2011-10-22T12:40:26Z</time>
      </trkpt>
      <trkpt lat="43.76085" lon="7.24878">
        <ele>503.416859</ele>
        <time>2011-10-22T12:40:29Z</time>
      </trkpt>
      <trkpt lat="43.76075" lon="7.24882">
        <ele>500.416855</ele>
        <time>2011-10-22T12:40:32Z</time>
      </trkpt>
      <trkpt lat="43.76066" lon="7.24887">
        <ele>497.416855</ele>
        <time>2011-10-22T12:40:35Z</time>
      </trkpt>
      <trkpt lat="43.76057" lon="7.24892">
        <ele>494.416847</ele>
        <time>2011-10-22T12:40:38Z</time>
      </trkpt>
      <trkpt lat="43.76054" lon="7.24893">
        <ele>493.416847</ele>
        <time>2011-10-22T12:40:39Z</time>
      </trkpt>
      <trkpt lat="43.76042" lon="7.24896">
        <ele>491.41684</ele>
        <time>2011-10-22T12:40:43Z</time>
      </trkpt>
      <trkpt lat="43.76031" lon="7.24894">
        <ele>490.416817</ele>
        <time>2011-10-22T12:40:46Z</time>
      </trkpt>
      <trkpt lat="43.76023" lon="7.24889">
        <ele>490.416798</ele>
        <time>2011-10-22T12:40:49Z</time>
      </trkpt>
      <trkpt lat="43.76022" lon="7.24887">
        <ele>490.416786</ele>
        <time>2011-10-22T12:40:50Z</time>
      </trkpt>
      <trkpt lat="43.76016" lon="7.24873">
        <ele>489.416756</ele>
        <time>2011-10-22T12:40:55Z</time>
      </trkpt>
      <trkpt lat="43.76011" lon="7.24863">
        <ele>488.416725</ele>
        <time>2011-10-22T12:40:58Z</time>
      </trkpt>
      <trkpt lat="43.76008" lon="7.24857">
        <ele>487.41671</ele>
        <time>2011-10-22T12:40:59Z</time>
      </trkpt>
      <trkpt lat="43.76002" lon="7.24843">
        <ele>487.416668</ele>
        <time>2011-10-22T12:41:01Z</time>
      </trkpt>
      <trkpt lat="43.75997" lon="7.24829">
        <ele>487.416634</ele>
        <time>2011-10-22T12:41:03Z</time>
      </trkpt>
      <trkpt lat="43.75994" lon="7.24819">
        <ele>486.416607</ele>
        <time>2011-10-22T12:41:05Z</time>
      </trkpt>
      <trkpt lat="43.75992" lon="7.24806">
        <ele>486.41658</ele>
        <time>2011-10-22T12:41:08Z</time>
      </trkpt>
      <trkpt lat="43.75993" lon="7.24793">
        <ele>485.41655</ele>
        <time>2011-10-22T12:41:11Z</time>
      </trkpt>
      <trkpt lat="43.75994" lon="7.24777">
        <ele>483.416519</ele>
        <time>2011-10-22T12:41:15Z</time>
      </trkpt>
      <trkpt lat="43.75995" lon="7.24774">
        <ele>483.416512</ele>
        <time>2011-10-22T12:41:16Z</time>
      </trkpt>
      <trkpt lat="43.75999" lon="7.24762">
        <ele>481.416496</ele>
        <time>2011-10-22T12:41:21Z</time>
      </trkpt>
      <trkpt lat="43.75995" lon="7.24757">
        <ele>477.416477</ele>
        <time>2011-10-22T12:41:28Z</time>
      </trkpt>
      <trkpt lat="43.75983" lon="7.24757">
        <ele>464.416466</ele>
        <time>2011-10-22T12:42:04Z</time>
      </trkpt>
      <trkpt lat="43.75973" lon="7.24756">
        <ele>453.416451</ele>
        <time>2011-10-22T12:50:03Z</time>
      </trkpt>
      <trkpt lat="43.75961" lon="7.24759">
        <ele>453.416431</ele>
        <time>2011-10-22T12:50:07Z</time>
      </trkpt>
      <trkpt lat="43.75952" lon="7.24765">
        <ele>452.416435</ele>
        <time>2011-10-22T12:50:09Z</time>
      </trkpt>
      <trkpt lat="43.75945" lon="7.24775">
        <ele>452.416451</ele>
        <time>2011-10-22T12:50:11Z</time>
      </trkpt>
      <trkpt lat="43.75939" lon="7.24786">
        <ele>452.416466</ele>
        <time>2011-10-22T12:50:13Z</time>
      </trkpt>
      <trkpt lat="43.75933" lon="7.24801">
        <ele>452.416481</ele>
        <time>2011-10-22T12:50:15Z</time>
      </trkpt>
      <trkpt lat="43.7593" lon="7.24817">
        <ele>451.416515</ele>
        <time>2011-10-22T12:50:17Z</time>
      </trkpt>
      <trkpt lat="43.75928" lon="7.24833">
        <ele>451.416546</ele>
        <time>2011-10-22T12:50:19Z</time>
      </trkpt>
      <trkpt lat="43.75925" lon="7.24848">
        <ele>450.416573</ele>
        <time>2011-10-22T12:50:21Z</time>
      </trkpt>
      <trkpt lat="43.75922" lon="7.24863">
        <ele>449.416603</ele>
        <time>2011-10-22T12:50:23Z</time>
      </trkpt>
      <trkpt lat="43.75919" lon="7.24877">
        <ele>449.416626</ele>
        <time>2011-10-22T12:50:25Z</time>
      </trkpt>
      <trkpt lat="43.75915" lon="7.24889">
        <ele>449.416645</ele>
        <time>2011-10-22T12:50:27Z</time>
      </trkpt>
      <trkpt lat="43.75911" lon="7.24903">
        <ele>448.416672</ele>
        <time>2011-10-22T12:50:30Z</time>
      </trkpt>
      <trkpt lat="43.75906" lon="7.24916">
        <ele>448.416695</ele>
        <time>2011-10-22T12:50:33Z</time>
      </trkpt>
      <trkpt lat="43.75897" lon="7.24927">
        <ele>449.416702</ele>
        <time>2011-10-22T12:50:36Z</time>
      </trkpt>
      <trkpt lat="43.75885" lon="7.24936">
        <ele>449.416706</ele>
        <time>2011-10-22T12:50:39Z</time>
      </trkpt>
      <trkpt lat="43.75875" lon="7.24945">
        <ele>450.41671</ele>
        <time>2011-10-22T12:50:42Z</time>
      </trkpt>
      <trkpt lat="43.75872" lon="7.24947">
        <ele>450.41671</ele>
        <time>2011-10-22T12:50:43Z</time>
      </trkpt>
      <trkpt lat="43.75865" lon="7.24954">
        <ele>449.416718</ele>
        <time>2011-10-22T12:50:48Z</time>
      </trkpt>
      <trkpt lat="43.75858" lon="7.24964">
        <ele>449.416733</ele>
        <time>2011-10-22T12:50:58Z</time>
      </trkpt>
      <trkpt lat="43.75852" lon="7.24976">
        <ele>449.416748</ele>
        <time>2011-10-22T12:51:10Z</time>
      </trkpt>
      <trkpt lat="43.75844" lon="7.24985">
        <ele>450.416756</ele>
        <time>2011-10-22T12:51:16Z</time>
      </trkpt>
      <trkpt lat="43.75836" lon="7.24991">
        <ele>451.416756</ele>
        <time>2011-10-22T12:51:20Z</time>
      </trkpt>
      <trkpt lat="43.75831" lon="7.24993">
        <ele>451.416752</ele>
        <time>2011-10-22T12:51:22Z</time>
      </trkpt>
      <trkpt lat="43.7582" lon="7.25">
        <ele>450.416752</ele>
        <time>2011-10-22T12:51:26Z</time>
      </trkpt>
      <trkpt lat="43.75816" lon="7.25002">
        <ele>450.416756</ele>
        <time>2011-10-22T12:51:27Z</time>
      </trkpt>
      <trkpt lat="43.75805" lon="7.2501">
        <ele>450.416752</ele>
        <time>2011-10-22T12:51:30Z</time>
      </trkpt>
      <trkpt lat="43.75801" lon="7.25013">
        <ele>450.416752</ele>
        <time>2011-10-22T12:51:31Z</time>
      </trkpt>
      <trkpt lat="43.75791" lon="7.25021">
        <ele>449.416756</ele>
        <time>2011-10-22T12:51:34Z</time>
      </trkpt>
      <trkpt lat="43.75781" lon="7.25028">
        <ele>449.416756</ele>
        <time>2011-10-22T12:51:37Z</time>
      </trkpt>
      <trkpt lat="43.75772" lon="7.25033">
        <ele>449.416756</ele>
        <time>2011-10-22T12:51:40Z</time>
      </trkpt>
      <trkpt lat="43.75761" lon="7.25039">
        <ele>449.416752</ele>
        <time>2011-10-22T12:51:44Z</time>
      </trkpt>
      <trkpt lat="43.75752" lon="7.25046">
        <ele>448.416756</ele>
        <time>2011-10-22T12:51:47Z</time>
      </trkpt>
      <trkpt lat="43.7574" lon="7.25054">
        <ele>449.416756</ele>
        <time>2011-10-22T12:51:50Z</time>
      </trkpt>
      <trkpt lat="43.7573" lon="7.25063">
        <ele>449.416763</ele>
        <time>2011-10-22T12:51:53Z</time>
      </trkpt>
      <trkpt lat="43.7572" lon="7.25071">
        <ele>449.416763</ele>
        <time>2011-10-22T12:51:56Z</time>
      </trkpt>
      <trkpt lat="43.75717" lon="7.25073">
        <ele>448.416763</ele>
        <time>2011-10-22T12:51:57Z</time>
      </trkpt>
      <trkpt lat="43.75708" lon="7.2508">
        <ele>448.416771</ele>
        <time>2011-10-22T12:52:00Z</time>
      </trkpt>
      <trkpt lat="43.75699" lon="7.25087">
        <ele>448.416771</ele>
        <time>2011-10-22T12:52:03Z</time>
      </trkpt>
      <trkpt lat="43.75689" lon="7.25096">
        <ele>448.416779</ele>
        <time>2011-10-22T12:52:07Z</time>
      </trkpt>
      <trkpt lat="43.75681" lon="7.25103">
        <ele>448.416779</ele>
        <time>2011-10-22T12:52:11Z</time>
      </trkpt>
      <trkpt lat="43.75674" lon="7.25111">
        <ele>449.416786</ele>
        <time>2011-10-22T12:52:15Z</time>
      </trkpt>
      <trkpt lat="43.75666" lon="7.25121">
        <ele>449.416798</ele>
        <time>2011-10-22T12:52:20Z</time>
      </trkpt>
      <trkpt lat="43.75665" lon="7.25122">
        <ele>449.416801</ele>
        <time>2011-10-22T12:52:21Z</time>
      </trkpt>
      <trkpt lat="43.75656" lon="7.25129">
        <ele>449.416798</ele>
        <time>2011-10-22T12:52:26Z</time>
      </trkpt>
      <trkpt lat="43.75647" lon="7.25135">
        <ele>451.416801</ele>
        <time>2011-10-22T12:52:31Z</time>
      </trkpt>
      <trkpt lat="43.75638" lon="7.25139">
        <ele>451.416794</ele>
        <time>2011-10-22T12:52:35Z</time>
      </trkpt>
      <trkpt lat="43.75628" lon="7.25143">
        <ele>451.416794</ele>
        <time>2011-10-22T12:52:39Z</time>
      </trkpt>
      <trkpt lat="43.75617" lon="7.25149">
        <ele>451.41679</ele>
        <time>2011-10-22T12:52:43Z</time>
      </trkpt>
      <trkpt lat="43.75608" lon="7.25156">
        <ele>451.416794</ele>
        <time>2011-10-22T12:52:46Z</time>
      </trkpt>
      <trkpt lat="43.756" lon="7.25164">
        <ele>451.416798</ele>
        <time>2011-10-22T12:52:49Z</time>
      </trkpt>
      <trkpt lat="43.7559" lon="7.2517">
        <ele>450.416798</ele>
        <time>2011-10-22T12:52:53Z</time>
      </trkpt>
      <trkpt lat="43.7558" lon="7.25175">
        <ele>449.416794</ele>
        <time>2011-10-22T12:52:57Z</time>
      </trkpt>
      <trkpt lat="43.75569" lon="7.2518">
        <ele>449.41679</ele>
        <time>2011-10-22T12:53:01Z</time>
      </trkpt>
      <trkpt lat="43.75559" lon="7.25178">
        <ele>449.416771</ele>
        <time>2011-10-22T12:53:05Z</time>
      </trkpt>
      <trkpt lat="43.75556" lon="7.25177">
        <ele>449.416767</ele>
        <time>2011-10-22T12:53:06Z</time>
      </trkpt>
      <trkpt lat="43.75545" lon="7.25172">
        <ele>449.41674</ele>
        <time>2011-10-22T12:53:10Z</time>
      </trkpt>
      <trkpt lat="43.75534" lon="7.25164">
        <ele>451.41671</ele>
        <time>2011-10-22T12:53:17Z</time>
      </trkpt>
      <trkpt lat="43.75525" lon="7.25164">
        <ele>451.416695</ele>
        <time>2011-10-22T12:53:21Z</time>
      </trkpt>
      <trkpt lat="43.75516" lon="7.25167">
        <ele>452.416687</ele>
        <time>2011-10-22T12:53:25Z</time>
      </trkpt>
      <trkpt lat="43.75507" lon="7.25172">
        <ele>451.416687</ele>
        <time>2011-10-22T12:53:29Z</time>
      </trkpt>
      <trkpt lat="43.75498" lon="7.25175">
        <ele>451.416687</ele>
        <time>2011-10-22T12:53:33Z</time>
      </trkpt>
      <trkpt lat="43.75494" lon="7.25177">
        <ele>451.416679</ele>
        <time>2011-10-22T12:53:36Z</time>
      </trkpt>
      <trkpt lat="43.75483" lon="7.25182">
        <ele>451.416676</ele>
        <time>2011-10-22T12:53:40Z</time>
      </trkpt>
      <trkpt lat="43.75475" lon="7.25187">
        <ele>451.416676</ele>
        <time>2011-10-22T12:53:45Z</time>
      </trkpt>
      <trkpt lat="43.75466" lon="7.25193">
        <ele>452.416676</ele>
        <time>2011-10-22T12:53:50Z</time>
      </trkpt>
      <trkpt lat="43.75458" lon="7.25201">
        <ele>452.416679</ele>
        <time>2011-10-22T12:53:55Z</time>
      </trkpt>
      <trkpt lat="43.7545" lon="7.25207">
        <ele>452.416683</ele>
        <time>2011-10-22T12:54:01Z</time>
      </trkpt>
      <trkpt lat="43.75436" lon="7.25213">
        <ele>453.416672</ele>
        <time>2011-10-22T12:54:11Z</time>
      </trkpt>
      <trkpt lat="43.75427" lon="7.25214">
        <ele>451.416664</ele>
        <time>2011-10-22T12:54:17Z</time>
      </trkpt>
      <trkpt lat="43.75425" lon="7.25214">
        <ele>451.416664</ele>
        <time>2011-10-22T12:54:19Z</time>
      </trkpt>
      <trkpt lat="43.75415" lon="7.25216">
        <ele>450.416653</ele>
        <time>2011-10-22T12:54:23Z</time>
      </trkpt>
      <trkpt lat="43.75406" lon="7.25221">
        <ele>449.416649</ele>
        <time>2011-10-22T12:54:28Z</time>
      </trkpt>
      <trkpt lat="43.75396" lon="7.25227">
        <ele>450.416653</ele>
        <time>2011-10-22T12:54:33Z</time>
      </trkpt>
      <trkpt lat="43.75387" lon="7.25235">
        <ele>450.416656</ele>
        <time>2011-10-22T12:54:37Z</time>
      </trkpt>
      <trkpt lat="43.75385" lon="7.25237">
        <ele>450.416656</ele>
        <time>2011-10-22T12:54:38Z</time>
      </trkpt>
      <trkpt lat="43.75377" lon="7.25245">
        <ele>450.416664</ele>
        <time>2011-10-22T12:54:41Z</time>
      </trkpt>
      <trkpt lat="43.75371" lon="7.25253">
        <ele>450.416672</ele>
        <time>2011-10-22T12:54:44Z</time>
      </trkpt>
      <trkpt lat="43.75363" lon="7.25264">
        <ele>450.416687</ele>
        <time>2011-10-22T12:54:48Z</time>
      </trkpt>
      <trkpt lat="43.75355" lon="7.25273">
        <ele>451.416691</ele>
        <time>2011-10-22T12:54:52Z</time>
      </trkpt>
      <trkpt lat="43.75346" lon="7.2528">
        <ele>451.416695</ele>
        <time>2011-10-22T12:54:56Z</time>
      </trkpt>
      <trkpt lat="43.75344" lon="7.25281">
        <ele>452.416695</ele>
        <time>2011-10-22T12:54:57Z</time>
      </trkpt>
      <trkpt lat="43.75334" lon="7.25287">
        <ele>452.416691</ele>
        <time>2011-10-22T12:55:01Z</time>
      </trkpt>
      <trkpt lat="43.75324" lon="7.25291">
        <ele>452.416687</ele>
        <time>2011-10-22T12:55:04Z</time>
      </trkpt>
      <trkpt lat="43.75311" lon="7.2529">
        <ele>452.416672</ele>
        <time>2011-10-22T12:55:07Z</time>
      </trkpt>
      <trkpt lat="43.75302" lon="7.25289">
        <ele>452.416653</ele>
        <time>2011-10-22T12:55:09Z</time>
      </trkpt>
      <trkpt lat="43.75289" lon="7.25287">
        <ele>452.41663</ele>
        <time>2011-10-22T12:55:12Z</time>
      </trkpt>
      <trkpt lat="43.75285" lon="7.25287">
        <ele>452.416626</ele>
        <time>2011-10-22T12:55:13Z</time>
      </trkpt>
      <trkpt lat="43.75272" lon="7.25284">
        <ele>453.416603</ele>
        <time>2011-10-22T12:55:16Z</time>
      </trkpt>
      <trkpt lat="43.75269" lon="7.25283">
        <ele>453.416595</ele>
        <time>2011-10-22T12:55:17Z</time>
      </trkpt>
      <trkpt lat="43.7526" lon="7.25281">
        <ele>453.41658</ele>
        <time>2011-10-22T12:55:20Z</time>
      </trkpt>
      <trkpt lat="43.75257" lon="7.25281">
        <ele>453.416576</ele>
        <time>2011-10-22T12:55:21Z</time>
      </trkpt>
      <trkpt lat="43.75248" lon="7.25282">
        <ele>454.416565</ele>
        <time>2011-10-22T12:55:26Z</time>
      </trkpt>
      <trkpt lat="43.75237" lon="7.25281">
        <ele>456.41655</ele>
        <time>2011-10-22T12:55:31Z</time>
      </trkpt>
      <trkpt lat="43.75229" lon="7.25282">
        <ele>457.416538</ele>
        <time>2011-10-22T12:55:34Z</time>
      </trkpt>
      <trkpt lat="43.7522" lon="7.25283">
        <ele>456.416527</ele>
        <time>2011-10-22T12:55:37Z</time>
      </trkpt>
      <trkpt lat="43.75209" lon="7.25285">
        <ele>454.416519</ele>
        <time>2011-10-22T12:55:41Z</time>
      </trkpt>
      <trkpt lat="43.75199" lon="7.25291">
        <ele>450.416512</ele>
        <time>2011-10-22T12:55:46Z</time>
      </trkpt>
      <trkpt lat="43.7518" lon="7.25303">
        <ele>449.416519</ele>
        <time>2011-10-22T12:56:00Z</time>
      </trkpt>
      <trkpt lat="43.75162" lon="7.25311">
        <ele>449.416512</ele>
        <time>2011-10-22T12:56:12Z</time>
      </trkpt>
      <trkpt lat="43.75135" lon="7.25335">
        <ele>449.416519</ele>
        <time>2011-10-22T12:56:19Z</time>
      </trkpt>
      <trkpt lat="43.75113" lon="7.25358">
        <ele>446.416542</ele>
        <time>2011-10-22T12:56:25Z</time>
      </trkpt>
      <trkpt lat="43.7511" lon="7.2536">
        <ele>446.416542</ele>
        <time>2011-10-22T12:56:27Z</time>
      </trkpt>
      <trkpt lat="43.75087" lon="7.25378">
        <ele>441.41655</ele>
        <time>2011-10-22T12:56:34Z</time>
      </trkpt>
      <trkpt lat="43.75085" lon="7.2538">
        <ele>441.41655</ele>
        <time>2011-10-22T12:56:36Z</time>
      </trkpt>
      <trkpt lat="43.75076" lon="7.25389">
        <ele>440.416557</ele>
        <time>2011-10-22T12:56:38Z</time>
      </trkpt>
      <trkpt lat="43.75065" lon="7.254">
        <ele>439.416565</ele>
        <time>2011-10-22T12:56:41Z</time>
      </trkpt>
      <trkpt lat="43.75055" lon="7.2541">
        <ele>438.416573</ele>
        <time>2011-10-22T12:56:44Z</time>
      </trkpt>
      <trkpt lat="43.75047" lon="7.25415">
        <ele>438.416569</ele>
        <time>2011-10-22T12:56:47Z</time>
      </trkpt>
      <trkpt lat="43.75031" lon="7.25422">
        <ele>438.416565</ele>
        <time>2011-10-22T12:56:54Z</time>
      </trkpt>
      <trkpt lat="43.75022" lon="7.25427">
        <ele>436.416561</ele>
        <time>2011-10-22T12:57:00Z</time>
      </trkpt>
      <trkpt lat="43.75009" lon="7.2543">
        <ele>435.41655</ele>
        <time>2011-10-22T12:57:09Z</time>
      </trkpt>
      <trkpt lat="43.74981" lon="7.25425">
        <ele>433.416504</ele>
        <time>2011-10-22T12:57:27Z</time>
      </trkpt>
      <trkpt lat="43.74952" lon="7.25421">
        <ele>433.416454</ele>
        <time>2011-10-22T12:57:36Z</time>
      </trkpt>
      <trkpt lat="43.74942" lon="7.25419">
        <ele>432.416435</ele>
        <time>2011-10-22T12:57:38Z</time>
      </trkpt>
      <trkpt lat="43.74913" lon="7.25409">
        <ele>433.416374</ele>
        <time>2011-10-22T12:57:48Z</time>
      </trkpt>
      <trkpt lat="43.74903" lon="7.25404">
        <ele>432.416351</ele>
        <time>2011-10-22T12:57:52Z</time>
      </trkpt>
      <trkpt lat="43.74891" lon="7.25397">
        <ele>431.416317</ele>
        <time>2011-10-22T12:57:55Z</time>
      </trkpt>
      <trkpt lat="43.74882" lon="7.25392">
        <ele>430.416298</ele>
        <time>2011-10-22T12:57:57Z</time>
      </trkpt>
      <trkpt lat="43.74873" lon="7.25386">
        <ele>430.416271</ele>
        <time>2011-10-22T12:57:59Z</time>
      </trkpt>
      <trkpt lat="43.74863" lon="7.2538">
        <ele>430.416245</ele>
        <time>2011-10-22T12:58:01Z</time>
      </trkpt>
      <trkpt lat="43.74853" lon="7.25375">
        <ele>431.416218</ele>
        <time>2011-10-22T12:58:04Z</time>
      </trkpt>
      <trkpt lat="43.74844" lon="7.25368">
        <ele>432.416191</ele>
        <time>2011-10-22T12:58:07Z</time>
      </trkpt>
      <trkpt lat="43.74844" lon="7.25368">
        <ele>432.416191</ele>
        <time>2011-10-22T12:58:08Z</time>
      </trkpt>
      <trkpt lat="43.74824" lon="7.2536">
        <ele>428.416149</ele>
        <time>2011-10-22T12:58:13Z</time>
      </trkpt>
      <trkpt lat="43.74808" lon="7.25358">
        <ele>423.416122</ele>
        <time>2011-10-22T12:58:15Z</time>
      </trkpt>
      <trkpt lat="43.74798" lon="7.25357">
        <ele>421.416107</ele>
        <time>2011-10-22T12:58:16Z</time>
      </trkpt>
      <trkpt lat="43.74787" lon="7.25356">
        <ele>419.416092</ele>
        <time>2011-10-22T12:58:17Z</time>
      </trkpt>
      <trkpt lat="43.74776" lon="7.25355">
        <ele>418.416069</ele>
        <time>2011-10-22T12:58:18Z</time>
      </trkpt>
      <trkpt lat="43.74757" lon="7.25353">
        <ele>416.416039</ele>
        <time>2011-10-22T12:58:20Z</time>
      </trkpt>
      <trkpt lat="43.74748" lon="7.25351">
        <ele>415.416023</ele>
        <time>2011-10-22T12:58:21Z</time>
      </trkpt>
      <trkpt lat="43.74731" lon="7.25343">
        <ele>413.415981</ele>
        <time>2011-10-22T12:58:23Z</time>
      </trkpt>
      <trkpt lat="43.74716" lon="7.25331">
        <ele>411.415936</ele>
        <time>2011-10-22T12:58:25Z</time>
      </trkpt>
      <trkpt lat="43.74708" lon="7.25323">
        <ele>410.415909</ele>
        <time>2011-10-22T12:58:26Z</time>
      </trkpt>
      <trkpt lat="43.74697" lon="7.25307">
        <ele>408.415863</ele>
        <time>2011-10-22T12:58:28Z</time>
      </trkpt>
      <trkpt lat="43.74688" lon="7.25293">
        <ele>408.415817</ele>
        <time>2011-10-22T12:58:30Z</time>
      </trkpt>
      <trkpt lat="43.7468" lon="7.25283">
        <ele>407.415787</ele>
        <time>2011-10-22T12:58:32Z</time>
      </trkpt>
      <trkpt lat="43.74671" lon="7.25271">
        <ele>404.415749</ele>
        <time>2011-10-22T12:58:35Z</time>
      </trkpt>
      <trkpt lat="43.74662" lon="7.25257">
        <ele>402.415703</ele>
        <time>2011-10-22T12:58:38Z</time>
      </trkpt>
      <trkpt lat="43.74659" lon="7.25252">
        <ele>402.415691</ele>
        <time>2011-10-22T12:58:39Z</time>
      </trkpt>
      <trkpt lat="43.7465" lon="7.25242">
        <ele>401.415657</ele>
        <time>2011-10-22T12:58:42Z</time>
      </trkpt>
      <trkpt lat="43.74644" lon="7.25239">
        <ele>401.415646</ele>
        <time>2011-10-22T12:58:45Z</time>
      </trkpt>
      <trkpt lat="43.74638" lon="7.25227">
        <ele>400.415611</ele>
        <time>2011-10-22T12:58:49Z</time>
      </trkpt>
      <trkpt lat="43.7463" lon="7.25218">
        <ele>394.415581</ele>
        <time>2011-10-22T12:58:53Z</time>
      </trkpt>
      <trkpt lat="43.74624" lon="7.25217">
        <ele>390.415573</ele>
        <time>2011-10-22T12:58:58Z</time>
      </trkpt>
      <trkpt lat="43.74614" lon="7.25216">
        <ele>383.415554</ele>
        <time>2011-10-22T12:59:02Z</time>
      </trkpt>
      <trkpt lat="43.74612" lon="7.25214">
        <ele>382.415546</ele>
        <time>2011-10-22T12:59:04Z</time>
      </trkpt>
      <trkpt lat="43.74607" lon="7.25203">
        <ele>380.415516</ele>
        <time>2011-10-22T12:59:08Z</time>
      </trkpt>
      <trkpt lat="43.74605" lon="7.25198">
        <ele>381.415504</ele>
        <time>2011-10-22T12:59:09Z</time>
      </trkpt>
      <trkpt lat="43.746" lon="7.25184">
        <ele>381.415466</ele>
        <time>2011-10-22T12:59:11Z</time>
      </trkpt>
      <trkpt lat="43.74596" lon="7.25169">
        <ele>382.415428</ele>
        <time>2011-10-22T12:59:13Z</time>
      </trkpt>
      <trkpt lat="43.74592" lon="7.25153">
        <ele>381.41539</ele>
        <time>2011-10-22T12:59:16Z</time>
      </trkpt>
      <trkpt lat="43.74589" lon="7.25125">
        <ele>379.415321</ele>
        <time>2011-10-22T12:59:35Z</time>
      </trkpt>
      <trkpt lat="43.74581" lon="7.25131">
        <ele>373.415321</ele>
        <time>2011-10-22T13:00:16Z</time>
      </trkpt>
      <trkpt lat="43.7458" lon="7.25105">
        <ele>368.415268</ele>
        <time>2011-10-22T13:01:24Z</time>
      </trkpt>
      <trkpt lat="43.74558" lon="7.2508">
        <ele>370.415188</ele>
        <time>2011-10-22T13:01:36Z</time>
      </trkpt>
      <trkpt lat="43.74558" lon="7.2508">
        <ele>370.415188</ele>
        <time>2011-10-22T13:01:38Z</time>
      </trkpt>
      <trkpt lat="43.74549" lon="7.25083">
        <ele>370.41518</ele>
        <time>2011-10-22T13:01:45Z</time>
      </trkpt>
      <trkpt lat="43.74543" lon="7.25066">
        <ele>363.415138</ele>
        <time>2011-10-22T13:02:33Z</time>
      </trkpt>
      <trkpt lat="43.74542" lon="7.25051">
        <ele>361.4151</ele>
        <time>2011-10-22T13:02:38Z</time>
      </trkpt>
      <trkpt lat="43.74542" lon="7.25023">
        <ele>361.415043</ele>
        <time>2011-10-22T13:02:44Z</time>
      </trkpt>
      <trkpt lat="43.74541" lon="7.25012">
        <ele>361.415016</ele>
        <time>2011-10-22T13:02:46Z</time>
      </trkpt>
      <trkpt lat="43.74538" lon="7.24999">
        <ele>361.414986</ele>
        <time>2011-10-22T13:02:48Z</time>
      </trkpt>
      <trkpt lat="43.74529" lon="7.24982">
        <ele>360.41494</ele>
        <time>2011-10-22T13:02:54Z</time>
      </trkpt>
      <trkpt lat="43.7452" lon="7.24973">
        <ele>361.414909</ele>
        <time>2011-10-22T13:02:59Z</time>
      </trkpt>
      <trkpt lat="43.74511" lon="7.24963">
        <ele>363.414875</ele>
        <time>2011-10-22T13:03:03Z</time>
      </trkpt>
      <trkpt lat="43.74503" lon="7.24955">
        <ele>364.414848</ele>
        <time>2011-10-22T13:03:05Z</time>
      </trkpt>
      <trkpt lat="43.74493" lon="7.24945">
        <ele>364.41481</ele>
        <time>2011-10-22T13:03:08Z</time>
      </trkpt>
      <trkpt lat="43.74489" lon="7.24942">
        <ele>364.414799</ele>
        <time>2011-10-22T13:03:09Z</time>
      </trkpt>
      <trkpt lat="43.74476" lon="7.24936">
        <ele>365.414764</ele>
        <time>2011-10-22T13:03:12Z</time>
      </trkpt>
      <trkpt lat="43.74466" lon="7.24934">
        <ele>365.414753</ele>
        <time>2011-10-22T13:03:14Z</time>
      </trkpt>
      <trkpt lat="43.74466" lon="7.24934">
        <ele>365.414753</ele>
        <time>2011-10-22T13:03:15Z</time>
      </trkpt>
      <trkpt lat="43.74454" lon="7.24932">
        <ele>365.414726</ele>
        <time>2011-10-22T13:03:17Z</time>
      </trkpt>
      <trkpt lat="43.74445" lon="7.24931">
        <ele>365.414719</ele>
        <time>2011-10-22T13:03:19Z</time>
      </trkpt>
      <trkpt lat="43.74442" lon="7.24931">
        <ele>365.414711</ele>
        <time>2011-10-22T13:03:20Z</time>
      </trkpt>
      <trkpt lat="43.7443" lon="7.2493">
        <ele>366.414696</ele>
        <time>2011-10-22T13:03:23Z</time>
      </trkpt>
      <trkpt lat="43.7442" lon="7.24929">
        <ele>366.41468</ele>
        <time>2011-10-22T13:03:25Z</time>
      </trkpt>
      <trkpt lat="43.74409" lon="7.24928">
        <ele>367.414658</ele>
        <time>2011-10-22T13:03:28Z</time>
      </trkpt>
      <trkpt lat="43.744" lon="7.24927">
        <ele>368.414642</ele>
        <time>2011-10-22T13:03:31Z</time>
      </trkpt>
      <trkpt lat="43.74396" lon="7.24926">
        <ele>368.414639</ele>
        <time>2011-10-22T13:03:32Z</time>
      </trkpt>
      <trkpt lat="43.74385" lon="7.24925">
        <ele>369.414616</ele>
        <time>2011-10-22T13:03:35Z</time>
      </trkpt>
      <trkpt lat="43.74369" lon="7.24928">
        <ele>368.414604</ele>
        <time>2011-10-22T13:03:40Z</time>
      </trkpt>
      <trkpt lat="43.74357" lon="7.24934">
        <ele>367.414597</ele>
        <time>2011-10-22T13:03:43Z</time>
      </trkpt>
      <trkpt lat="43.74348" lon="7.24939">
        <ele>367.414597</ele>
        <time>2011-10-22T13:03:45Z</time>
      </trkpt>
      <trkpt lat="43.74343" lon="7.24943">
        <ele>366.4146</ele>
        <time>2011-10-22T13:03:46Z</time>
      </trkpt>
      <trkpt lat="43.74334" lon="7.24952">
        <ele>366.414608</ele>
        <time>2011-10-22T13:03:48Z</time>
      </trkpt>
      <trkpt lat="43.74328" lon="7.24965">
        <ele>366.414623</ele>
        <time>2011-10-22T13:03:50Z</time>
      </trkpt>
      <trkpt lat="43.74323" lon="7.2498">
        <ele>367.41465</ele>
        <time>2011-10-22T13:03:52Z</time>
      </trkpt>
      <trkpt lat="43.74318" lon="7.24996">
        <ele>368.414677</ele>
        <time>2011-10-22T13:03:54Z</time>
      </trkpt>
      <trkpt lat="43.74314" lon="7.25017">
        <ele>369.414719</ele>
        <time>2011-10-22T13:03:56Z</time>
      </trkpt>
      <trkpt lat="43.74312" lon="7.25029">
        <ele>369.414742</ele>
        <time>2011-10-22T13:03:57Z</time>
      </trkpt>
      <trkpt lat="43.74309" lon="7.25042">
        <ele>369.414764</ele>
        <time>2011-10-22T13:03:58Z</time>
      </trkpt>
      <trkpt lat="43.74305" lon="7.25056">
        <ele>368.414787</ele>
        <time>2011-10-22T13:03:59Z</time>
      </trkpt>
      <trkpt lat="43.74301" lon="7.25067">
        <ele>367.41481</ele>
        <time>2011-10-22T13:04:00Z</time>
      </trkpt>
      <trkpt lat="43.74289" lon="7.25082">
        <ele>366.414825</ele>
        <time>2011-10-22T13:04:02Z</time>
      </trkpt>
      <trkpt lat="43.74283" lon="7.25085">
        <ele>365.414825</ele>
        <time>2011-10-22T13:04:03Z</time>
      </trkpt>
      <trkpt lat="43.74268" lon="7.25087">
        <ele>364.414806</ele>
        <time>2011-10-22T13:04:05Z</time>
      </trkpt>
      <trkpt lat="43.74253" lon="7.25088">
        <ele>363.414787</ele>
        <time>2011-10-22T13:04:07Z</time>
      </trkpt>
      <trkpt lat="43.74237" lon="7.25087">
        <ele>361.414764</ele>
        <time>2011-10-22T13:04:09Z</time>
      </trkpt>
      <trkpt lat="43.74221" lon="7.25087">
        <ele>360.414742</ele>
        <time>2011-10-22T13:04:11Z</time>
      </trkpt>
      <trkpt lat="43.74213" lon="7.25086">
        <ele>359.414726</ele>
        <time>2011-10-22T13:04:12Z</time>
      </trkpt>
      <trkpt lat="43.74197" lon="7.25085">
        <ele>358.414696</ele>
        <time>2011-10-22T13:04:14Z</time>
      </trkpt>
      <trkpt lat="43.7418" lon="7.25084">
        <ele>355.414677</ele>
        <time>2011-10-22T13:04:16Z</time>
      </trkpt>
      <trkpt lat="43.74164" lon="7.25085">
        <ele>354.414654</ele>
        <time>2011-10-22T13:04:18Z</time>
      </trkpt>
      <trkpt lat="43.74148" lon="7.2509">
        <ele>352.414642</ele>
        <time>2011-10-22T13:04:20Z</time>
      </trkpt>
      <trkpt lat="43.74132" lon="7.25096">
        <ele>350.414635</ele>
        <time>2011-10-22T13:04:22Z</time>
      </trkpt>
      <trkpt lat="43.74123" lon="7.25097">
        <ele>350.414627</ele>
        <time>2011-10-22T13:04:23Z</time>
      </trkpt>
      <trkpt lat="43.74105" lon="7.25098">
        <ele>349.414604</ele>
        <time>2011-10-22T13:04:25Z</time>
      </trkpt>
      <trkpt lat="43.74087" lon="7.25099">
        <ele>348.414581</ele>
        <time>2011-10-22T13:04:27Z</time>
      </trkpt>
      <trkpt lat="43.7407" lon="7.251">
        <ele>347.414558</ele>
        <time>2011-10-22T13:04:29Z</time>
      </trkpt>
      <trkpt lat="43.74052" lon="7.25101">
        <ele>346.414536</ele>
        <time>2011-10-22T13:04:31Z</time>
      </trkpt>
      <trkpt lat="43.74043" lon="7.25103">
        <ele>345.414528</ele>
        <time>2011-10-22T13:04:32Z</time>
      </trkpt>
      <trkpt lat="43.74027" lon="7.25106">
        <ele>343.414516</ele>
        <time>2011-10-22T13:04:34Z</time>
      </trkpt>
      <trkpt lat="43.7401" lon="7.25111">
        <ele>341.414501</ele>
        <time>2011-10-22T13:04:36Z</time>
      </trkpt>
      <trkpt lat="43.73993" lon="7.25117">
        <ele>340.41449</ele>
        <time>2011-10-22T13:04:38Z</time>
      </trkpt>
      <trkpt lat="43.73985" lon="7.2512">
        <ele>339.414482</ele>
        <time>2011-10-22T13:04:39Z</time>
      </trkpt>
      <trkpt lat="43.73969" lon="7.25126">
        <ele>338.414474</ele>
        <time>2011-10-22T13:04:41Z</time>
      </trkpt>
      <trkpt lat="43.73954" lon="7.25132">
        <ele>337.414467</ele>
        <time>2011-10-22T13:04:43Z</time>
      </trkpt>
      <trkpt lat="43.73938" lon="7.25139">
        <ele>336.414459</ele>
        <time>2011-10-22T13:04:45Z</time>
      </trkpt>
      <trkpt lat="43.7393" lon="7.25142">
        <ele>336.414455</ele>
        <time>2011-10-22T13:04:46Z</time>
      </trkpt>
      <trkpt lat="43.73915" lon="7.25146">
        <ele>334.414444</ele>
        <time>2011-10-22T13:04:48Z</time>
      </trkpt>
      <trkpt lat="43.73899" lon="7.2515">
        <ele>334.414429</ele>
        <time>2011-10-22T13:04:50Z</time>
      </trkpt>
      <trkpt lat="43.73883" lon="7.25153">
        <ele>334.414413</ele>
        <time>2011-10-22T13:04:52Z</time>
      </trkpt>
      <trkpt lat="43.73872" lon="7.25166">
        <ele>333.414429</ele>
        <time>2011-10-22T13:04:54Z</time>
      </trkpt>
      <trkpt lat="43.73865" lon="7.25181">
        <ele>332.414444</ele>
        <time>2011-10-22T13:04:56Z</time>
      </trkpt>
      <trkpt lat="43.73863" lon="7.25204">
        <ele>332.414497</ele>
        <time>2011-10-22T13:04:58Z</time>
      </trkpt>
      <trkpt lat="43.7386" lon="7.25229">
        <ele>331.414547</ele>
        <time>2011-10-22T13:05:00Z</time>
      </trkpt>
      <trkpt lat="43.73857" lon="7.2524">
        <ele>330.414566</ele>
        <time>2011-10-22T13:05:01Z</time>
      </trkpt>
      <trkpt lat="43.73848" lon="7.25253">
        <ele>329.414581</ele>
        <time>2011-10-22T13:05:03Z</time>
      </trkpt>
      <trkpt lat="43.73844" lon="7.25255">
        <ele>327.414574</ele>
        <time>2011-10-22T13:05:08Z</time>
      </trkpt>
      <trkpt lat="43.73853" lon="7.25265">
        <ele>322.414612</ele>
        <time>2011-10-22T13:05:32Z</time>
      </trkpt>
      <trkpt lat="43.73861" lon="7.25285">
        <ele>305.414665</ele>
        <time>2011-10-22T13:09:12Z</time>
      </trkpt>
      <trkpt lat="43.73859" lon="7.25283">
        <ele>306.414658</ele>
        <time>2011-10-22T13:09:25Z</time>
      </trkpt>
      <trkpt lat="43.7385" lon="7.25282">
        <ele>312.414642</ele>
        <time>2011-10-22T13:10:49Z</time>
      </trkpt>
      <trkpt lat="43.7384" lon="7.25283">
        <ele>309.414635</ele>
        <time>2011-10-22T13:11:10Z</time>
      </trkpt>
      <trkpt lat="43.73831" lon="7.25287">
        <ele>310.414627</ele>
        <time>2011-10-22T13:11:14Z</time>
      </trkpt>
      <trkpt lat="43.73827" lon="7.25289">
        <ele>310.414627</ele>
        <time>2011-10-22T13:11:16Z</time>
      </trkpt>
      <trkpt lat="43.73815" lon="7.25293">
        <ele>312.414619</ele>
        <time>2011-10-22T13:11:20Z</time>
      </trkpt>
      <trkpt lat="43.73811" lon="7.25294">
        <ele>313.414616</ele>
        <time>2011-10-22T13:11:21Z</time>
      </trkpt>
      <trkpt lat="43.738" lon="7.25298">
        <ele>314.414612</ele>
        <time>2011-10-22T13:11:23Z</time>
      </trkpt>
      <trkpt lat="43.73791" lon="7.25304">
        <ele>315.414612</ele>
        <time>2011-10-22T13:11:25Z</time>
      </trkpt>
      <trkpt lat="43.73782" lon="7.25311">
        <ele>315.414612</ele>
        <time>2011-10-22T13:11:27Z</time>
      </trkpt>
      <trkpt lat="43.73773" lon="7.25317">
        <ele>316.414612</ele>
        <time>2011-10-22T13:11:29Z</time>
      </trkpt>
      <trkpt lat="43.73764" lon="7.25326">
        <ele>317.414619</ele>
        <time>2011-10-22T13:11:32Z</time>
      </trkpt>
      <trkpt lat="43.73757" lon="7.25335">
        <ele>319.414635</ele>
        <time>2011-10-22T13:11:36Z</time>
      </trkpt>
      <trkpt lat="43.73759" lon="7.25362">
        <ele>324.414688</ele>
        <time>2011-10-22T13:11:44Z</time>
      </trkpt>
      <trkpt lat="43.73765" lon="7.25375">
        <ele>325.414726</ele>
        <time>2011-10-22T13:11:47Z</time>
      </trkpt>
      <trkpt lat="43.73777" lon="7.254">
        <ele>326.414795</ele>
        <time>2011-10-22T13:11:54Z</time>
      </trkpt>
      <trkpt lat="43.73789" lon="7.25414">
        <ele>330.414845</ele>
        <time>2011-10-22T13:12:02Z</time>
      </trkpt>
      <trkpt lat="43.73798" lon="7.25427">
        <ele>333.414886</ele>
        <time>2011-10-22T13:12:10Z</time>
      </trkpt>
      <trkpt lat="43.73807" lon="7.25437">
        <ele>337.414917</ele>
        <time>2011-10-22T13:12:15Z</time>
      </trkpt>
      <trkpt lat="43.73817" lon="7.25446">
        <ele>339.414944</ele>
        <time>2011-10-22T13:12:19Z</time>
      </trkpt>
      <trkpt lat="43.73826" lon="7.25453">
        <ele>341.414978</ele>
        <time>2011-10-22T13:12:23Z</time>
      </trkpt>
      <trkpt lat="43.73838" lon="7.25458">
        <ele>342.415001</ele>
        <time>2011-10-22T13:12:27Z</time>
      </trkpt>
      <trkpt lat="43.73871" lon="7.25473">
        <ele>345.415085</ele>
        <time>2011-10-22T13:12:36Z</time>
      </trkpt>
      <trkpt lat="43.73881" lon="7.2548">
        <ele>346.415108</ele>
        <time>2011-10-22T13:12:39Z</time>
      </trkpt>
      <trkpt lat="43.73889" lon="7.25488">
        <ele>347.415138</ele>
        <time>2011-10-22T13:12:42Z</time>
      </trkpt>
      <trkpt lat="43.73899" lon="7.25498">
        <ele>349.415176</ele>
        <time>2011-10-22T13:12:46Z</time>
      </trkpt>
      <trkpt lat="43.73907" lon="7.25506">
        <ele>349.415199</ele>
        <time>2011-10-22T13:12:49Z</time>
      </trkpt>
      <trkpt lat="43.7392" lon="7.25518">
        <ele>350.415241</ele>
        <time>2011-10-22T13:12:55Z</time>
      </trkpt>
      <trkpt lat="43.73928" lon="7.25525">
        <ele>350.415268</ele>
        <time>2011-10-22T13:12:59Z</time>
      </trkpt>
      <trkpt lat="43.73936" lon="7.25535">
        <ele>353.415306</ele>
        <time>2011-10-22T13:13:03Z</time>
      </trkpt>
      <trkpt lat="43.73947" lon="7.2556">
        <ele>354.415367</ele>
        <time>2011-10-22T13:13:10Z</time>
      </trkpt>
      <trkpt lat="43.73953" lon="7.25571">
        <ele>351.415401</ele>
        <time>2011-10-22T13:13:13Z</time>
      </trkpt>
      <trkpt lat="43.73955" lon="7.25574">
        <ele>350.415413</ele>
        <time>2011-10-22T13:13:14Z</time>
      </trkpt>
      <trkpt lat="43.73964" lon="7.25594">
        <ele>346.415466</ele>
        <time>2011-10-22T13:13:21Z</time>
      </trkpt>
      <trkpt lat="43.73967" lon="7.25606">
        <ele>345.415497</ele>
        <time>2011-10-22T13:13:26Z</time>
      </trkpt>
      <trkpt lat="43.73967" lon="7.25624">
        <ele>346.415535</ele>
        <time>2011-10-22T13:13:32Z</time>
      </trkpt>
      <trkpt lat="43.73967" lon="7.25637">
        <ele>347.415565</ele>
        <time>2011-10-22T13:13:36Z</time>
      </trkpt>
      <trkpt lat="43.73967" lon="7.25653">
        <ele>348.415596</ele>
        <time>2011-10-22T13:13:40Z</time>
      </trkpt>
      <trkpt lat="43.73968" lon="7.25666">
        <ele>349.415627</ele>
        <time>2011-10-22T13:13:43Z</time>
      </trkpt>
      <trkpt lat="43.73972" lon="7.25682">
        <ele>350.415665</ele>
        <time>2011-10-22T13:13:47Z</time>
      </trkpt>
      <trkpt lat="43.73976" lon="7.25691">
        <ele>350.415688</ele>
        <time>2011-10-22T13:13:49Z</time>
      </trkpt>
      <trkpt lat="43.73982" lon="7.25706">
        <ele>350.41573</ele>
        <time>2011-10-22T13:13:52Z</time>
      </trkpt>
      <trkpt lat="43.73986" lon="7.25718">
        <ele>350.415756</ele>
        <time>2011-10-22T13:13:55Z</time>
      </trkpt>
      <trkpt lat="43.73987" lon="7.25722">
        <ele>350.415771</ele>
        <time>2011-10-22T13:13:56Z</time>
      </trkpt>
      <trkpt lat="43.73992" lon="7.25737">
        <ele>349.41581</ele>
        <time>2011-10-22T13:14:00Z</time>
      </trkpt>
      <trkpt lat="43.73995" lon="7.25743">
        <ele>349.415825</ele>
        <time>2011-10-22T13:14:04Z</time>
      </trkpt>
      <trkpt lat="43.74001" lon="7.25755">
        <ele>349.415855</ele>
        <time>2011-10-22T13:14:06Z</time>
      </trkpt>
      <trkpt lat="43.74002" lon="7.25758">
        <ele>349.415863</ele>
        <time>2011-10-22T13:14:07Z</time>
      </trkpt>
      <trkpt lat="43.74007" lon="7.2577">
        <ele>350.415897</ele>
        <time>2011-10-22T13:14:11Z</time>
      </trkpt>
      <trkpt lat="43.74007" lon="7.25773">
        <ele>350.415905</ele>
        <time>2011-10-22T13:14:12Z</time>
      </trkpt>
      <trkpt lat="43.74011" lon="7.25787">
        <ele>351.415947</ele>
        <time>2011-10-22T13:14:16Z</time>
      </trkpt>
      <trkpt lat="43.74015" lon="7.25795">
        <ele>351.415962</ele>
        <time>2011-10-22T13:14:18Z</time>
      </trkpt>
      <trkpt lat="43.74022" lon="7.25807">
        <ele>351.416</ele>
        <time>2011-10-22T13:14:22Z</time>
      </trkpt>
      <trkpt lat="43.74027" lon="7.25815">
        <ele>352.416023</ele>
        <time>2011-10-22T13:14:25Z</time>
      </trkpt>
      <trkpt lat="43.74035" lon="7.25826">
        <ele>352.416058</ele>
        <time>2011-10-22T13:14:29Z</time>
      </trkpt>
      <trkpt lat="43.74048" lon="7.25841">
        <ele>353.416107</ele>
        <time>2011-10-22T13:14:35Z</time>
      </trkpt>
      <trkpt lat="43.74057" lon="7.25851">
        <ele>354.416138</ele>
        <time>2011-10-22T13:14:38Z</time>
      </trkpt>
      <trkpt lat="43.74063" lon="7.25858">
        <ele>354.416161</ele>
        <time>2011-10-22T13:14:40Z</time>
      </trkpt>
      <trkpt lat="43.74073" lon="7.25868">
        <ele>353.416203</ele>
        <time>2011-10-22T13:14:43Z</time>
      </trkpt>
      <trkpt lat="43.74077" lon="7.25872">
        <ele>353.416214</ele>
        <time>2011-10-22T13:14:44Z</time>
      </trkpt>
      <trkpt lat="43.74086" lon="7.25881">
        <ele>354.416245</ele>
        <time>2011-10-22T13:14:47Z</time>
      </trkpt>
      <trkpt lat="43.74094" lon="7.25889">
        <ele>355.416275</ele>
        <time>2011-10-22T13:14:50Z</time>
      </trkpt>
      <trkpt lat="43.74103" lon="7.25897">
        <ele>357.416302</ele>
        <time>2011-10-22T13:14:53Z</time>
      </trkpt>
      <trkpt lat="43.74111" lon="7.25905">
        <ele>359.416328</ele>
        <time>2011-10-22T13:14:56Z</time>
      </trkpt>
      <trkpt lat="43.74117" lon="7.2591">
        <ele>359.416351</ele>
        <time>2011-10-22T13:14:58Z</time>
      </trkpt>
      <trkpt lat="43.74126" lon="7.25919">
        <ele>360.416382</ele>
        <time>2011-10-22T13:15:01Z</time>
      </trkpt>
      <trkpt lat="43.74138" lon="7.25929">
        <ele>362.416416</ele>
        <time>2011-10-22T13:15:04Z</time>
      </trkpt>
      <trkpt lat="43.74146" lon="7.25935">
        <ele>363.416443</ele>
        <time>2011-10-22T13:15:06Z</time>
      </trkpt>
      <trkpt lat="43.74155" lon="7.2594">
        <ele>363.416462</ele>
        <time>2011-10-22T13:15:08Z</time>
      </trkpt>
      <trkpt lat="43.74165" lon="7.25944">
        <ele>364.416489</ele>
        <time>2011-10-22T13:15:10Z</time>
      </trkpt>
      <trkpt lat="43.74175" lon="7.25949">
        <ele>365.416512</ele>
        <time>2011-10-22T13:15:12Z</time>
      </trkpt>
      <trkpt lat="43.74184" lon="7.25954">
        <ele>365.416534</ele>
        <time>2011-10-22T13:15:14Z</time>
      </trkpt>
      <trkpt lat="43.74193" lon="7.25959">
        <ele>365.416553</ele>
        <time>2011-10-22T13:15:16Z</time>
      </trkpt>
      <trkpt lat="43.74203" lon="7.25965">
        <ele>366.416588</ele>
        <time>2011-10-22T13:15:19Z</time>
      </trkpt>
      <trkpt lat="43.74208" lon="7.2597">
        <ele>366.416603</ele>
        <time>2011-10-22T13:15:21Z</time>
      </trkpt>
      <trkpt lat="43.74216" lon="7.25982">
        <ele>366.416634</ele>
        <time>2011-10-22T13:15:25Z</time>
      </trkpt>
      <trkpt lat="43.74223" lon="7.25994">
        <ele>367.416672</ele>
        <time>2011-10-22T13:15:29Z</time>
      </trkpt>
      <trkpt lat="43.74225" lon="7.25997">
        <ele>367.416679</ele>
        <time>2011-10-22T13:15:30Z</time>
      </trkpt>
      <trkpt lat="43.74229" lon="7.26009">
        <ele>368.416718</ele>
        <time>2011-10-22T13:15:34Z</time>
      </trkpt>
      <trkpt lat="43.74234" lon="7.26023">
        <ele>368.416748</ele>
        <time>2011-10-22T13:15:37Z</time>
      </trkpt>
      <trkpt lat="43.74237" lon="7.26035">
        <ele>367.416779</ele>
        <time>2011-10-22T13:15:39Z</time>
      </trkpt>
      <trkpt lat="43.7424" lon="7.26047">
        <ele>366.416809</ele>
        <time>2011-10-22T13:15:41Z</time>
      </trkpt>
      <trkpt lat="43.74243" lon="7.2606">
        <ele>365.416843</ele>
        <time>2011-10-22T13:15:43Z</time>
      </trkpt>
      <trkpt lat="43.74246" lon="7.26072">
        <ele>364.41687</ele>
        <time>2011-10-22T13:15:45Z</time>
      </trkpt>
      <trkpt lat="43.74251" lon="7.26088">
        <ele>363.416912</ele>
        <time>2011-10-22T13:15:48Z</time>
      </trkpt>
      <trkpt lat="43.74255" lon="7.26103">
        <ele>363.416946</ele>
        <time>2011-10-22T13:15:51Z</time>
      </trkpt>
      <trkpt lat="43.7426" lon="7.26117">
        <ele>363.416985</ele>
        <time>2011-10-22T13:15:54Z</time>
      </trkpt>
      <trkpt lat="43.74263" lon="7.26132">
        <ele>364.417023</ele>
        <time>2011-10-22T13:15:57Z</time>
      </trkpt>
      <trkpt lat="43.74264" lon="7.26137">
        <ele>364.417034</ele>
        <time>2011-10-22T13:15:58Z</time>
      </trkpt>
      <trkpt lat="43.74267" lon="7.26152">
        <ele>363.417068</ele>
        <time>2011-10-22T13:16:01Z</time>
      </trkpt>
      <trkpt lat="43.74271" lon="7.26164">
        <ele>363.417099</ele>
        <time>2011-10-22T13:16:03Z</time>
      </trkpt>
      <trkpt lat="43.74275" lon="7.26176">
        <ele>362.41713</ele>
        <time>2011-10-22T13:16:05Z</time>
      </trkpt>
      <trkpt lat="43.74281" lon="7.26189">
        <ele>362.417168</ele>
        <time>2011-10-22T13:16:07Z</time>
      </trkpt>
      <trkpt lat="43.74287" lon="7.26204">
        <ele>361.417206</ele>
        <time>2011-10-22T13:16:09Z</time>
      </trkpt>
      <trkpt lat="43.74294" lon="7.26217">
        <ele>360.417248</ele>
        <time>2011-10-22T13:16:11Z</time>
      </trkpt>
      <trkpt lat="43.74297" lon="7.26224">
        <ele>360.417263</ele>
        <time>2011-10-22T13:16:12Z</time>
      </trkpt>
      <trkpt lat="43.74305" lon="7.26237">
        <ele>360.417301</ele>
        <time>2011-10-22T13:16:14Z</time>
      </trkpt>
      <trkpt lat="43.74312" lon="7.26249">
        <ele>359.417336</ele>
        <time>2011-10-22T13:16:16Z</time>
      </trkpt>
      <trkpt lat="43.74319" lon="7.26263">
        <ele>358.417377</ele>
        <time>2011-10-22T13:16:18Z</time>
      </trkpt>
      <trkpt lat="43.74327" lon="7.26278">
        <ele>357.417419</ele>
        <time>2011-10-22T13:16:20Z</time>
      </trkpt>
      <trkpt lat="43.74331" lon="7.26292">
        <ele>356.41745</ele>
        <time>2011-10-22T13:16:22Z</time>
      </trkpt>
      <trkpt lat="43.74328" lon="7.26305">
        <ele>357.41748</ele>
        <time>2011-10-22T13:16:25Z</time>
      </trkpt>
      <trkpt lat="43.74331" lon="7.2632">
        <ele>358.417519</ele>
        <time>2011-10-22T13:16:28Z</time>
      </trkpt>
      <trkpt lat="43.74335" lon="7.26326">
        <ele>358.417534</ele>
        <time>2011-10-22T13:16:29Z</time>
      </trkpt>
      <trkpt lat="43.74344" lon="7.26335">
        <ele>359.417564</ele>
        <time>2011-10-22T13:16:31Z</time>
      </trkpt>
      <trkpt lat="43.74356" lon="7.2634">
        <ele>360.417591</ele>
        <time>2011-10-22T13:16:33Z</time>
      </trkpt>
      <trkpt lat="43.74365" lon="7.26344">
        <ele>361.417618</ele>
        <time>2011-10-22T13:16:35Z</time>
      </trkpt>
      <trkpt lat="43.74373" lon="7.26349">
        <ele>361.417633</ele>
        <time>2011-10-22T13:16:40Z</time>
      </trkpt>
      <trkpt lat="43.74383" lon="7.26358">
        <ele>358.417671</ele>
        <time>2011-10-22T13:16:43Z</time>
      </trkpt>
      <trkpt lat="43.74391" lon="7.26368">
        <ele>352.417702</ele>
        <time>2011-10-22T13:16:57Z</time>
      </trkpt>
      <trkpt lat="43.74399" lon="7.26373">
        <ele>340.417725</ele>
        <time>2011-10-22T13:17:43Z</time>
      </trkpt>
      <trkpt lat="43.74391" lon="7.26364">
        <ele>342.417694</ele>
        <time>2011-10-22T13:21:15Z</time>
      </trkpt>
      <trkpt lat="43.74385" lon="7.26352">
        <ele>342.417656</ele>
        <time>2011-10-22T13:21:28Z</time>
      </trkpt>
      <trkpt lat="43.74373" lon="7.2635">
        <ele>341.417637</ele>
        <time>2011-10-22T13:21:32Z</time>
      </trkpt>
      <trkpt lat="43.74369" lon="7.26351">
        <ele>341.417633</ele>
        <time>2011-10-22T13:21:33Z</time>
      </trkpt>
      <trkpt lat="43.74359" lon="7.26355">
        <ele>341.417625</ele>
        <time>2011-10-22T13:21:36Z</time>
      </trkpt>
      <trkpt lat="43.74352" lon="7.26366">
        <ele>341.417641</ele>
        <time>2011-10-22T13:21:39Z</time>
      </trkpt>
      <trkpt lat="43.74349" lon="7.26382">
        <ele>341.417671</ele>
        <time>2011-10-22T13:21:42Z</time>
      </trkpt>
      <trkpt lat="43.74351" lon="7.26398">
        <ele>341.417709</ele>
        <time>2011-10-22T13:21:44Z</time>
      </trkpt>
      <trkpt lat="43.74358" lon="7.26418">
        <ele>341.417759</ele>
        <time>2011-10-22T13:21:46Z</time>
      </trkpt>
      <trkpt lat="43.74367" lon="7.26438">
        <ele>341.417816</ele>
        <time>2011-10-22T13:21:48Z</time>
      </trkpt>
      <trkpt lat="43.74374" lon="7.26458">
        <ele>341.417866</ele>
        <time>2011-10-22T13:21:50Z</time>
      </trkpt>
      <trkpt lat="43.74379" lon="7.26477">
        <ele>342.417915</ele>
        <time>2011-10-22T13:21:52Z</time>
      </trkpt>
      <trkpt lat="43.7438" lon="7.26497">
        <ele>341.417953</ele>
        <time>2011-10-22T13:21:54Z</time>
      </trkpt>
      <trkpt lat="43.74381" lon="7.26519">
        <ele>341.418007</ele>
        <time>2011-10-22T13:21:56Z</time>
      </trkpt>
      <trkpt lat="43.74384" lon="7.26542">
        <ele>341.41806</ele>
        <time>2011-10-22T13:21:58Z</time>
      </trkpt>
      <trkpt lat="43.74387" lon="7.26564">
        <ele>341.418114</ele>
        <time>2011-10-22T13:22:00Z</time>
      </trkpt>
      <trkpt lat="43.74391" lon="7.26586">
        <ele>341.418159</ele>
        <time>2011-10-22T13:22:02Z</time>
      </trkpt>
      <trkpt lat="43.74396" lon="7.26608">
        <ele>341.418217</ele>
        <time>2011-10-22T13:22:04Z</time>
      </trkpt>
      <trkpt lat="43.74398" lon="7.26625">
        <ele>341.418255</ele>
        <time>2011-10-22T13:22:05Z</time>
      </trkpt>
      <trkpt lat="43.74401" lon="7.26639">
        <ele>341.418289</ele>
        <time>2011-10-22T13:22:06Z</time>
      </trkpt>
      <trkpt lat="43.74404" lon="7.26654">
        <ele>341.41832</ele>
        <time>2011-10-22T13:22:07Z</time>
      </trkpt>
      <trkpt lat="43.74407" lon="7.26668">
        <ele>341.418362</ele>
        <time>2011-10-22T13:22:08Z</time>
      </trkpt>
      <trkpt lat="43.7441" lon="7.26683">
        <ele>341.418396</ele>
        <time>2011-10-22T13:22:09Z</time>
      </trkpt>
      <trkpt lat="43.74414" lon="7.26696">
        <ele>341.418427</ele>
        <time>2011-10-22T13:22:10Z</time>
      </trkpt>
      <trkpt lat="43.74418" lon="7.2671">
        <ele>341.418461</ele>
        <time>2011-10-22T13:22:11Z</time>
      </trkpt>
      <trkpt lat="43.74422" lon="7.26723">
        <ele>341.418495</ele>
        <time>2011-10-22T13:22:12Z</time>
      </trkpt>
      <trkpt lat="43.74427" lon="7.26735">
        <ele>341.418533</ele>
        <time>2011-10-22T13:22:13Z</time>
      </trkpt>
      <trkpt lat="43.7443" lon="7.26748">
        <ele>341.41856</ele>
        <time>2011-10-22T13:22:14Z</time>
      </trkpt>
      <trkpt lat="43.74434" lon="7.26761">
        <ele>341.418594</ele>
        <time>2011-10-22T13:22:15Z</time>
      </trkpt>
      <trkpt lat="43.74436" lon="7.26774">
        <ele>341.418625</ele>
        <time>2011-10-22T13:22:16Z</time>
      </trkpt>
      <trkpt lat="43.74436" lon="7.26789">
        <ele>341.418655</ele>
        <time>2011-10-22T13:22:17Z</time>
      </trkpt>
      <trkpt lat="43.74437" lon="7.26803">
        <ele>341.418686</ele>
        <time>2011-10-22T13:22:18Z</time>
      </trkpt>
      <trkpt lat="43.74433" lon="7.26821">
        <ele>341.418716</ele>
        <time>2011-10-22T13:22:19Z</time>
      </trkpt>
      <trkpt lat="43.74434" lon="7.26836">
        <ele>341.418755</ele>
        <time>2011-10-22T13:22:20Z</time>
      </trkpt>
      <trkpt lat="43.74427" lon="7.26851">
        <ele>342.418774</ele>
        <time>2011-10-22T13:22:21Z</time>
      </trkpt>
      <trkpt lat="43.74424" lon="7.26866">
        <ele>342.4188</ele>
        <time>2011-10-22T13:22:22Z</time>
      </trkpt>
      <trkpt lat="43.7442" lon="7.26881">
        <ele>342.418831</ele>
        <time>2011-10-22T13:22:23Z</time>
      </trkpt>
      <trkpt lat="43.74417" lon="7.26896">
        <ele>342.418861</ele>
        <time>2011-10-22T13:22:24Z</time>
      </trkpt>
      <trkpt lat="43.74414" lon="7.26912">
        <ele>342.418888</ele>
        <time>2011-10-22T13:22:25Z</time>
      </trkpt>
      <trkpt lat="43.74411" lon="7.26927">
        <ele>342.418915</ele>
        <time>2011-10-22T13:22:26Z</time>
      </trkpt>
      <trkpt lat="43.74409" lon="7.26942">
        <ele>342.418945</ele>
        <time>2011-10-22T13:22:27Z</time>
      </trkpt>
      <trkpt lat="43.74406" lon="7.26957">
        <ele>342.418976</ele>
        <time>2011-10-22T13:22:28Z</time>
      </trkpt>
      <trkpt lat="43.74405" lon="7.26973">
        <ele>342.419003</ele>
        <time>2011-10-22T13:22:29Z</time>
      </trkpt>
      <trkpt lat="43.74403" lon="7.26988">
        <ele>342.419037</ele>
        <time>2011-10-22T13:22:30Z</time>
      </trkpt>
      <trkpt lat="43.74401" lon="7.27004">
        <ele>342.419067</ele>
        <time>2011-10-22T13:22:31Z</time>
      </trkpt>
      <trkpt lat="43.744" lon="7.2702">
        <ele>342.419098</ele>
        <time>2011-10-22T13:22:32Z</time>
      </trkpt>
      <trkpt lat="43.74399" lon="7.27036">
        <ele>342.419128</ele>
        <time>2011-10-22T13:22:33Z</time>
      </trkpt>
      <trkpt lat="43.74396" lon="7.27055">
        <ele>341.419167</ele>
        <time>2011-10-22T13:22:34Z</time>
      </trkpt>
      <trkpt lat="43.74395" lon="7.27073">
        <ele>341.419205</ele>
        <time>2011-10-22T13:22:35Z</time>
      </trkpt>
      <trkpt lat="43.74393" lon="7.27091">
        <ele>341.419239</ele>
        <time>2011-10-22T13:22:36Z</time>
      </trkpt>
      <trkpt lat="43.7439" lon="7.27109">
        <ele>342.419273</ele>
        <time>2011-10-22T13:22:37Z</time>
      </trkpt>
      <trkpt lat="43.74386" lon="7.27127">
        <ele>342.419308</ele>
        <time>2011-10-22T13:22:38Z</time>
      </trkpt>
      <trkpt lat="43.74383" lon="7.27144">
        <ele>342.419342</ele>
        <time>2011-10-22T13:22:39Z</time>
      </trkpt>
      <trkpt lat="43.7438" lon="7.27162">
        <ele>342.419373</ele>
        <time>2011-10-22T13:22:40Z</time>
      </trkpt>
      <trkpt lat="43.74376" lon="7.27179">
        <ele>343.419403</ele>
        <time>2011-10-22T13:22:41Z</time>
      </trkpt>
      <trkpt lat="43.74372" lon="7.27196">
        <ele>343.419434</ele>
        <time>2011-10-22T13:22:42Z</time>
      </trkpt>
      <trkpt lat="43.74367" lon="7.27214">
        <ele>343.419464</ele>
        <time>2011-10-22T13:22:43Z</time>
      </trkpt>
      <trkpt lat="43.74362" lon="7.27231">
        <ele>343.419495</ele>
        <time>2011-10-22T13:22:44Z</time>
      </trkpt>
      <trkpt lat="43.74357" lon="7.27248">
        <ele>343.419525</ele>
        <time>2011-10-22T13:22:45Z</time>
      </trkpt>
      <trkpt lat="43.74347" lon="7.27259">
        <ele>343.419533</ele>
        <time>2011-10-22T13:22:46Z</time>
      </trkpt>
      <trkpt lat="43.7434" lon="7.27272">
        <ele>343.419556</ele>
        <time>2011-10-22T13:22:47Z</time>
      </trkpt>
      <trkpt lat="43.74332" lon="7.27286">
        <ele>343.419571</ele>
        <time>2011-10-22T13:22:48Z</time>
      </trkpt>
      <trkpt lat="43.74319" lon="7.2729">
        <ele>343.419563</ele>
        <time>2011-10-22T13:22:49Z</time>
      </trkpt>
      <trkpt lat="43.74309" lon="7.27299">
        <ele>343.419563</ele>
        <time>2011-10-22T13:22:50Z</time>
      </trkpt>
      <trkpt lat="43.74298" lon="7.27307">
        <ele>343.419571</ele>
        <time>2011-10-22T13:22:51Z</time>
      </trkpt>
      <trkpt lat="43.74288" lon="7.27316">
        <ele>342.419579</ele>
        <time>2011-10-22T13:22:52Z</time>
      </trkpt>
      <trkpt lat="43.74277" lon="7.27325">
        <ele>342.419579</ele>
        <time>2011-10-22T13:22:53Z</time>
      </trkpt>
      <trkpt lat="43.74267" lon="7.27335">
        <ele>342.419586</ele>
        <time>2011-10-22T13:22:54Z</time>
      </trkpt>
      <trkpt lat="43.74258" lon="7.27345">
        <ele>342.419594</ele>
        <time>2011-10-22T13:22:55Z</time>
      </trkpt>
      <trkpt lat="43.74252" lon="7.2736">
        <ele>342.419617</ele>
        <time>2011-10-22T13:22:56Z</time>
      </trkpt>
      <trkpt lat="43.74245" lon="7.27373">
        <ele>342.41964</ele>
        <time>2011-10-22T13:22:57Z</time>
      </trkpt>
      <trkpt lat="43.74237" lon="7.27386">
        <ele>342.419655</ele>
        <time>2011-10-22T13:22:58Z</time>
      </trkpt>
      <trkpt lat="43.74227" lon="7.27395">
        <ele>343.419662</ele>
        <time>2011-10-22T13:22:59Z</time>
      </trkpt>
      <trkpt lat="43.74217" lon="7.27406">
        <ele>343.41967</ele>
        <time>2011-10-22T13:23:00Z</time>
      </trkpt>
      <trkpt lat="43.74206" lon="7.27417">
        <ele>343.419678</ele>
        <time>2011-10-22T13:23:01Z</time>
      </trkpt>
      <trkpt lat="43.74195" lon="7.27428">
        <ele>343.419685</ele>
        <time>2011-10-22T13:23:02Z</time>
      </trkpt>
      <trkpt lat="43.74183" lon="7.27438">
        <ele>343.419693</ele>
        <time>2011-10-22T13:23:03Z</time>
      </trkpt>
      <trkpt lat="43.74171" lon="7.27444">
        <ele>343.419685</ele>
        <time>2011-10-22T13:23:04Z</time>
      </trkpt>
      <trkpt lat="43.74159" lon="7.2745">
        <ele>342.419685</ele>
        <time>2011-10-22T13:23:05Z</time>
      </trkpt>
      <trkpt lat="43.74146" lon="7.27455">
        <ele>342.419678</ele>
        <time>2011-10-22T13:23:06Z</time>
      </trkpt>
      <trkpt lat="43.74132" lon="7.27459">
        <ele>341.41967</ele>
        <time>2011-10-22T13:23:07Z</time>
      </trkpt>
      <trkpt lat="43.74118" lon="7.27465">
        <ele>340.419659</ele>
        <time>2011-10-22T13:23:08Z</time>
      </trkpt>
      <trkpt lat="43.74103" lon="7.27471">
        <ele>340.419651</ele>
        <time>2011-10-22T13:23:09Z</time>
      </trkpt>
      <trkpt lat="43.74088" lon="7.27478">
        <ele>339.419647</ele>
        <time>2011-10-22T13:23:10Z</time>
      </trkpt>
      <trkpt lat="43.74073" lon="7.27484">
        <ele>338.41964</ele>
        <time>2011-10-22T13:23:11Z</time>
      </trkpt>
      <trkpt lat="43.74057" lon="7.27491">
        <ele>338.419636</ele>
        <time>2011-10-22T13:23:12Z</time>
      </trkpt>
      <trkpt lat="43.74043" lon="7.27498">
        <ele>337.419632</ele>
        <time>2011-10-22T13:23:13Z</time>
      </trkpt>
      <trkpt lat="43.74028" lon="7.27505">
        <ele>337.419624</ele>
        <time>2011-10-22T13:23:14Z</time>
      </trkpt>
      <trkpt lat="43.74015" lon="7.27512">
        <ele>336.419621</ele>
        <time>2011-10-22T13:23:15Z</time>
      </trkpt>
      <trkpt lat="43.74003" lon="7.27518">
        <ele>336.419617</ele>
        <time>2011-10-22T13:23:16Z</time>
      </trkpt>
      <trkpt lat="43.73991" lon="7.27523">
        <ele>336.419613</ele>
        <time>2011-10-22T13:23:17Z</time>
      </trkpt>
      <trkpt lat="43.73978" lon="7.27525">
        <ele>336.419601</ele>
        <time>2011-10-22T13:23:18Z</time>
      </trkpt>
      <trkpt lat="43.73966" lon="7.27523">
        <ele>336.419579</ele>
        <time>2011-10-22T13:23:19Z</time>
      </trkpt>
      <trkpt lat="43.73954" lon="7.2752">
        <ele>336.419556</ele>
        <time>2011-10-22T13:23:20Z</time>
      </trkpt>
      <trkpt lat="43.73943" lon="7.27516">
        <ele>336.419533</ele>
        <time>2011-10-22T13:23:21Z</time>
      </trkpt>
      <trkpt lat="43.73933" lon="7.27511">
        <ele>336.419506</ele>
        <time>2011-10-22T13:23:22Z</time>
      </trkpt>
      <trkpt lat="43.73922" lon="7.27505">
        <ele>336.419479</ele>
        <time>2011-10-22T13:23:23Z</time>
      </trkpt>
      <trkpt lat="43.73911" lon="7.27495">
        <ele>336.419445</ele>
        <time>2011-10-22T13:23:24Z</time>
      </trkpt>
      <trkpt lat="43.739" lon="7.27486">
        <ele>336.419411</ele>
        <time>2011-10-22T13:23:25Z</time>
      </trkpt>
      <trkpt lat="43.73889" lon="7.27478">
        <ele>336.41938</ele>
        <time>2011-10-22T13:23:26Z</time>
      </trkpt>
      <trkpt lat="43.73878" lon="7.2747">
        <ele>336.419342</ele>
        <time>2011-10-22T13:23:27Z</time>
      </trkpt>
      <trkpt lat="43.73867" lon="7.27462">
        <ele>336.419312</ele>
        <time>2011-10-22T13:23:28Z</time>
      </trkpt>
      <trkpt lat="43.73864" lon="7.27448">
        <ele>336.419277</ele>
        <time>2011-10-22T13:23:29Z</time>
      </trkpt>
      <trkpt lat="43.73858" lon="7.27436">
        <ele>336.419243</ele>
        <time>2011-10-22T13:23:30Z</time>
      </trkpt>
      <trkpt lat="43.73853" lon="7.27425">
        <ele>336.419212</ele>
        <time>2011-10-22T13:23:31Z</time>
      </trkpt>
      <trkpt lat="43.73856" lon="7.27408">
        <ele>336.419186</ele>
        <time>2011-10-22T13:23:32Z</time>
      </trkpt>
      <trkpt lat="43.73854" lon="7.27395">
        <ele>336.419151</ele>
        <time>2011-10-22T13:23:33Z</time>
      </trkpt>
      <trkpt lat="43.73858" lon="7.27381">
        <ele>337.419128</ele>
        <time>2011-10-22T13:23:34Z</time>
      </trkpt>
      <trkpt lat="43.7386" lon="7.27367">
        <ele>337.419106</ele>
        <time>2011-10-22T13:23:35Z</time>
      </trkpt>
      <trkpt lat="43.73865" lon="7.27355">
        <ele>337.419083</ele>
        <time>2011-10-22T13:23:36Z</time>
      </trkpt>
      <trkpt lat="43.73869" lon="7.27342">
        <ele>337.419064</ele>
        <time>2011-10-22T13:23:37Z</time>
      </trkpt>
      <trkpt lat="43.73874" lon="7.27321">
        <ele>337.419022</ele>
        <time>2011-10-22T13:23:39Z</time>
      </trkpt>
      <trkpt lat="43.7388" lon="7.273">
        <ele>336.418987</ele>
        <time>2011-10-22T13:23:41Z</time>
      </trkpt>
      <trkpt lat="43.73871" lon="7.27306">
        <ele>336.418983</ele>
        <time>2011-10-22T13:23:42Z</time>
      </trkpt>
      <trkpt lat="43.73859" lon="7.27314">
        <ele>336.418987</ele>
        <time>2011-10-22T13:23:45Z</time>
      </trkpt>
      <trkpt lat="43.73848" lon="7.2733">
        <ele>336.419003</ele>
        <time>2011-10-22T13:23:47Z</time>
      </trkpt>
      <trkpt lat="43.73843" lon="7.2734">
        <ele>336.419022</ele>
        <time>2011-10-22T13:23:48Z</time>
      </trkpt>
      <trkpt lat="43.73836" lon="7.27352">
        <ele>336.419037</ele>
        <time>2011-10-22T13:23:49Z</time>
      </trkpt>
      <trkpt lat="43.73828" lon="7.27364">
        <ele>335.419052</ele>
        <time>2011-10-22T13:23:50Z</time>
      </trkpt>
      <trkpt lat="43.73821" lon="7.27375">
        <ele>334.419064</ele>
        <time>2011-10-22T13:23:51Z</time>
      </trkpt>
      <trkpt lat="43.73813" lon="7.27386">
        <ele>334.419075</ele>
        <time>2011-10-22T13:23:52Z</time>
      </trkpt>
      <trkpt lat="43.73809" lon="7.274">
        <ele>333.419098</ele>
        <time>2011-10-22T13:23:53Z</time>
      </trkpt>
      <trkpt lat="43.73804" lon="7.27412">
        <ele>333.419121</ele>
        <time>2011-10-22T13:23:54Z</time>
      </trkpt>
      <trkpt lat="43.73798" lon="7.27424">
        <ele>333.419144</ele>
        <time>2011-10-22T13:23:55Z</time>
      </trkpt>
      <trkpt lat="43.73799" lon="7.27437">
        <ele>332.41917</ele>
        <time>2011-10-22T13:23:56Z</time>
      </trkpt>
      <trkpt lat="43.73813" lon="7.27456">
        <ele>332.419228</ele>
        <time>2011-10-22T13:23:58Z</time>
      </trkpt>
      <trkpt lat="43.73827" lon="7.27474">
        <ele>332.419281</ele>
        <time>2011-10-22T13:24:00Z</time>
      </trkpt>
      <trkpt lat="43.73835" lon="7.27484">
        <ele>331.419312</ele>
        <time>2011-10-22T13:24:01Z</time>
      </trkpt>
      <trkpt lat="43.73843" lon="7.27494">
        <ele>331.419346</ele>
        <time>2011-10-22T13:24:02Z</time>
      </trkpt>
      <trkpt lat="43.73852" lon="7.27505">
        <ele>331.419384</ele>
        <time>2011-10-22T13:24:03Z</time>
      </trkpt>
      <trkpt lat="43.7386" lon="7.27517">
        <ele>330.419418</ele>
        <time>2011-10-22T13:24:04Z</time>
      </trkpt>
      <trkpt lat="43.73868" lon="7.27527">
        <ele>329.419456</ele>
        <time>2011-10-22T13:24:05Z</time>
      </trkpt>
      <trkpt lat="43.73876" lon="7.27539">
        <ele>329.419487</ele>
        <time>2011-10-22T13:24:06Z</time>
      </trkpt>
      <trkpt lat="43.73883" lon="7.2755">
        <ele>329.419518</ele>
        <time>2011-10-22T13:24:07Z</time>
      </trkpt>
      <trkpt lat="43.73888" lon="7.27561">
        <ele>329.419556</ele>
        <time>2011-10-22T13:24:08Z</time>
      </trkpt>
      <trkpt lat="43.73892" lon="7.27573">
        <ele>329.419586</ele>
        <time>2011-10-22T13:24:09Z</time>
      </trkpt>
      <trkpt lat="43.73888" lon="7.27594">
        <ele>329.419624</ele>
        <time>2011-10-22T13:24:11Z</time>
      </trkpt>
      <trkpt lat="43.73876" lon="7.2761">
        <ele>329.41964</ele>
        <time>2011-10-22T13:24:13Z</time>
      </trkpt>
      <trkpt lat="43.73865" lon="7.27626">
        <ele>329.419655</ele>
        <time>2011-10-22T13:24:15Z</time>
      </trkpt>
      <trkpt lat="43.73853" lon="7.27641">
        <ele>328.419674</ele>
        <time>2011-10-22T13:24:17Z</time>
      </trkpt>
      <trkpt lat="43.7384" lon="7.27657">
        <ele>327.419693</ele>
        <time>2011-10-22T13:24:19Z</time>
      </trkpt>
      <trkpt lat="43.73832" lon="7.27676">
        <ele>326.419724</ele>
        <time>2011-10-22T13:24:21Z</time>
      </trkpt>
      <trkpt lat="43.73834" lon="7.27698">
        <ele>325.419769</ele>
        <time>2011-10-22T13:24:23Z</time>
      </trkpt>
      <trkpt lat="43.73835" lon="7.27718">
        <ele>325.419815</ele>
        <time>2011-10-22T13:24:25Z</time>
      </trkpt>
      <trkpt lat="43.73856" lon="7.2773">
        <ele>323.419868</ele>
        <time>2011-10-22T13:24:27Z</time>
      </trkpt>
      <trkpt lat="43.73867" lon="7.27733">
        <ele>322.419891</ele>
        <time>2011-10-22T13:24:28Z</time>
      </trkpt>
      <trkpt lat="43.73881" lon="7.2773">
        <ele>320.419907</ele>
        <time>2011-10-22T13:24:29Z</time>
      </trkpt>
      <trkpt lat="43.73893" lon="7.27728">
        <ele>319.419914</ele>
        <time>2011-10-22T13:24:30Z</time>
      </trkpt>
      <trkpt lat="43.73905" lon="7.27726">
        <ele>319.419926</ele>
        <time>2011-10-22T13:24:31Z</time>
      </trkpt>
      <trkpt lat="43.73916" lon="7.27725">
        <ele>318.419941</ele>
        <time>2011-10-22T13:24:32Z</time>
      </trkpt>
      <trkpt lat="43.73926" lon="7.27725">
        <ele>318.419952</ele>
        <time>2011-10-22T13:24:33Z</time>
      </trkpt>
      <trkpt lat="43.73936" lon="7.27725">
        <ele>317.419971</ele>
        <time>2011-10-22T13:24:34Z</time>
      </trkpt>
      <trkpt lat="43.73945" lon="7.27728">
        <ele>317.419983</ele>
        <time>2011-10-22T13:24:35Z</time>
      </trkpt>
      <trkpt lat="43.73959" lon="7.27739">
        <ele>316.420029</ele>
        <time>2011-10-22T13:24:37Z</time>
      </trkpt>
      <trkpt lat="43.73964" lon="7.27748">
        <ele>317.420055</ele>
        <time>2011-10-22T13:24:38Z</time>
      </trkpt>
      <trkpt lat="43.73965" lon="7.2777">
        <ele>317.420105</ele>
        <time>2011-10-22T13:24:40Z</time>
      </trkpt>
      <trkpt lat="43.73957" lon="7.27777">
        <ele>317.420105</ele>
        <time>2011-10-22T13:24:41Z</time>
      </trkpt>
      <trkpt lat="43.7395" lon="7.27785">
        <ele>316.420113</ele>
        <time>2011-10-22T13:24:42Z</time>
      </trkpt>
      <trkpt lat="43.73942" lon="7.27793">
        <ele>316.42012</ele>
        <time>2011-10-22T13:24:43Z</time>
      </trkpt>
      <trkpt lat="43.73934" lon="7.278">
        <ele>316.420128</ele>
        <time>2011-10-22T13:24:44Z</time>
      </trkpt>
      <trkpt lat="43.7392" lon="7.27803">
        <ele>316.420113</ele>
        <time>2011-10-22T13:24:45Z</time>
      </trkpt>
      <trkpt lat="43.73909" lon="7.27807">
        <ele>315.420105</ele>
        <time>2011-10-22T13:24:46Z</time>
      </trkpt>
      <trkpt lat="43.73898" lon="7.27812">
        <ele>315.420101</ele>
        <time>2011-10-22T13:24:47Z</time>
      </trkpt>
      <trkpt lat="43.73886" lon="7.27817">
        <ele>314.420097</ele>
        <time>2011-10-22T13:24:48Z</time>
      </trkpt>
      <trkpt lat="43.73875" lon="7.27822">
        <ele>313.42009</ele>
        <time>2011-10-22T13:24:49Z</time>
      </trkpt>
      <trkpt lat="43.73864" lon="7.27828">
        <ele>311.42009</ele>
        <time>2011-10-22T13:24:50Z</time>
      </trkpt>
      <trkpt lat="43.73852" lon="7.27834">
        <ele>309.420086</ele>
        <time>2011-10-22T13:24:51Z</time>
      </trkpt>
      <trkpt lat="43.73839" lon="7.27841">
        <ele>307.420082</ele>
        <time>2011-10-22T13:24:52Z</time>
      </trkpt>
      <trkpt lat="43.73826" lon="7.27848">
        <ele>306.420082</ele>
        <time>2011-10-22T13:24:53Z</time>
      </trkpt>
      <trkpt lat="43.73813" lon="7.27856">
        <ele>304.420074</ele>
        <time>2011-10-22T13:24:54Z</time>
      </trkpt>
      <trkpt lat="43.738" lon="7.27864">
        <ele>303.420078</ele>
        <time>2011-10-22T13:24:55Z</time>
      </trkpt>
      <trkpt lat="43.73787" lon="7.27872">
        <ele>302.420078</ele>
        <time>2011-10-22T13:24:56Z</time>
      </trkpt>
      <trkpt lat="43.73773" lon="7.2788">
        <ele>300.420078</ele>
        <time>2011-10-22T13:24:57Z</time>
      </trkpt>
      <trkpt lat="43.7376" lon="7.27889">
        <ele>299.420074</ele>
        <time>2011-10-22T13:24:58Z</time>
      </trkpt>
      <trkpt lat="43.73746" lon="7.27897">
        <ele>299.420078</ele>
        <time>2011-10-22T13:24:59Z</time>
      </trkpt>
      <trkpt lat="43.73732" lon="7.27904">
        <ele>297.420067</ele>
        <time>2011-10-22T13:25:00Z</time>
      </trkpt>
      <trkpt lat="43.73719" lon="7.2791">
        <ele>295.420067</ele>
        <time>2011-10-22T13:25:01Z</time>
      </trkpt>
      <trkpt lat="43.73704" lon="7.27917">
        <ele>294.420059</ele>
        <time>2011-10-22T13:25:02Z</time>
      </trkpt>
      <trkpt lat="43.73689" lon="7.27925">
        <ele>293.420059</ele>
        <time>2011-10-22T13:25:03Z</time>
      </trkpt>
      <trkpt lat="43.73675" lon="7.27933">
        <ele>292.420059</ele>
        <time>2011-10-22T13:25:04Z</time>
      </trkpt>
      <trkpt lat="43.73662" lon="7.27942">
        <ele>292.420055</ele>
        <time>2011-10-22T13:25:05Z</time>
      </trkpt>
      <trkpt lat="43.73649" lon="7.27951">
        <ele>290.420059</ele>
        <time>2011-10-22T13:25:06Z</time>
      </trkpt>
      <trkpt lat="43.73638" lon="7.27959">
        <ele>290.420059</ele>
        <time>2011-10-22T13:25:07Z</time>
      </trkpt>
      <trkpt lat="43.73627" lon="7.27959">
        <ele>289.420044</ele>
        <time>2011-10-22T13:25:08Z</time>
      </trkpt>
      <trkpt lat="43.73617" lon="7.27962">
        <ele>289.42004</ele>
        <time>2011-10-22T13:25:09Z</time>
      </trkpt>
      <trkpt lat="43.73608" lon="7.27951">
        <ele>288.420002</ele>
        <time>2011-10-22T13:25:10Z</time>
      </trkpt>
      <trkpt lat="43.73598" lon="7.27946">
        <ele>288.419975</ele>
        <time>2011-10-22T13:25:11Z</time>
      </trkpt>
      <trkpt lat="43.73586" lon="7.27942">
        <ele>287.419952</ele>
        <time>2011-10-22T13:25:12Z</time>
      </trkpt>
      <trkpt lat="43.73575" lon="7.27938">
        <ele>287.41993</ele>
        <time>2011-10-22T13:25:13Z</time>
      </trkpt>
      <trkpt lat="43.73565" lon="7.27933">
        <ele>287.419907</ele>
        <time>2011-10-22T13:25:14Z</time>
      </trkpt>
      <trkpt lat="43.73554" lon="7.27929">
        <ele>287.41988</ele>
        <time>2011-10-22T13:25:15Z</time>
      </trkpt>
      <trkpt lat="43.73544" lon="7.27919">
        <ele>286.419846</ele>
        <time>2011-10-22T13:25:16Z</time>
      </trkpt>
      <trkpt lat="43.73534" lon="7.27911">
        <ele>286.419815</ele>
        <time>2011-10-22T13:25:17Z</time>
      </trkpt>
      <trkpt lat="43.73524" lon="7.27903">
        <ele>285.419785</ele>
        <time>2011-10-22T13:25:18Z</time>
      </trkpt>
      <trkpt lat="43.73513" lon="7.27896">
        <ele>284.419754</ele>
        <time>2011-10-22T13:25:19Z</time>
      </trkpt>
      <trkpt lat="43.73503" lon="7.27888">
        <ele>284.419727</ele>
        <time>2011-10-22T13:25:20Z</time>
      </trkpt>
      <trkpt lat="43.73492" lon="7.27882">
        <ele>283.419697</ele>
        <time>2011-10-22T13:25:21Z</time>
      </trkpt>
      <trkpt lat="43.73481" lon="7.27875">
        <ele>283.419666</ele>
        <time>2011-10-22T13:25:22Z</time>
      </trkpt>
      <trkpt lat="43.7347" lon="7.27868">
        <ele>283.419632</ele>
        <time>2011-10-22T13:25:23Z</time>
      </trkpt>
      <trkpt lat="43.73459" lon="7.27861">
        <ele>282.419609</ele>
        <time>2011-10-22T13:25:24Z</time>
      </trkpt>
      <trkpt lat="43.73448" lon="7.27856">
        <ele>282.419582</ele>
        <time>2011-10-22T13:25:25Z</time>
      </trkpt>
      <trkpt lat="43.73439" lon="7.27851">
        <ele>282.419563</ele>
        <time>2011-10-22T13:25:26Z</time>
      </trkpt>
      <trkpt lat="43.73429" lon="7.27846">
        <ele>282.419537</ele>
        <time>2011-10-22T13:25:27Z</time>
      </trkpt>
      <trkpt lat="43.73421" lon="7.27841">
        <ele>281.419514</ele>
        <time>2011-10-22T13:25:28Z</time>
      </trkpt>
      <trkpt lat="43.73412" lon="7.27837">
        <ele>281.419495</ele>
        <time>2011-10-22T13:25:29Z</time>
      </trkpt>
      <trkpt lat="43.73398" lon="7.2784">
        <ele>279.419479</ele>
        <time>2011-10-22T13:25:31Z</time>
      </trkpt>
      <trkpt lat="43.73383" lon="7.27834">
        <ele>278.419449</ele>
        <time>2011-10-22T13:25:33Z</time>
      </trkpt>
      <trkpt lat="43.73369" lon="7.27822">
        <ele>276.419403</ele>
        <time>2011-10-22T13:25:35Z</time>
      </trkpt>
      <trkpt lat="43.73361" lon="7.27813">
        <ele>275.419373</ele>
        <time>2011-10-22T13:25:36Z</time>
      </trkpt>
      <trkpt lat="43.73354" lon="7.27803">
        <ele>274.419342</ele>
        <time>2011-10-22T13:25:37Z</time>
      </trkpt>
      <trkpt lat="43.73347" lon="7.27792">
        <ele>273.419312</ele>
        <time>2011-10-22T13:25:38Z</time>
      </trkpt>
      <trkpt lat="43.7334" lon="7.27782">
        <ele>273.419273</ele>
        <time>2011-10-22T13:25:39Z</time>
      </trkpt>
      <trkpt lat="43.73337" lon="7.27766">
        <ele>272.419243</ele>
        <time>2011-10-22T13:25:40Z</time>
      </trkpt>
      <trkpt lat="43.73332" lon="7.27754">
        <ele>272.419205</ele>
        <time>2011-10-22T13:25:41Z</time>
      </trkpt>
      <trkpt lat="43.73328" lon="7.27742">
        <ele>271.419174</ele>
        <time>2011-10-22T13:25:42Z</time>
      </trkpt>
      <trkpt lat="43.73324" lon="7.2773">
        <ele>271.419144</ele>
        <time>2011-10-22T13:25:43Z</time>
      </trkpt>
      <trkpt lat="43.73319" lon="7.27718">
        <ele>271.419113</ele>
        <time>2011-10-22T13:25:44Z</time>
      </trkpt>
      <trkpt lat="43.73314" lon="7.27704">
        <ele>270.419079</ele>
        <time>2011-10-22T13:25:47Z</time>
      </trkpt>
      <trkpt lat="43.73312" lon="7.27701">
        <ele>270.419067</ele>
        <time>2011-10-22T13:26:12Z</time>
      </trkpt>
      <trkpt lat="43.73298" lon="7.27685">
        <ele>248.419014</ele>
        <time>2011-10-22T13:26:29Z</time>
      </trkpt>
      <trkpt lat="43.73275" lon="7.27655">
        <ele>247.418922</ele>
        <time>2011-10-22T13:26:31Z</time>
      </trkpt>
      <trkpt lat="43.73265" lon="7.27644">
        <ele>246.418884</ele>
        <time>2011-10-22T13:26:32Z</time>
      </trkpt>
      <trkpt lat="43.73254" lon="7.27634">
        <ele>246.418846</ele>
        <time>2011-10-22T13:26:33Z</time>
      </trkpt>
      <trkpt lat="43.73234" lon="7.27618">
        <ele>245.418777</ele>
        <time>2011-10-22T13:26:35Z</time>
      </trkpt>
      <trkpt lat="43.73226" lon="7.27612">
        <ele>245.418758</ele>
        <time>2011-10-22T13:26:36Z</time>
      </trkpt>
      <trkpt lat="43.73212" lon="7.27608">
        <ele>244.418732</ele>
        <time>2011-10-22T13:26:37Z</time>
      </trkpt>
      <trkpt lat="43.73201" lon="7.27601">
        <ele>243.418701</ele>
        <time>2011-10-22T13:26:38Z</time>
      </trkpt>
      <trkpt lat="43.73189" lon="7.27598">
        <ele>243.418682</ele>
        <time>2011-10-22T13:26:39Z</time>
      </trkpt>
      <trkpt lat="43.73179" lon="7.27595">
        <ele>243.418659</ele>
        <time>2011-10-22T13:26:40Z</time>
      </trkpt>
      <trkpt lat="43.73169" lon="7.27589">
        <ele>242.418633</ele>
        <time>2011-10-22T13:26:41Z</time>
      </trkpt>
      <trkpt lat="43.73158" lon="7.27585">
        <ele>242.41861</ele>
        <time>2011-10-22T13:26:42Z</time>
      </trkpt>
      <trkpt lat="43.73148" lon="7.27582">
        <ele>241.418594</ele>
        <time>2011-10-22T13:26:43Z</time>
      </trkpt>
      <trkpt lat="43.73138" lon="7.27582">
        <ele>241.418571</ele>
        <time>2011-10-22T13:26:44Z</time>
      </trkpt>
      <trkpt lat="43.73126" lon="7.27586">
        <ele>241.418564</ele>
        <time>2011-10-22T13:26:45Z</time>
      </trkpt>
      <trkpt lat="43.73115" lon="7.27587">
        <ele>240.418552</ele>
        <time>2011-10-22T13:26:46Z</time>
      </trkpt>
      <trkpt lat="43.73104" lon="7.27589">
        <ele>240.418545</ele>
        <time>2011-10-22T13:26:47Z</time>
      </trkpt>
      <trkpt lat="43.73093" lon="7.27594">
        <ele>239.418541</ele>
        <time>2011-10-22T13:26:48Z</time>
      </trkpt>
      <trkpt lat="43.73082" lon="7.27597">
        <ele>237.41853</ele>
        <time>2011-10-22T13:26:49Z</time>
      </trkpt>
      <trkpt lat="43.73072" lon="7.27601">
        <ele>236.418526</ele>
        <time>2011-10-22T13:26:50Z</time>
      </trkpt>
      <trkpt lat="43.73062" lon="7.27605">
        <ele>235.418518</ele>
        <time>2011-10-22T13:26:51Z</time>
      </trkpt>
      <trkpt lat="43.73051" lon="7.27608">
        <ele>233.41851</ele>
        <time>2011-10-22T13:26:52Z</time>
      </trkpt>
      <trkpt lat="43.7304" lon="7.27613">
        <ele>231.418507</ele>
        <time>2011-10-22T13:26:53Z</time>
      </trkpt>
      <trkpt lat="43.7303" lon="7.27617">
        <ele>230.418503</ele>
        <time>2011-10-22T13:26:54Z</time>
      </trkpt>
      <trkpt lat="43.73019" lon="7.27622">
        <ele>229.418495</ele>
        <time>2011-10-22T13:26:55Z</time>
      </trkpt>
      <trkpt lat="43.73008" lon="7.27628">
        <ele>227.418499</ele>
        <time>2011-10-22T13:26:56Z</time>
      </trkpt>
      <trkpt lat="43.72996" lon="7.27635">
        <ele>226.418495</ele>
        <time>2011-10-22T13:26:57Z</time>
      </trkpt>
      <trkpt lat="43.72985" lon="7.27641">
        <ele>225.418495</ele>
        <time>2011-10-22T13:26:58Z</time>
      </trkpt>
      <trkpt lat="43.72975" lon="7.27649">
        <ele>224.418491</ele>
        <time>2011-10-22T13:26:59Z</time>
      </trkpt>
      <trkpt lat="43.72964" lon="7.27655">
        <ele>224.418495</ele>
        <time>2011-10-22T13:27:00Z</time>
      </trkpt>
      <trkpt lat="43.72954" lon="7.27662">
        <ele>224.418495</ele>
        <time>2011-10-22T13:27:01Z</time>
      </trkpt>
      <trkpt lat="43.72945" lon="7.27668">
        <ele>224.418495</ele>
        <time>2011-10-22T13:27:02Z</time>
      </trkpt>
      <trkpt lat="43.72935" lon="7.27674">
        <ele>224.418495</ele>
        <time>2011-10-22T13:27:03Z</time>
      </trkpt>
      <trkpt lat="43.72926" lon="7.2768">
        <ele>223.418495</ele>
        <time>2011-10-22T13:27:04Z</time>
      </trkpt>
      <trkpt lat="43.72917" lon="7.27686">
        <ele>223.418499</ele>
        <time>2011-10-22T13:27:05Z</time>
      </trkpt>
      <trkpt lat="43.729" lon="7.27688">
        <ele>223.418476</ele>
        <time>2011-10-22T13:27:07Z</time>
      </trkpt>
      <trkpt lat="43.72883" lon="7.27687">
        <ele>223.418453</ele>
        <time>2011-10-22T13:27:09Z</time>
      </trkpt>
      <trkpt lat="43.72864" lon="7.27682">
        <ele>223.418419</ele>
        <time>2011-10-22T13:27:11Z</time>
      </trkpt>
      <trkpt lat="43.72855" lon="7.27677">
        <ele>223.418396</ele>
        <time>2011-10-22T13:27:12Z</time>
      </trkpt>
      <trkpt lat="43.72845" lon="7.27678">
        <ele>223.418381</ele>
        <time>2011-10-22T13:27:13Z</time>
      </trkpt>
      <trkpt lat="43.72834" lon="7.27662">
        <ele>223.418331</ele>
        <time>2011-10-22T13:27:14Z</time>
      </trkpt>
      <trkpt lat="43.72824" lon="7.27657">
        <ele>223.418308</ele>
        <time>2011-10-22T13:27:15Z</time>
      </trkpt>
      <trkpt lat="43.72814" lon="7.27649">
        <ele>223.418282</ele>
        <time>2011-10-22T13:27:16Z</time>
      </trkpt>
      <trkpt lat="43.72803" lon="7.27641">
        <ele>223.418243</ele>
        <time>2011-10-22T13:27:17Z</time>
      </trkpt>
      <trkpt lat="43.72794" lon="7.27631">
        <ele>222.418213</ele>
        <time>2011-10-22T13:27:18Z</time>
      </trkpt>
      <trkpt lat="43.72786" lon="7.27622">
        <ele>222.418182</ele>
        <time>2011-10-22T13:27:19Z</time>
      </trkpt>
      <trkpt lat="43.72777" lon="7.27611">
        <ele>221.418144</ele>
        <time>2011-10-22T13:27:20Z</time>
      </trkpt>
      <trkpt lat="43.72769" lon="7.276">
        <ele>220.418114</ele>
        <time>2011-10-22T13:27:21Z</time>
      </trkpt>
      <trkpt lat="43.72761" lon="7.27592">
        <ele>219.418083</ele>
        <time>2011-10-22T13:27:22Z</time>
      </trkpt>
      <trkpt lat="43.72751" lon="7.27588">
        <ele>218.41806</ele>
        <time>2011-10-22T13:27:23Z</time>
      </trkpt>
      <trkpt lat="43.7274" lon="7.27585">
        <ele>218.418041</ele>
        <time>2011-10-22T13:27:24Z</time>
      </trkpt>
      <trkpt lat="43.72729" lon="7.27583">
        <ele>217.418022</ele>
        <time>2011-10-22T13:27:25Z</time>
      </trkpt>
      <trkpt lat="43.72718" lon="7.2758">
        <ele>217.417999</ele>
        <time>2011-10-22T13:27:26Z</time>
      </trkpt>
      <trkpt lat="43.72706" lon="7.27576">
        <ele>216.417973</ele>
        <time>2011-10-22T13:27:27Z</time>
      </trkpt>
      <trkpt lat="43.72694" lon="7.27572">
        <ele>215.41795</ele>
        <time>2011-10-22T13:27:28Z</time>
      </trkpt>
      <trkpt lat="43.72682" lon="7.27569">
        <ele>215.417931</ele>
        <time>2011-10-22T13:27:29Z</time>
      </trkpt>
      <trkpt lat="43.72669" lon="7.27566">
        <ele>215.417904</ele>
        <time>2011-10-22T13:27:30Z</time>
      </trkpt>
      <trkpt lat="43.72657" lon="7.27563">
        <ele>215.417885</ele>
        <time>2011-10-22T13:27:31Z</time>
      </trkpt>
      <trkpt lat="43.72645" lon="7.27561">
        <ele>214.417862</ele>
        <time>2011-10-22T13:27:32Z</time>
      </trkpt>
      <trkpt lat="43.72633" lon="7.27559">
        <ele>214.417839</ele>
        <time>2011-10-22T13:27:33Z</time>
      </trkpt>
      <trkpt lat="43.72621" lon="7.27556">
        <ele>214.417816</ele>
        <time>2011-10-22T13:27:34Z</time>
      </trkpt>
      <trkpt lat="43.72609" lon="7.27553">
        <ele>214.417793</ele>
        <time>2011-10-22T13:27:35Z</time>
      </trkpt>
      <trkpt lat="43.72598" lon="7.27548">
        <ele>213.417763</ele>
        <time>2011-10-22T13:27:36Z</time>
      </trkpt>
      <trkpt lat="43.72586" lon="7.27543">
        <ele>213.41774</ele>
        <time>2011-10-22T13:27:37Z</time>
      </trkpt>
      <trkpt lat="43.72574" lon="7.27539">
        <ele>213.417717</ele>
        <time>2011-10-22T13:27:38Z</time>
      </trkpt>
      <trkpt lat="43.72563" lon="7.27532">
        <ele>212.417686</ele>
        <time>2011-10-22T13:27:39Z</time>
      </trkpt>
      <trkpt lat="43.72552" lon="7.27527">
        <ele>212.41766</ele>
        <time>2011-10-22T13:27:40Z</time>
      </trkpt>
      <trkpt lat="43.72542" lon="7.2752">
        <ele>212.417629</ele>
        <time>2011-10-22T13:27:41Z</time>
      </trkpt>
      <trkpt lat="43.72532" lon="7.27515">
        <ele>212.417603</ele>
        <time>2011-10-22T13:27:42Z</time>
      </trkpt>
      <trkpt lat="43.72515" lon="7.27504">
        <ele>211.417564</ele>
        <time>2011-10-22T13:27:44Z</time>
      </trkpt>
      <trkpt lat="43.72507" lon="7.27499">
        <ele>211.417542</ele>
        <time>2011-10-22T13:27:45Z</time>
      </trkpt>
      <trkpt lat="43.72486" lon="7.27485">
        <ele>211.41748</ele>
        <time>2011-10-22T13:27:48Z</time>
      </trkpt>
      <trkpt lat="43.72474" lon="7.27471">
        <ele>211.417435</ele>
        <time>2011-10-22T13:27:50Z</time>
      </trkpt>
      <trkpt lat="43.72469" lon="7.27463">
        <ele>210.417412</ele>
        <time>2011-10-22T13:27:51Z</time>
      </trkpt>
      <trkpt lat="43.72462" lon="7.27454">
        <ele>210.417385</ele>
        <time>2011-10-22T13:27:52Z</time>
      </trkpt>
      <trkpt lat="43.72454" lon="7.27443">
        <ele>210.417343</ele>
        <time>2011-10-22T13:27:53Z</time>
      </trkpt>
      <trkpt lat="43.72447" lon="7.27432">
        <ele>210.417313</ele>
        <time>2011-10-22T13:27:54Z</time>
      </trkpt>
      <trkpt lat="43.72439" lon="7.27422">
        <ele>210.417278</ele>
        <time>2011-10-22T13:27:55Z</time>
      </trkpt>
      <trkpt lat="43.72429" lon="7.27406">
        <ele>210.417233</ele>
        <time>2011-10-22T13:27:57Z</time>
      </trkpt>
      <trkpt lat="43.72419" lon="7.27393">
        <ele>210.417191</ele>
        <time>2011-10-22T13:27:59Z</time>
      </trkpt>
      <trkpt lat="43.72412" lon="7.27385">
        <ele>210.41716</ele>
        <time>2011-10-22T13:28:00Z</time>
      </trkpt>
      <trkpt lat="43.72405" lon="7.27377">
        <ele>209.417137</ele>
        <time>2011-10-22T13:28:01Z</time>
      </trkpt>
      <trkpt lat="43.72398" lon="7.27368">
        <ele>209.417114</ele>
        <time>2011-10-22T13:28:02Z</time>
      </trkpt>
      <trkpt lat="43.7239" lon="7.2736">
        <ele>209.417084</ele>
        <time>2011-10-22T13:28:03Z</time>
      </trkpt>
      <trkpt lat="43.72379" lon="7.2735">
        <ele>208.417046</ele>
        <time>2011-10-22T13:28:04Z</time>
      </trkpt>
      <trkpt lat="43.7237" lon="7.2734">
        <ele>208.417015</ele>
        <time>2011-10-22T13:28:05Z</time>
      </trkpt>
      <trkpt lat="43.7236" lon="7.27331">
        <ele>208.416981</ele>
        <time>2011-10-22T13:28:06Z</time>
      </trkpt>
      <trkpt lat="43.72351" lon="7.27322">
        <ele>207.416946</ele>
        <time>2011-10-22T13:28:07Z</time>
      </trkpt>
      <trkpt lat="43.72341" lon="7.27313">
        <ele>207.416916</ele>
        <time>2011-10-22T13:28:08Z</time>
      </trkpt>
      <trkpt lat="43.72331" lon="7.27305">
        <ele>206.416882</ele>
        <time>2011-10-22T13:28:09Z</time>
      </trkpt>
      <trkpt lat="43.72321" lon="7.27297">
        <ele>206.416851</ele>
        <time>2011-10-22T13:28:10Z</time>
      </trkpt>
      <trkpt lat="43.72312" lon="7.2729">
        <ele>205.416824</ele>
        <time>2011-10-22T13:28:11Z</time>
      </trkpt>
      <trkpt lat="43.72301" lon="7.27282">
        <ele>205.416794</ele>
        <time>2011-10-22T13:28:12Z</time>
      </trkpt>
      <trkpt lat="43.72289" lon="7.27273">
        <ele>205.416756</ele>
        <time>2011-10-22T13:28:13Z</time>
      </trkpt>
      <trkpt lat="43.72277" lon="7.27264">
        <ele>205.416725</ele>
        <time>2011-10-22T13:28:14Z</time>
      </trkpt>
      <trkpt lat="43.72264" lon="7.27257">
        <ele>205.416687</ele>
        <time>2011-10-22T13:28:15Z</time>
      </trkpt>
      <trkpt lat="43.72252" lon="7.2725">
        <ele>206.416656</ele>
        <time>2011-10-22T13:28:16Z</time>
      </trkpt>
      <trkpt lat="43.72239" lon="7.27244">
        <ele>205.416626</ele>
        <time>2011-10-22T13:28:17Z</time>
      </trkpt>
      <trkpt lat="43.72227" lon="7.27239">
        <ele>205.416599</ele>
        <time>2011-10-22T13:28:18Z</time>
      </trkpt>
      <trkpt lat="43.72216" lon="7.27234">
        <ele>205.416573</ele>
        <time>2011-10-22T13:28:19Z</time>
      </trkpt>
      <trkpt lat="43.72204" lon="7.2723">
        <ele>205.41655</ele>
        <time>2011-10-22T13:28:20Z</time>
      </trkpt>
      <trkpt lat="43.72193" lon="7.27227">
        <ele>204.416527</ele>
        <time>2011-10-22T13:28:21Z</time>
      </trkpt>
      <trkpt lat="43.72183" lon="7.27222">
        <ele>204.416504</ele>
        <time>2011-10-22T13:28:22Z</time>
      </trkpt>
      <trkpt lat="43.72172" lon="7.27217">
        <ele>204.416481</ele>
        <time>2011-10-22T13:28:23Z</time>
      </trkpt>
      <trkpt lat="43.7216" lon="7.27221">
        <ele>204.41647</ele>
        <time>2011-10-22T13:28:24Z</time>
      </trkpt>
      <trkpt lat="43.72148" lon="7.27221">
        <ele>204.416454</ele>
        <time>2011-10-22T13:28:25Z</time>
      </trkpt>
      <trkpt lat="43.72136" lon="7.27222">
        <ele>204.416443</ele>
        <time>2011-10-22T13:28:26Z</time>
      </trkpt>
      <trkpt lat="43.72124" lon="7.27225">
        <ele>204.416428</ele>
        <time>2011-10-22T13:28:27Z</time>
      </trkpt>
      <trkpt lat="43.72111" lon="7.27227">
        <ele>204.41642</ele>
        <time>2011-10-22T13:28:28Z</time>
      </trkpt>
      <trkpt lat="43.72099" lon="7.2723">
        <ele>204.416409</ele>
        <time>2011-10-22T13:28:29Z</time>
      </trkpt>
      <trkpt lat="43.72086" lon="7.27234">
        <ele>203.416397</ele>
        <time>2011-10-22T13:28:30Z</time>
      </trkpt>
      <trkpt lat="43.72075" lon="7.27237">
        <ele>203.416389</ele>
        <time>2011-10-22T13:28:31Z</time>
      </trkpt>
      <trkpt lat="43.72063" lon="7.2724">
        <ele>202.416382</ele>
        <time>2011-10-22T13:28:32Z</time>
      </trkpt>
      <trkpt lat="43.72052" lon="7.27239">
        <ele>201.416359</ele>
        <time>2011-10-22T13:28:33Z</time>
      </trkpt>
      <trkpt lat="43.72041" lon="7.27235">
        <ele>198.416336</ele>
        <time>2011-10-22T13:28:34Z</time>
      </trkpt>
      <trkpt lat="43.7203" lon="7.2723">
        <ele>195.416313</ele>
        <time>2011-10-22T13:28:35Z</time>
      </trkpt>
      <trkpt lat="43.72019" lon="7.27226">
        <ele>192.41629</ele>
        <time>2011-10-22T13:28:36Z</time>
      </trkpt>
      <trkpt lat="43.72008" lon="7.27221">
        <ele>188.416264</ele>
        <time>2011-10-22T13:28:37Z</time>
      </trkpt>
      <trkpt lat="43.71997" lon="7.27215">
        <ele>184.416237</ele>
        <time>2011-10-22T13:28:38Z</time>
      </trkpt>
      <trkpt lat="43.71986" lon="7.27211">
        <ele>181.41621</ele>
        <time>2011-10-22T13:28:39Z</time>
      </trkpt>
      <trkpt lat="43.71975" lon="7.27206">
        <ele>178.416183</ele>
        <time>2011-10-22T13:28:40Z</time>
      </trkpt>
      <trkpt lat="43.71964" lon="7.27202">
        <ele>176.416161</ele>
        <time>2011-10-22T13:28:41Z</time>
      </trkpt>
      <trkpt lat="43.71954" lon="7.27198">
        <ele>173.416142</ele>
        <time>2011-10-22T13:28:42Z</time>
      </trkpt>
      <trkpt lat="43.71944" lon="7.27195">
        <ele>171.416122</ele>
        <time>2011-10-22T13:28:43Z</time>
      </trkpt>
      <trkpt lat="43.71933" lon="7.27192">
        <ele>169.4161</ele>
        <time>2011-10-22T13:28:44Z</time>
      </trkpt>
      <trkpt lat="43.71924" lon="7.27189">
        <ele>167.416084</ele>
        <time>2011-10-22T13:28:45Z</time>
      </trkpt>
      <trkpt lat="43.71915" lon="7.27188">
        <ele>165.416069</ele>
        <time>2011-10-22T13:28:46Z</time>
      </trkpt>
      <trkpt lat="43.71898" lon="7.27189">
        <ele>163.416046</ele>
        <time>2011-10-22T13:28:48Z</time>
      </trkpt>
      <trkpt lat="43.71886" lon="7.27193">
        <ele>161.416039</ele>
        <time>2011-10-22T13:28:50Z</time>
      </trkpt>
      <trkpt lat="43.7188" lon="7.27208">
        <ele>160.416061</ele>
        <time>2011-10-22T13:28:52Z</time>
      </trkpt>
      <trkpt lat="43.71878" lon="7.27215">
        <ele>159.416073</ele>
        <time>2011-10-22T13:28:53Z</time>
      </trkpt>
      <trkpt lat="43.71873" lon="7.27226">
        <ele>158.416092</ele>
        <time>2011-10-22T13:28:55Z</time>
      </trkpt>
      <trkpt lat="43.7186" lon="7.27236">
        <ele>157.416092</ele>
        <time>2011-10-22T13:28:58Z</time>
      </trkpt>
      <trkpt lat="43.71848" lon="7.2724">
        <ele>157.416084</ele>
        <time>2011-10-22T13:29:00Z</time>
      </trkpt>
      <trkpt lat="43.71838" lon="7.27239">
        <ele>156.416069</ele>
        <time>2011-10-22T13:29:01Z</time>
      </trkpt>
      <trkpt lat="43.71829" lon="7.27238">
        <ele>156.416054</ele>
        <time>2011-10-22T13:29:02Z</time>
      </trkpt>
      <trkpt lat="43.71819" lon="7.27237">
        <ele>155.416039</ele>
        <time>2011-10-22T13:29:03Z</time>
      </trkpt>
      <trkpt lat="43.7181" lon="7.27236">
        <ele>155.416023</ele>
        <time>2011-10-22T13:29:04Z</time>
      </trkpt>
      <trkpt lat="43.718" lon="7.27236">
        <ele>154.416016</ele>
        <time>2011-10-22T13:29:05Z</time>
      </trkpt>
      <trkpt lat="43.71782" lon="7.27233">
        <ele>154.415985</ele>
        <time>2011-10-22T13:29:07Z</time>
      </trkpt>
      <trkpt lat="43.71769" lon="7.27233">
        <ele>153.415962</ele>
        <time>2011-10-22T13:29:10Z</time>
      </trkpt>
      <trkpt lat="43.71758" lon="7.27231">
        <ele>152.415947</ele>
        <time>2011-10-22T13:29:12Z</time>
      </trkpt>
      <trkpt lat="43.71746" lon="7.27229">
        <ele>151.415928</ele>
        <time>2011-10-22T13:29:14Z</time>
      </trkpt>
      <trkpt lat="43.71735" lon="7.27227">
        <ele>150.415901</ele>
        <time>2011-10-22T13:29:16Z</time>
      </trkpt>
      <trkpt lat="43.71724" lon="7.27205">
        <ele>149.41584</ele>
        <time>2011-10-22T13:29:32Z</time>
      </trkpt>
      <trkpt lat="43.71723" lon="7.27186">
        <ele>148.415802</ele>
        <time>2011-10-22T13:29:34Z</time>
      </trkpt>
      <trkpt lat="43.71723" lon="7.27164">
        <ele>148.415749</ele>
        <time>2011-10-22T13:29:36Z</time>
      </trkpt>
      <trkpt lat="43.71724" lon="7.2715">
        <ele>148.415726</ele>
        <time>2011-10-22T13:29:37Z</time>
      </trkpt>
      <trkpt lat="43.71725" lon="7.27123">
        <ele>148.415668</ele>
        <time>2011-10-22T13:29:39Z</time>
      </trkpt>
      <trkpt lat="43.71725" lon="7.27109">
        <ele>147.415634</ele>
        <time>2011-10-22T13:29:40Z</time>
      </trkpt>
      <trkpt lat="43.71726" lon="7.27096">
        <ele>147.415611</ele>
        <time>2011-10-22T13:29:41Z</time>
      </trkpt>
      <trkpt lat="43.71727" lon="7.27083">
        <ele>147.415585</ele>
        <time>2011-10-22T13:29:42Z</time>
      </trkpt>
      <trkpt lat="43.71728" lon="7.27071">
        <ele>147.415558</ele>
        <time>2011-10-22T13:29:43Z</time>
      </trkpt>
      <trkpt lat="43.7173" lon="7.27048">
        <ele>147.415512</ele>
        <time>2011-10-22T13:29:45Z</time>
      </trkpt>
      <trkpt lat="43.71732" lon="7.27034">
        <ele>148.415489</ele>
        <time>2011-10-22T13:29:48Z</time>
      </trkpt>
      <trkpt lat="43.71734" lon="7.27032">
        <ele>148.415482</ele>
        <time>2011-10-22T13:29:52Z</time>
      </trkpt>
      <trkpt lat="43.71741" lon="7.27023">
        <ele>139.415474</ele>
        <time>2011-10-22T13:30:28Z</time>
      </trkpt>
      <trkpt lat="43.71769" lon="7.27024">
        <ele>134.415516</ele>
        <time>2011-10-22T13:30:51Z</time>
      </trkpt>
      <trkpt lat="43.71789" lon="7.27034">
        <ele>130.415565</ele>
        <time>2011-10-22T13:31:20Z</time>
      </trkpt>
      <trkpt lat="43.71802" lon="7.27043">
        <ele>123.415604</ele>
        <time>2011-10-22T13:32:47Z</time>
      </trkpt>
      <trkpt lat="43.71806" lon="7.27042">
        <ele>120.415604</ele>
        <time>2011-10-22T13:33:16Z</time>
      </trkpt>
      <trkpt lat="43.71795" lon="7.2704">
        <ele>111.415588</ele>
        <time>2011-10-22T13:34:13Z</time>
      </trkpt>
      <trkpt lat="43.71789" lon="7.27036">
        <ele>106.415569</ele>
        <time>2011-10-22T13:34:23Z</time>
      </trkpt>
      <trkpt lat="43.71777" lon="7.27028">
        <ele>103.415535</ele>
        <time>2011-10-22T13:34:50Z</time>
      </trkpt>
      <trkpt lat="43.71777" lon="7.27029">
        <ele>103.415535</ele>
        <time>2011-10-22T13:34:55Z</time>
      </trkpt>
      <trkpt lat="43.71784" lon="7.27036">
        <ele>107.415562</ele>
        <time>2011-10-22T13:48:34Z</time>
      </trkpt>
      <trkpt lat="43.71777" lon="7.27027">
        <ele>99.415535</ele>
        <time>2011-10-22T13:49:28Z</time>
      </trkpt>
      <trkpt lat="43.71776" lon="7.27027">
        <ele>99.415531</ele>
        <time>2011-10-22T13:49:31Z</time>
      </trkpt>
      <trkpt lat="43.7178" lon="7.27038">
        <ele>104.415562</ele>
        <time>2011-10-22T13:50:21Z</time>
      </trkpt>
      <trkpt lat="43.7178" lon="7.27035">
        <ele>108.415558</ele>
        <time>2011-10-22T13:56:02Z</time>
      </trkpt>
      <trkpt lat="43.7178" lon="7.27035">
        <ele>108.415558</ele>
        <time>2011-10-22T13:56:03Z</time>
      </trkpt>
      <trkpt lat="43.71726" lon="7.2705">
        <ele>56.415512</ele>
        <time>2011-10-22T13:56:06Z</time>
      </trkpt>
      <trkpt lat="43.71726" lon="7.2705">
        <ele>56.415512</ele>
        <time>2011-10-22T13:56:08Z</time>
      </trkpt>
      <trkpt lat="43.71742" lon="7.27037">
        <ele>92.415508</ele>
        <time>2011-10-22T13:56:18Z</time>
      </trkpt>
      <trkpt lat="43.71744" lon="7.27038">
        <ele>95.415512</ele>
        <time>2011-10-22T13:56:24Z</time>
      </trkpt>
      <trkpt lat="43.71749" lon="7.27027">
        <ele>100.415497</ele>
        <time>2011-10-22T13:56:54Z</time>
      </trkpt>
      <trkpt lat="43.71752" lon="7.27015">
        <ele>110.415474</ele>
        <time>2011-10-22T13:59:35Z</time>
      </trkpt>
      <trkpt lat="43.71745" lon="7.26985">
        <ele>117.415405</ele>
        <time>2011-10-22T14:05:01Z</time>
      </trkpt>
      <trkpt lat="43.71726" lon="7.27032">
        <ele>118.415474</ele>
        <time>2011-10-22T14:06:29Z</time>
      </trkpt>
      <trkpt lat="43.71747" lon="7.27037">
        <ele>115.415512</ele>
        <time>2011-10-22T14:06:46Z</time>
      </trkpt>
      <trkpt lat="43.71749" lon="7.27035">
        <ele>114.415512</ele>
        <time>2011-10-22T14:06:55Z</time>
      </trkpt>
    </trkseg>
  </trk>
</gpx>